<?xml version='1.0' encoding='UTF-8'?><gpx version="1.1" creator="JPX - https://github.com/jenetics/jpx" xmlns="http://www.topografix.com/GPX/1/1"><trk><trkseg><trkpt lat="45.7877406" lon="9.979652"><ele>336.0</ele><time>2026-04-18T14:34:28.815Z</time></trkpt><trkpt lat="45.7877344" lon="9.9795512"><ele>336.0</ele><time>2026-04-18T14:34:48.814Z</time></trkpt><trkpt lat="45.78771" lon="9.979465"><ele>336.0</ele><time>2026-04-18T14:34:58.815Z</time></trkpt><trkpt lat="45.7877075" lon="9.9797351"><ele>336.0</ele><time>2026-04-18T14:35:11.815Z</time></trkpt><trkpt lat="45.7877663" lon="9.9797825"><ele>336.0</ele><time>2026-04-18T14:35:16.815Z</time></trkpt><trkpt lat="45.7878287" lon="9.9797564"><ele>336.0</ele><time>2026-04-18T14:35:22.815Z</time></trkpt><trkpt lat="45.7877645" lon="9.9797422"><ele>336.0</ele><time>2026-04-18T14:38:03.814Z</time></trkpt><trkpt lat="45.7877017" lon="9.9798009"><ele>336.0</ele><time>2026-04-18T14:38:06.815Z</time></trkpt><trkpt lat="45.7876478" lon="9.9798496"><ele>336.0</ele><time>2026-04-18T14:38:34.814Z</time></trkpt><trkpt lat="45.7876016" lon="9.9797545"><ele>336.0</ele><time>2026-04-18T14:38:38.814Z</time></trkpt><trkpt lat="45.7875663" lon="9.9798619"><ele>336.0</ele><time>2026-04-18T14:38:46.815Z</time></trkpt><trkpt lat="45.7875891" lon="9.9800412"><ele>336.3333333333333</ele><time>2026-04-18T14:38:48.815Z</time></trkpt><trkpt lat="45.7876068" lon="9.9801405"><ele>336.6666666666667</ele><time>2026-04-18T14:38:49.815Z</time></trkpt><trkpt lat="45.7876242" lon="9.9802533"><ele>337.0</ele><time>2026-04-18T14:38:50.815Z</time></trkpt><trkpt lat="45.7876505" lon="9.980379"><ele>337.33333333333337</ele><time>2026-04-18T14:38:51.815Z</time></trkpt><trkpt lat="45.7876766" lon="9.980508"><ele>337.6666666666667</ele><time>2026-04-18T14:38:52.814Z</time></trkpt><trkpt lat="45.7877092" lon="9.9806346"><ele>338.0</ele><time>2026-04-18T14:38:53.815Z</time></trkpt><trkpt lat="45.7877468" lon="9.9807646"><ele>338.4</ele><time>2026-04-18T14:38:54.815Z</time></trkpt><trkpt lat="45.7877888" lon="9.9808914"><ele>338.79999999999995</ele><time>2026-04-18T14:38:55.814Z</time></trkpt><trkpt lat="45.7878424" lon="9.9810047"><ele>339.2</ele><time>2026-04-18T14:38:56.815Z</time></trkpt><trkpt lat="45.7879027" lon="9.9811067"><ele>339.6</ele><time>2026-04-18T14:38:57.815Z</time></trkpt><trkpt lat="45.7879661" lon="9.9811944"><ele>340.0</ele><time>2026-04-18T14:38:58.814Z</time></trkpt><trkpt lat="45.7880272" lon="9.9812668"><ele>340.0</ele><time>2026-04-18T14:38:59.815Z</time></trkpt><trkpt lat="45.7880714" lon="9.9813334"><ele>340.0</ele><time>2026-04-18T14:39:00.815Z</time></trkpt><trkpt lat="45.7880569" lon="9.9815013"><ele>340.0</ele><time>2026-04-18T14:39:02.814Z</time></trkpt><trkpt lat="45.7879695" lon="9.9815666"><ele>340.0</ele><time>2026-04-18T14:39:03.815Z</time></trkpt><trkpt lat="45.7878989" lon="9.9816163"><ele>340.0</ele><time>2026-04-18T14:39:04.814Z</time></trkpt><trkpt lat="45.7878213" lon="9.9816715"><ele>340.0</ele><time>2026-04-18T14:39:05.813Z</time></trkpt><trkpt lat="45.7877317" lon="9.9817209"><ele>339.8</ele><time>2026-04-18T14:39:06.813Z</time></trkpt><trkpt lat="45.7876452" lon="9.9817576"><ele>339.6</ele><time>2026-04-18T14:39:07.815Z</time></trkpt><trkpt lat="45.7875532" lon="9.9817974"><ele>339.4</ele><time>2026-04-18T14:39:08.815Z</time></trkpt><trkpt lat="45.7874705" lon="9.9818421"><ele>339.2</ele><time>2026-04-18T14:39:09.814Z</time></trkpt><trkpt lat="45.7873863" lon="9.9818899"><ele>339.0</ele><time>2026-04-18T14:39:10.814Z</time></trkpt><trkpt lat="45.7872952" lon="9.9819364"><ele>339.0</ele><time>2026-04-18T14:39:11.815Z</time></trkpt><trkpt lat="45.7872067" lon="9.9819813"><ele>339.0</ele><time>2026-04-18T14:39:12.813Z</time></trkpt><trkpt lat="45.7871178" lon="9.9820288"><ele>339.0</ele><time>2026-04-18T14:39:13.814Z</time></trkpt><trkpt lat="45.7870295" lon="9.98207"><ele>339.0</ele><time>2026-04-18T14:39:14.814Z</time></trkpt><trkpt lat="45.7869473" lon="9.9821163"><ele>339.0</ele><time>2026-04-18T14:39:15.813Z</time></trkpt><trkpt lat="45.7868578" lon="9.9821621"><ele>339.2</ele><time>2026-04-18T14:39:16.815Z</time></trkpt><trkpt lat="45.7867728" lon="9.9822036"><ele>339.4</ele><time>2026-04-18T14:39:17.814Z</time></trkpt><trkpt lat="45.7866822" lon="9.9822564"><ele>339.6</ele><time>2026-04-18T14:39:18.814Z</time></trkpt><trkpt lat="45.7865921" lon="9.9823082"><ele>339.8</ele><time>2026-04-18T14:39:19.814Z</time></trkpt><trkpt lat="45.7865039" lon="9.9823603"><ele>340.0</ele><time>2026-04-18T14:39:20.814Z</time></trkpt><trkpt lat="45.7864158" lon="9.9824165"><ele>340.0</ele><time>2026-04-18T14:39:21.813Z</time></trkpt><trkpt lat="45.7863296" lon="9.9824747"><ele>340.0</ele><time>2026-04-18T14:39:22.816Z</time></trkpt><trkpt lat="45.7862427" lon="9.9825312"><ele>340.0</ele><time>2026-04-18T14:39:23.813Z</time></trkpt><trkpt lat="45.7861574" lon="9.9825916"><ele>340.0</ele><time>2026-04-18T14:39:24.815Z</time></trkpt><trkpt lat="45.7860718" lon="9.9826455"><ele>340.0</ele><time>2026-04-18T14:39:25.814Z</time></trkpt><trkpt lat="45.7859871" lon="9.9827001"><ele>340.6</ele><time>2026-04-18T14:39:26.815Z</time></trkpt><trkpt lat="45.7859045" lon="9.9827529"><ele>341.2</ele><time>2026-04-18T14:39:27.814Z</time></trkpt><trkpt lat="45.7858196" lon="9.9828032"><ele>341.79999999999995</ele><time>2026-04-18T14:39:28.815Z</time></trkpt><trkpt lat="45.7857318" lon="9.982849"><ele>342.4</ele><time>2026-04-18T14:39:29.814Z</time></trkpt><trkpt lat="45.7856403" lon="9.9828809"><ele>343.0</ele><time>2026-04-18T14:39:30.813Z</time></trkpt><trkpt lat="45.7855437" lon="9.9828983"><ele>343.0</ele><time>2026-04-18T14:39:31.815Z</time></trkpt><trkpt lat="45.7854484" lon="9.9829127"><ele>343.0</ele><time>2026-04-18T14:39:32.814Z</time></trkpt><trkpt lat="45.7853523" lon="9.9829188"><ele>343.0</ele><time>2026-04-18T14:39:33.815Z</time></trkpt><trkpt lat="45.7852617" lon="9.9829069"><ele>343.0</ele><time>2026-04-18T14:39:34.815Z</time></trkpt><trkpt lat="45.7851752" lon="9.9828792"><ele>343.0</ele><time>2026-04-18T14:39:35.814Z</time></trkpt><trkpt lat="45.7850853" lon="9.9828678"><ele>343.8333333333333</ele><time>2026-04-18T14:39:36.813Z</time></trkpt><trkpt lat="45.7849975" lon="9.9828504"><ele>344.66666666666663</ele><time>2026-04-18T14:39:37.815Z</time></trkpt><trkpt lat="45.7849117" lon="9.9828141"><ele>345.5</ele><time>2026-04-18T14:39:38.815Z</time></trkpt><trkpt lat="45.7848287" lon="9.9827835"><ele>346.3333333333333</ele><time>2026-04-18T14:39:39.813Z</time></trkpt><trkpt lat="45.7847429" lon="9.9827698"><ele>347.1666666666667</ele><time>2026-04-18T14:39:40.814Z</time></trkpt><trkpt lat="45.7846513" lon="9.9827799"><ele>348.0</ele><time>2026-04-18T14:39:41.815Z</time></trkpt><trkpt lat="45.7845591" lon="9.9827981"><ele>348.0</ele><time>2026-04-18T14:39:42.813Z</time></trkpt><trkpt lat="45.784466" lon="9.9827984"><ele>348.0</ele><time>2026-04-18T14:39:43.814Z</time></trkpt><trkpt lat="45.7843722" lon="9.9827877"><ele>348.0</ele><time>2026-04-18T14:39:44.815Z</time></trkpt><trkpt lat="45.7842814" lon="9.9827812"><ele>348.0</ele><time>2026-04-18T14:39:45.815Z</time></trkpt><trkpt lat="45.784189" lon="9.9827767"><ele>348.0</ele><time>2026-04-18T14:39:46.815Z</time></trkpt><trkpt lat="45.7840992" lon="9.9827776"><ele>349.1666666666667</ele><time>2026-04-18T14:39:47.815Z</time></trkpt><trkpt lat="45.7840092" lon="9.9827871"><ele>350.3333333333333</ele><time>2026-04-18T14:39:48.814Z</time></trkpt><trkpt lat="45.7839167" lon="9.9828038"><ele>351.5</ele><time>2026-04-18T14:39:49.814Z</time></trkpt><trkpt lat="45.783829" lon="9.9828238"><ele>352.66666666666663</ele><time>2026-04-18T14:39:50.813Z</time></trkpt><trkpt lat="45.7837396" lon="9.9828424"><ele>353.8333333333333</ele><time>2026-04-18T14:39:51.816Z</time></trkpt><trkpt lat="45.7836532" lon="9.9828547"><ele>355.0</ele><time>2026-04-18T14:39:52.814Z</time></trkpt><trkpt lat="45.7835679" lon="9.9828709"><ele>356.66666666666663</ele><time>2026-04-18T14:39:53.814Z</time></trkpt><trkpt lat="45.783485" lon="9.9828949"><ele>358.3333333333333</ele><time>2026-04-18T14:39:54.814Z</time></trkpt><trkpt lat="45.7834019" lon="9.9829078"><ele>360.0</ele><time>2026-04-18T14:39:55.815Z</time></trkpt><trkpt lat="45.7833183" lon="9.9829246"><ele>361.6666666666667</ele><time>2026-04-18T14:39:56.814Z</time></trkpt><trkpt lat="45.7832355" lon="9.9829439"><ele>363.33333333333337</ele><time>2026-04-18T14:39:57.816Z</time></trkpt><trkpt lat="45.783168" lon="9.9829588"><ele>365.0</ele><time>2026-04-18T14:39:58.814Z</time></trkpt><trkpt lat="45.7830836" lon="9.9829725"><ele>365.0</ele><time>2026-04-18T14:40:00.815Z</time></trkpt><trkpt lat="45.783037" lon="9.9830886"><ele>365.0</ele><time>2026-04-18T14:40:02.813Z</time></trkpt><trkpt lat="45.783036" lon="9.9832763"><ele>365.0</ele><time>2026-04-18T14:40:04.814Z</time></trkpt><trkpt lat="45.7830607" lon="9.9834065"><ele>365.0</ele><time>2026-04-18T14:40:05.814Z</time></trkpt><trkpt lat="45.7830796" lon="9.9835278"><ele>365.0</ele><time>2026-04-18T14:40:06.814Z</time></trkpt><trkpt lat="45.7830932" lon="9.9836476"><ele>364.1666666666667</ele><time>2026-04-18T14:40:07.813Z</time></trkpt><trkpt lat="45.7831234" lon="9.9837425"><ele>363.33333333333337</ele><time>2026-04-18T14:40:08.815Z</time></trkpt><trkpt lat="45.7831449" lon="9.9838496"><ele>362.5</ele><time>2026-04-18T14:40:09.814Z</time></trkpt><trkpt lat="45.7831649" lon="9.9839635"><ele>361.6666666666667</ele><time>2026-04-18T14:40:10.815Z</time></trkpt><trkpt lat="45.7831868" lon="9.9840765"><ele>360.8333333333333</ele><time>2026-04-18T14:40:11.814Z</time></trkpt><trkpt lat="45.7832151" lon="9.9841898"><ele>360.0</ele><time>2026-04-18T14:40:12.814Z</time></trkpt><trkpt lat="45.7832559" lon="9.9842983"><ele>359.3333333333333</ele><time>2026-04-18T14:40:13.813Z</time></trkpt><trkpt lat="45.7832963" lon="9.9843983"><ele>358.6666666666667</ele><time>2026-04-18T14:40:14.815Z</time></trkpt><trkpt lat="45.7833396" lon="9.9844989"><ele>358.0</ele><time>2026-04-18T14:40:15.814Z</time></trkpt><trkpt lat="45.7833779" lon="9.984602"><ele>357.33333333333337</ele><time>2026-04-18T14:40:16.816Z</time></trkpt><trkpt lat="45.783417" lon="9.9847038"><ele>356.6666666666667</ele><time>2026-04-18T14:40:17.814Z</time></trkpt><trkpt lat="45.7834577" lon="9.9848175"><ele>356.0</ele><time>2026-04-18T14:40:18.815Z</time></trkpt><trkpt lat="45.7835082" lon="9.98496"><ele>354.20000000000005</ele><time>2026-04-18T14:40:19.814Z</time></trkpt><trkpt lat="45.7835513" lon="9.9851013"><ele>352.40000000000003</ele><time>2026-04-18T14:40:20.814Z</time></trkpt><trkpt lat="45.7835798" lon="9.9852448"><ele>350.6</ele><time>2026-04-18T14:40:21.814Z</time></trkpt><trkpt lat="45.7835975" lon="9.9853994"><ele>348.8</ele><time>2026-04-18T14:40:22.815Z</time></trkpt><trkpt lat="45.7836062" lon="9.9855559"><ele>347.0</ele><time>2026-04-18T14:40:23.814Z</time></trkpt><trkpt lat="45.7836122" lon="9.9857143"><ele>346.20000000000005</ele><time>2026-04-18T14:40:24.813Z</time></trkpt><trkpt lat="45.7836244" lon="9.9858787"><ele>345.4</ele><time>2026-04-18T14:40:25.813Z</time></trkpt><trkpt lat="45.7836426" lon="9.9860302"><ele>344.6</ele><time>2026-04-18T14:40:26.814Z</time></trkpt><trkpt lat="45.7836747" lon="9.9861754"><ele>343.79999999999995</ele><time>2026-04-18T14:40:27.815Z</time></trkpt><trkpt lat="45.783721" lon="9.9863205"><ele>343.0</ele><time>2026-04-18T14:40:28.814Z</time></trkpt><trkpt lat="45.7837689" lon="9.9864597"><ele>343.0</ele><time>2026-04-18T14:40:29.815Z</time></trkpt><trkpt lat="45.7838215" lon="9.9866069"><ele>343.0</ele><time>2026-04-18T14:40:30.813Z</time></trkpt><trkpt lat="45.7838643" lon="9.9867488"><ele>343.0</ele><time>2026-04-18T14:40:31.815Z</time></trkpt><trkpt lat="45.7839065" lon="9.986902"><ele>343.0</ele><time>2026-04-18T14:40:32.814Z</time></trkpt><trkpt lat="45.7839429" lon="9.9870565"><ele>343.0</ele><time>2026-04-18T14:40:33.814Z</time></trkpt><trkpt lat="45.7839801" lon="9.987221"><ele>343.0</ele><time>2026-04-18T14:40:34.814Z</time></trkpt><trkpt lat="45.7840261" lon="9.9873777"><ele>343.0</ele><time>2026-04-18T14:40:35.815Z</time></trkpt><trkpt lat="45.7840873" lon="9.9875319"><ele>343.0</ele><time>2026-04-18T14:40:36.814Z</time></trkpt><trkpt lat="45.7841608" lon="9.9876786"><ele>343.0</ele><time>2026-04-18T14:40:37.814Z</time></trkpt><trkpt lat="45.7842373" lon="9.9878206"><ele>343.0</ele><time>2026-04-18T14:40:38.815Z</time></trkpt><trkpt lat="45.7843176" lon="9.9879593"><ele>343.0</ele><time>2026-04-18T14:40:39.814Z</time></trkpt><trkpt lat="45.7843878" lon="9.9881127"><ele>343.0</ele><time>2026-04-18T14:40:40.813Z</time></trkpt><trkpt lat="45.7844428" lon="9.9882666"><ele>341.75</ele><time>2026-04-18T14:40:41.814Z</time></trkpt><trkpt lat="45.7844755" lon="9.9884315"><ele>340.5</ele><time>2026-04-18T14:40:42.814Z</time></trkpt><trkpt lat="45.7844923" lon="9.9886015"><ele>339.25</ele><time>2026-04-18T14:40:43.814Z</time></trkpt><trkpt lat="45.7845041" lon="9.9887562"><ele>338.0</ele><time>2026-04-18T14:40:44.813Z</time></trkpt><trkpt lat="45.7845176" lon="9.9889089"><ele>338.0</ele><time>2026-04-18T14:40:45.813Z</time></trkpt><trkpt lat="45.7845435" lon="9.9890647"><ele>338.0</ele><time>2026-04-18T14:40:46.814Z</time></trkpt><trkpt lat="45.7845595" lon="9.9892239"><ele>338.0</ele><time>2026-04-18T14:40:47.814Z</time></trkpt><trkpt lat="45.7845787" lon="9.9893771"><ele>338.0</ele><time>2026-04-18T14:40:48.815Z</time></trkpt><trkpt lat="45.7845981" lon="9.9895364"><ele>338.0</ele><time>2026-04-18T14:40:49.815Z</time></trkpt><trkpt lat="45.7846251" lon="9.9896903"><ele>338.4</ele><time>2026-04-18T14:40:50.814Z</time></trkpt><trkpt lat="45.7846603" lon="9.9898422"><ele>338.79999999999995</ele><time>2026-04-18T14:40:51.815Z</time></trkpt><trkpt lat="45.784705" lon="9.9899867"><ele>339.2</ele><time>2026-04-18T14:40:52.814Z</time></trkpt><trkpt lat="45.7847523" lon="9.9901359"><ele>339.6</ele><time>2026-04-18T14:40:53.814Z</time></trkpt><trkpt lat="45.7848002" lon="9.990282"><ele>340.0</ele><time>2026-04-18T14:40:54.815Z</time></trkpt><trkpt lat="45.7848469" lon="9.9904239"><ele>340.8</ele><time>2026-04-18T14:40:55.813Z</time></trkpt><trkpt lat="45.7848912" lon="9.9905616"><ele>341.6</ele><time>2026-04-18T14:40:56.814Z</time></trkpt><trkpt lat="45.7849439" lon="9.9906934"><ele>342.4</ele><time>2026-04-18T14:40:57.815Z</time></trkpt><trkpt lat="45.7850024" lon="9.9908369"><ele>343.2</ele><time>2026-04-18T14:40:58.814Z</time></trkpt><trkpt lat="45.785068" lon="9.9909671"><ele>344.0</ele><time>2026-04-18T14:40:59.814Z</time></trkpt><trkpt lat="45.7851129" lon="9.9910647"><ele>343.79999999999995</ele><time>2026-04-18T14:41:00.814Z</time></trkpt><trkpt lat="45.7851508" lon="9.9911484"><ele>343.59999999999997</ele><time>2026-04-18T14:41:01.815Z</time></trkpt><trkpt lat="45.7851898" lon="9.9912383"><ele>343.4</ele><time>2026-04-18T14:41:04.813Z</time></trkpt><trkpt lat="45.7852484" lon="9.9913508"><ele>343.2</ele><time>2026-04-18T14:41:11.814Z</time></trkpt><trkpt lat="45.7853069" lon="9.9914878"><ele>343.0</ele><time>2026-04-18T14:41:13.814Z</time></trkpt><trkpt lat="45.7853622" lon="9.9916161"><ele>343.16666666666663</ele><time>2026-04-18T14:41:15.813Z</time></trkpt><trkpt lat="45.7854129" lon="9.9917688"><ele>343.3333333333333</ele><time>2026-04-18T14:41:17.813Z</time></trkpt><trkpt lat="45.7854523" lon="9.9918453"><ele>343.5</ele><time>2026-04-18T14:41:18.815Z</time></trkpt><trkpt lat="45.7854928" lon="9.9919513"><ele>343.6666666666667</ele><time>2026-04-18T14:41:19.815Z</time></trkpt><trkpt lat="45.7855312" lon="9.9920568"><ele>343.83333333333337</ele><time>2026-04-18T14:41:20.813Z</time></trkpt><trkpt lat="45.7855743" lon="9.9921758"><ele>344.0</ele><time>2026-04-18T14:41:21.814Z</time></trkpt><trkpt lat="45.7856123" lon="9.9923007"><ele>344.0</ele><time>2026-04-18T14:41:22.814Z</time></trkpt><trkpt lat="45.7856487" lon="9.9924304"><ele>344.0</ele><time>2026-04-18T14:41:23.814Z</time></trkpt><trkpt lat="45.7856847" lon="9.9925597"><ele>344.0</ele><time>2026-04-18T14:41:24.814Z</time></trkpt><trkpt lat="45.7857354" lon="9.9926823"><ele>344.0</ele><time>2026-04-18T14:41:25.815Z</time></trkpt><trkpt lat="45.7857953" lon="9.9928159"><ele>344.0</ele><time>2026-04-18T14:41:26.814Z</time></trkpt><trkpt lat="45.7858659" lon="9.9929115"><ele>344.0</ele><time>2026-04-18T14:41:27.815Z</time></trkpt><trkpt lat="45.7859341" lon="9.9930187"><ele>344.0</ele><time>2026-04-18T14:41:28.815Z</time></trkpt><trkpt lat="45.7859971" lon="9.9931309"><ele>344.0</ele><time>2026-04-18T14:41:29.815Z</time></trkpt><trkpt lat="45.7860595" lon="9.993226"><ele>344.0</ele><time>2026-04-18T14:41:30.815Z</time></trkpt><trkpt lat="45.7861178" lon="9.9933225"><ele>344.0</ele><time>2026-04-18T14:41:31.814Z</time></trkpt><trkpt lat="45.7861679" lon="9.9934468"><ele>344.4</ele><time>2026-04-18T14:41:32.814Z</time></trkpt><trkpt lat="45.7862079" lon="9.9935774"><ele>344.79999999999995</ele><time>2026-04-18T14:41:33.816Z</time></trkpt><trkpt lat="45.7862399" lon="9.9937203"><ele>345.20000000000005</ele><time>2026-04-18T14:41:34.815Z</time></trkpt><trkpt lat="45.7862634" lon="9.9938474"><ele>345.6</ele><time>2026-04-18T14:41:35.814Z</time></trkpt><trkpt lat="45.7862982" lon="9.9939733"><ele>346.0</ele><time>2026-04-18T14:41:36.816Z</time></trkpt><trkpt lat="45.7863321" lon="9.9940946"><ele>346.0</ele><time>2026-04-18T14:41:37.814Z</time></trkpt><trkpt lat="45.786363" lon="9.9942251"><ele>346.0</ele><time>2026-04-18T14:41:38.815Z</time></trkpt><trkpt lat="45.7863928" lon="9.9943621"><ele>346.0</ele><time>2026-04-18T14:41:39.814Z</time></trkpt><trkpt lat="45.7864151" lon="9.9945047"><ele>346.0</ele><time>2026-04-18T14:41:40.814Z</time></trkpt><trkpt lat="45.7864379" lon="9.9946435"><ele>346.0</ele><time>2026-04-18T14:41:41.815Z</time></trkpt><trkpt lat="45.7864608" lon="9.9947744"><ele>346.0</ele><time>2026-04-18T14:41:42.814Z</time></trkpt><trkpt lat="45.7864818" lon="9.9948949"><ele>346.0</ele><time>2026-04-18T14:41:43.814Z</time></trkpt><trkpt lat="45.7865074" lon="9.995024"><ele>346.0</ele><time>2026-04-18T14:41:44.814Z</time></trkpt><trkpt lat="45.7865258" lon="9.9951631"><ele>346.0</ele><time>2026-04-18T14:41:45.815Z</time></trkpt><trkpt lat="45.7865191" lon="9.9953018"><ele>346.0</ele><time>2026-04-18T14:41:46.814Z</time></trkpt><trkpt lat="45.7865029" lon="9.9954414"><ele>346.20000000000005</ele><time>2026-04-18T14:41:47.815Z</time></trkpt><trkpt lat="45.7865009" lon="9.9955843"><ele>346.40000000000003</ele><time>2026-04-18T14:41:48.814Z</time></trkpt><trkpt lat="45.7865009" lon="9.9957227"><ele>346.6</ele><time>2026-04-18T14:41:49.814Z</time></trkpt><trkpt lat="45.7865004" lon="9.9958635"><ele>346.8</ele><time>2026-04-18T14:41:50.814Z</time></trkpt><trkpt lat="45.7864991" lon="9.9960012"><ele>347.0</ele><time>2026-04-18T14:41:51.814Z</time></trkpt><trkpt lat="45.7865004" lon="9.9961421"><ele>347.0</ele><time>2026-04-18T14:41:52.815Z</time></trkpt><trkpt lat="45.7865027" lon="9.9962861"><ele>347.0</ele><time>2026-04-18T14:41:53.813Z</time></trkpt><trkpt lat="45.7865031" lon="9.9964314"><ele>347.0</ele><time>2026-04-18T14:41:54.815Z</time></trkpt><trkpt lat="45.7865024" lon="9.9965735"><ele>347.0</ele><time>2026-04-18T14:41:55.814Z</time></trkpt><trkpt lat="45.7865053" lon="9.9967128"><ele>347.0</ele><time>2026-04-18T14:41:56.815Z</time></trkpt><trkpt lat="45.786505" lon="9.9968585"><ele>346.8</ele><time>2026-04-18T14:41:57.815Z</time></trkpt><trkpt lat="45.786504" lon="9.9970105"><ele>346.6</ele><time>2026-04-18T14:41:58.813Z</time></trkpt><trkpt lat="45.7865022" lon="9.9971592"><ele>346.40000000000003</ele><time>2026-04-18T14:41:59.815Z</time></trkpt><trkpt lat="45.7864984" lon="9.9973146"><ele>346.20000000000005</ele><time>2026-04-18T14:42:00.815Z</time></trkpt><trkpt lat="45.7864998" lon="9.9974691"><ele>346.0</ele><time>2026-04-18T14:42:01.815Z</time></trkpt><trkpt lat="45.7865035" lon="9.9976237"><ele>345.8</ele><time>2026-04-18T14:42:02.815Z</time></trkpt><trkpt lat="45.7865189" lon="9.9977758"><ele>345.6</ele><time>2026-04-18T14:42:03.814Z</time></trkpt><trkpt lat="45.7865394" lon="9.9979299"><ele>345.4</ele><time>2026-04-18T14:42:04.814Z</time></trkpt><trkpt lat="45.7865658" lon="9.9980822"><ele>345.2</ele><time>2026-04-18T14:42:05.814Z</time></trkpt><trkpt lat="45.7865956" lon="9.9982317"><ele>345.0</ele><time>2026-04-18T14:42:06.814Z</time></trkpt><trkpt lat="45.7866271" lon="9.9983802"><ele>345.4</ele><time>2026-04-18T14:42:07.815Z</time></trkpt><trkpt lat="45.7866576" lon="9.9985235"><ele>345.8</ele><time>2026-04-18T14:42:08.815Z</time></trkpt><trkpt lat="45.7866858" lon="9.9986739"><ele>346.20000000000005</ele><time>2026-04-18T14:42:09.814Z</time></trkpt><trkpt lat="45.7867105" lon="9.998827"><ele>346.6</ele><time>2026-04-18T14:42:10.815Z</time></trkpt><trkpt lat="45.7867289" lon="9.9989743"><ele>347.0</ele><time>2026-04-18T14:42:11.815Z</time></trkpt><trkpt lat="45.7867482" lon="9.9991276"><ele>347.0</ele><time>2026-04-18T14:42:12.814Z</time></trkpt><trkpt lat="45.7867673" lon="9.9992758"><ele>347.0</ele><time>2026-04-18T14:42:13.815Z</time></trkpt><trkpt lat="45.7867882" lon="9.9994235"><ele>347.0</ele><time>2026-04-18T14:42:14.814Z</time></trkpt><trkpt lat="45.7868101" lon="9.99957"><ele>347.0</ele><time>2026-04-18T14:42:15.814Z</time></trkpt><trkpt lat="45.7868319" lon="9.9997082"><ele>347.0</ele><time>2026-04-18T14:42:16.814Z</time></trkpt><trkpt lat="45.7868504" lon="9.9998342"><ele>347.0</ele><time>2026-04-18T14:42:17.813Z</time></trkpt><trkpt lat="45.7868709" lon="9.9999504"><ele>347.0</ele><time>2026-04-18T14:42:18.816Z</time></trkpt><trkpt lat="45.7869101" lon="10.0000434"><ele>347.0</ele><time>2026-04-18T14:42:19.813Z</time></trkpt><trkpt lat="45.7869564" lon="10.0001048"><ele>347.0</ele><time>2026-04-18T14:42:20.814Z</time></trkpt><trkpt lat="45.7870591" lon="10.0001591"><ele>347.0</ele><time>2026-04-18T14:42:22.815Z</time></trkpt><trkpt lat="45.7871085" lon="10.0002196"><ele>347.0</ele><time>2026-04-18T14:42:24.813Z</time></trkpt><trkpt lat="45.7870699" lon="10.0003533"><ele>347.0</ele><time>2026-04-18T14:42:38.814Z</time></trkpt><trkpt lat="45.787048" lon="10.0004444"><ele>347.0</ele><time>2026-04-18T14:42:39.815Z</time></trkpt><trkpt lat="45.7870118" lon="10.0005633"><ele>347.0</ele><time>2026-04-18T14:42:40.814Z</time></trkpt><trkpt lat="45.7869885" lon="10.0006675"><ele>347.0</ele><time>2026-04-18T14:42:41.814Z</time></trkpt><trkpt lat="45.7869605" lon="10.0007928"><ele>347.0</ele><time>2026-04-18T14:42:42.815Z</time></trkpt><trkpt lat="45.7869337" lon="10.0009242"><ele>347.0</ele><time>2026-04-18T14:42:43.814Z</time></trkpt><trkpt lat="45.7869082" lon="10.0010652"><ele>347.20000000000005</ele><time>2026-04-18T14:42:44.814Z</time></trkpt><trkpt lat="45.7868896" lon="10.0012062"><ele>347.4</ele><time>2026-04-18T14:42:45.815Z</time></trkpt><trkpt lat="45.7868728" lon="10.0013484"><ele>347.6</ele><time>2026-04-18T14:42:46.815Z</time></trkpt><trkpt lat="45.7868601" lon="10.001486"><ele>347.79999999999995</ele><time>2026-04-18T14:42:47.814Z</time></trkpt><trkpt lat="45.7868446" lon="10.0016243"><ele>348.0</ele><time>2026-04-18T14:42:48.814Z</time></trkpt><trkpt lat="45.7868326" lon="10.0017578"><ele>347.6666666666667</ele><time>2026-04-18T14:42:49.814Z</time></trkpt><trkpt lat="45.7868141" lon="10.0018888"><ele>347.3333333333333</ele><time>2026-04-18T14:42:50.815Z</time></trkpt><trkpt lat="45.7868" lon="10.0020162"><ele>347.0</ele><time>2026-04-18T14:42:51.815Z</time></trkpt><trkpt lat="45.7867884" lon="10.0021282"><ele>346.66666666666663</ele><time>2026-04-18T14:42:52.814Z</time></trkpt><trkpt lat="45.7867833" lon="10.0022321"><ele>346.3333333333333</ele><time>2026-04-18T14:42:53.816Z</time></trkpt><trkpt lat="45.7867821" lon="10.0023433"><ele>346.0</ele><time>2026-04-18T14:42:54.814Z</time></trkpt><trkpt lat="45.7867763" lon="10.0024575"><ele>345.8333333333333</ele><time>2026-04-18T14:42:55.813Z</time></trkpt><trkpt lat="45.7867758" lon="10.0025796"><ele>345.66666666666663</ele><time>2026-04-18T14:42:56.814Z</time></trkpt><trkpt lat="45.7867786" lon="10.0026947"><ele>345.5</ele><time>2026-04-18T14:42:57.814Z</time></trkpt><trkpt lat="45.7867824" lon="10.0028138"><ele>345.3333333333333</ele><time>2026-04-18T14:42:58.815Z</time></trkpt><trkpt lat="45.786795" lon="10.0029295"><ele>345.1666666666667</ele><time>2026-04-18T14:42:59.815Z</time></trkpt><trkpt lat="45.7868093" lon="10.0030365"><ele>345.0</ele><time>2026-04-18T14:43:00.813Z</time></trkpt><trkpt lat="45.7868291" lon="10.003138"><ele>345.0</ele><time>2026-04-18T14:43:01.816Z</time></trkpt><trkpt lat="45.7868319" lon="10.0032465"><ele>345.0</ele><time>2026-04-18T14:43:02.814Z</time></trkpt><trkpt lat="45.7868288" lon="10.0033468"><ele>345.0</ele><time>2026-04-18T14:43:03.814Z</time></trkpt><trkpt lat="45.7868212" lon="10.0034575"><ele>345.0</ele><time>2026-04-18T14:43:04.814Z</time></trkpt><trkpt lat="45.7868176" lon="10.0035649"><ele>345.0</ele><time>2026-04-18T14:43:05.814Z</time></trkpt><trkpt lat="45.786822" lon="10.003673"><ele>345.0</ele><time>2026-04-18T14:43:06.813Z</time></trkpt><trkpt lat="45.7868246" lon="10.0037816"><ele>345.1666666666667</ele><time>2026-04-18T14:43:07.814Z</time></trkpt><trkpt lat="45.7868259" lon="10.0038861"><ele>345.3333333333333</ele><time>2026-04-18T14:43:08.815Z</time></trkpt><trkpt lat="45.7868249" lon="10.0040002"><ele>345.5</ele><time>2026-04-18T14:43:09.813Z</time></trkpt><trkpt lat="45.7868252" lon="10.0041154"><ele>345.66666666666663</ele><time>2026-04-18T14:43:10.814Z</time></trkpt><trkpt lat="45.7868255" lon="10.0042323"><ele>345.8333333333333</ele><time>2026-04-18T14:43:11.815Z</time></trkpt><trkpt lat="45.7868193" lon="10.0043502"><ele>346.0</ele><time>2026-04-18T14:43:12.815Z</time></trkpt><trkpt lat="45.7868108" lon="10.0044656"><ele>346.8</ele><time>2026-04-18T14:43:13.816Z</time></trkpt><trkpt lat="45.7868053" lon="10.0045889"><ele>347.6</ele><time>2026-04-18T14:43:14.815Z</time></trkpt><trkpt lat="45.7868027" lon="10.004716"><ele>348.4</ele><time>2026-04-18T14:43:15.814Z</time></trkpt><trkpt lat="45.7867964" lon="10.0048421"><ele>349.2</ele><time>2026-04-18T14:43:16.814Z</time></trkpt><trkpt lat="45.7867923" lon="10.004979"><ele>350.0</ele><time>2026-04-18T14:43:17.815Z</time></trkpt><trkpt lat="45.786788" lon="10.0051226"><ele>350.8</ele><time>2026-04-18T14:43:18.815Z</time></trkpt><trkpt lat="45.7867775" lon="10.0052643"><ele>351.6</ele><time>2026-04-18T14:43:19.813Z</time></trkpt><trkpt lat="45.7867788" lon="10.0054254"><ele>352.4</ele><time>2026-04-18T14:43:20.813Z</time></trkpt><trkpt lat="45.7867872" lon="10.0055884"><ele>353.2</ele><time>2026-04-18T14:43:21.814Z</time></trkpt><trkpt lat="45.7868001" lon="10.0057508"><ele>354.0</ele><time>2026-04-18T14:43:22.815Z</time></trkpt><trkpt lat="45.7868137" lon="10.0059161"><ele>355.2</ele><time>2026-04-18T14:43:23.814Z</time></trkpt><trkpt lat="45.7868276" lon="10.0060759"><ele>356.4</ele><time>2026-04-18T14:43:24.815Z</time></trkpt><trkpt lat="45.7868431" lon="10.0062197"><ele>357.6</ele><time>2026-04-18T14:43:25.814Z</time></trkpt><trkpt lat="45.7868628" lon="10.0063477"><ele>358.8</ele><time>2026-04-18T14:43:26.813Z</time></trkpt><trkpt lat="45.7868842" lon="10.0064633"><ele>360.0</ele><time>2026-04-18T14:43:27.815Z</time></trkpt><trkpt lat="45.786911" lon="10.006566"><ele>357.6666666666667</ele><time>2026-04-18T14:43:28.814Z</time></trkpt><trkpt lat="45.786939" lon="10.0066597"><ele>355.3333333333333</ele><time>2026-04-18T14:43:29.814Z</time></trkpt><trkpt lat="45.7869713" lon="10.0068066"><ele>353.0</ele><time>2026-04-18T14:43:31.815Z</time></trkpt><trkpt lat="45.7869515" lon="10.0068966"><ele>350.66666666666663</ele><time>2026-04-18T14:43:33.815Z</time></trkpt><trkpt lat="45.7869141" lon="10.0070231"><ele>348.3333333333333</ele><time>2026-04-18T14:43:38.813Z</time></trkpt><trkpt lat="45.7868935" lon="10.0071447"><ele>346.0</ele><time>2026-04-18T14:43:40.815Z</time></trkpt><trkpt lat="45.7868848" lon="10.0072572"><ele>346.0</ele><time>2026-04-18T14:43:41.814Z</time></trkpt><trkpt lat="45.7868852" lon="10.007437"><ele>346.0</ele><time>2026-04-18T14:43:43.814Z</time></trkpt><trkpt lat="45.7868774" lon="10.0075999"><ele>346.0</ele><time>2026-04-18T14:43:45.814Z</time></trkpt><trkpt lat="45.7868794" lon="10.0077709"><ele>346.0</ele><time>2026-04-18T14:43:47.814Z</time></trkpt><trkpt lat="45.7868868" lon="10.0079271"><ele>346.5</ele><time>2026-04-18T14:43:49.814Z</time></trkpt><trkpt lat="45.7869002" lon="10.008025"><ele>347.0</ele><time>2026-04-18T14:43:51.814Z</time></trkpt><trkpt lat="45.7868907" lon="10.0081389"><ele>347.5</ele><time>2026-04-18T14:43:53.814Z</time></trkpt><trkpt lat="45.7868672" lon="10.008251"><ele>348.0</ele><time>2026-04-18T14:43:55.814Z</time></trkpt><trkpt lat="45.786826" lon="10.0083564"><ele>348.5</ele><time>2026-04-18T14:43:57.814Z</time></trkpt><trkpt lat="45.7867889" lon="10.0084926"><ele>349.0</ele><time>2026-04-18T14:43:59.814Z</time></trkpt><trkpt lat="45.7867176" lon="10.0086192"><ele>351.3333333333333</ele><time>2026-04-18T14:44:01.814Z</time></trkpt><trkpt lat="45.7866659" lon="10.0087222"><ele>353.66666666666663</ele><time>2026-04-18T14:44:03.814Z</time></trkpt><trkpt lat="45.7866477" lon="10.0088114"><ele>356.0</ele><time>2026-04-18T14:44:06.815Z</time></trkpt><trkpt lat="45.7866694" lon="10.0088985"><ele>358.3333333333333</ele><time>2026-04-18T14:44:29.813Z</time></trkpt><trkpt lat="45.7866838" lon="10.0090222"><ele>360.6666666666667</ele><time>2026-04-18T14:44:33.815Z</time></trkpt><trkpt lat="45.7866592" lon="10.0091249"><ele>363.0</ele><time>2026-04-18T14:44:37.815Z</time></trkpt><trkpt lat="45.7866576" lon="10.0092377"><ele>362.99999999999994</ele><time>2026-04-18T14:44:43.766Z</time></trkpt><trkpt lat="45.7866425" lon="10.0093399"><ele>363.0</ele><time>2026-04-18T14:44:45.815Z</time></trkpt><trkpt lat="45.7866118" lon="10.0094504"><ele>363.0</ele><time>2026-04-18T14:44:47.812Z</time></trkpt><trkpt lat="45.786612" lon="10.0095473"><ele>363.0</ele><time>2026-04-18T14:44:49.815Z</time></trkpt><trkpt lat="45.7866412" lon="10.0096385"><ele>363.0</ele><time>2026-04-18T14:44:53.815Z</time></trkpt><trkpt lat="45.7866527" lon="10.0097366"><ele>362.99999999999994</ele><time>2026-04-18T14:47:10.813Z</time></trkpt><trkpt lat="45.7866285" lon="10.0098396"><ele>363.0</ele><time>2026-04-18T14:47:20.813Z</time></trkpt><trkpt lat="45.7866279" lon="10.0099462"><ele>365.1666666666667</ele><time>2026-04-18T14:47:21.814Z</time></trkpt><trkpt lat="45.7866425" lon="10.0101182"><ele>367.3333333333333</ele><time>2026-04-18T14:47:29.813Z</time></trkpt><trkpt lat="45.7866275" lon="10.0102197"><ele>369.5</ele><time>2026-04-18T14:47:31.815Z</time></trkpt><trkpt lat="45.786596" lon="10.0103029"><ele>371.66666666666663</ele><time>2026-04-18T14:47:32.815Z</time></trkpt><trkpt lat="45.786609" lon="10.0104107"><ele>373.8333333333333</ele><time>2026-04-18T14:47:35.814Z</time></trkpt><trkpt lat="45.7865473" lon="10.0105004"><ele>376.0</ele><time>2026-04-18T14:47:38.815Z</time></trkpt><trkpt lat="45.7864511" lon="10.0105158"><ele>376.0</ele><time>2026-04-18T14:47:40.814Z</time></trkpt><trkpt lat="45.786367" lon="10.0105182"><ele>376.0</ele><time>2026-04-18T14:47:42.814Z</time></trkpt><trkpt lat="45.786277" lon="10.0105494"><ele>376.0</ele><time>2026-04-18T14:47:44.814Z</time></trkpt><trkpt lat="45.7861821" lon="10.0106171"><ele>376.0</ele><time>2026-04-18T14:47:46.814Z</time></trkpt><trkpt lat="45.78609" lon="10.0107244"><ele>376.0</ele><time>2026-04-18T14:47:48.814Z</time></trkpt><trkpt lat="45.7860071" lon="10.0108359"><ele>378.4</ele><time>2026-04-18T14:47:50.813Z</time></trkpt><trkpt lat="45.7859456" lon="10.0109688"><ele>380.8</ele><time>2026-04-18T14:47:52.813Z</time></trkpt><trkpt lat="45.7858945" lon="10.0110878"><ele>383.2</ele><time>2026-04-18T14:47:54.815Z</time></trkpt><trkpt lat="45.7858497" lon="10.0111718"><ele>385.59999999999997</ele><time>2026-04-18T14:47:56.814Z</time></trkpt><trkpt lat="45.7859249" lon="10.0112205"><ele>388.0</ele><time>2026-04-18T14:48:01.813Z</time></trkpt><trkpt lat="45.7859907" lon="10.0111191"><ele>388.0</ele><time>2026-04-18T14:48:03.814Z</time></trkpt><trkpt lat="45.7860593" lon="10.0110612"><ele>388.0</ele><time>2026-04-18T14:48:05.814Z</time></trkpt><trkpt lat="45.7861283" lon="10.0111183"><ele>388.0</ele><time>2026-04-18T14:48:07.813Z</time></trkpt><trkpt lat="45.7861182" lon="10.0112767"><ele>388.0</ele><time>2026-04-18T14:48:09.815Z</time></trkpt><trkpt lat="45.7861346" lon="10.0114567"><ele>388.0</ele><time>2026-04-18T14:48:11.813Z</time></trkpt><trkpt lat="45.7861836" lon="10.0115932"><ele>391.2</ele><time>2026-04-18T14:48:13.814Z</time></trkpt><trkpt lat="45.7862733" lon="10.011688"><ele>394.4</ele><time>2026-04-18T14:48:15.813Z</time></trkpt><trkpt lat="45.7863709" lon="10.011769"><ele>397.59999999999997</ele><time>2026-04-18T14:48:17.814Z</time></trkpt><trkpt lat="45.7864465" lon="10.0118504"><ele>400.79999999999995</ele><time>2026-04-18T14:48:19.814Z</time></trkpt><trkpt lat="45.7864729" lon="10.0119599"><ele>404.0</ele><time>2026-04-18T14:48:21.814Z</time></trkpt><trkpt lat="45.7864253" lon="10.012052"><ele>404.0</ele><time>2026-04-18T14:48:23.815Z</time></trkpt><trkpt lat="45.7863809" lon="10.0121284"><ele>404.0</ele><time>2026-04-18T14:48:25.814Z</time></trkpt><trkpt lat="45.7864085" lon="10.0122116"><ele>404.0</ele><time>2026-04-18T14:48:29.815Z</time></trkpt><trkpt lat="45.7864882" lon="10.0122431"><ele>404.0</ele><time>2026-04-18T14:48:32.814Z</time></trkpt><trkpt lat="45.7865602" lon="10.0122191"><ele>404.0</ele><time>2026-04-18T14:48:41.815Z</time></trkpt><trkpt lat="45.78664" lon="10.0122291"><ele>404.0</ele><time>2026-04-18T14:48:46.814Z</time></trkpt><trkpt lat="45.7867085" lon="10.012224"><ele>404.0</ele><time>2026-04-18T14:49:11.815Z</time></trkpt><trkpt lat="45.786751" lon="10.0122985"><ele>403.99999999999994</ele><time>2026-04-18T14:49:21.814Z</time></trkpt><trkpt lat="45.7867676" lon="10.0124039"><ele>404.0</ele><time>2026-04-18T14:49:27.814Z</time></trkpt><trkpt lat="45.7867343" lon="10.0124928"><ele>404.0</ele><time>2026-04-18T14:49:30.813Z</time></trkpt><trkpt lat="45.78672" lon="10.0125824"><ele>404.0</ele><time>2026-04-18T14:49:32.814Z</time></trkpt><trkpt lat="45.7867076" lon="10.0127003"><ele>403.99999999999994</ele><time>2026-04-18T14:49:34.814Z</time></trkpt><trkpt lat="45.7866927" lon="10.012814"><ele>404.0</ele><time>2026-04-18T14:49:36.813Z</time></trkpt><trkpt lat="45.7867322" lon="10.0129103"><ele>407.66666666666663</ele><time>2026-04-18T14:49:39.814Z</time></trkpt><trkpt lat="45.7867237" lon="10.0130061"><ele>411.3333333333333</ele><time>2026-04-18T14:50:28.813Z</time></trkpt><trkpt lat="45.7866419" lon="10.0130874"><ele>415.0</ele><time>2026-04-18T14:50:32.814Z</time></trkpt><trkpt lat="45.7865639" lon="10.0131606"><ele>418.66666666666663</ele><time>2026-04-18T14:50:34.814Z</time></trkpt><trkpt lat="45.7864805" lon="10.0131995"><ele>422.3333333333333</ele><time>2026-04-18T14:50:36.814Z</time></trkpt><trkpt lat="45.7864091" lon="10.0132445"><ele>426.0</ele><time>2026-04-18T14:50:38.814Z</time></trkpt><trkpt lat="45.7863475" lon="10.0133152"><ele>429.1666666666667</ele><time>2026-04-18T14:50:40.814Z</time></trkpt><trkpt lat="45.7862778" lon="10.013399"><ele>432.33333333333337</ele><time>2026-04-18T14:50:42.815Z</time></trkpt><trkpt lat="45.7862332" lon="10.0135038"><ele>435.5</ele><time>2026-04-18T14:50:44.815Z</time></trkpt><trkpt lat="45.7862125" lon="10.0136066"><ele>438.6666666666667</ele><time>2026-04-18T14:50:46.814Z</time></trkpt><trkpt lat="45.7862162" lon="10.0137357"><ele>441.83333333333337</ele><time>2026-04-18T14:50:48.816Z</time></trkpt><trkpt lat="45.7862414" lon="10.0138522"><ele>445.0</ele><time>2026-04-18T14:50:50.764Z</time></trkpt><trkpt lat="45.7862482" lon="10.0139889"><ele>445.0</ele><time>2026-04-18T14:50:52.815Z</time></trkpt><trkpt lat="45.7862727" lon="10.0141119"><ele>445.0</ele><time>2026-04-18T14:50:54.814Z</time></trkpt><trkpt lat="45.7863079" lon="10.0142343"><ele>445.0</ele><time>2026-04-18T14:50:56.813Z</time></trkpt><trkpt lat="45.7862857" lon="10.0143533"><ele>445.0</ele><time>2026-04-18T14:50:59.815Z</time></trkpt><trkpt lat="45.7862173" lon="10.014449"><ele>445.0</ele><time>2026-04-18T14:51:37.815Z</time></trkpt><trkpt lat="45.7861089" lon="10.0145499"><ele>447.00000000000006</ele><time>2026-04-18T14:51:39.815Z</time></trkpt><trkpt lat="45.7860171" lon="10.0146551"><ele>449.0</ele><time>2026-04-18T14:51:41.816Z</time></trkpt><trkpt lat="45.7859405" lon="10.0147424"><ele>451.0</ele><time>2026-04-18T14:51:43.813Z</time></trkpt><trkpt lat="45.7858758" lon="10.0148266"><ele>453.0</ele><time>2026-04-18T14:51:45.816Z</time></trkpt><trkpt lat="45.7858262" lon="10.0149012"><ele>455.00000000000006</ele><time>2026-04-18T14:51:47.814Z</time></trkpt><trkpt lat="45.7857838" lon="10.0149894"><ele>457.0</ele><time>2026-04-18T14:51:50.814Z</time></trkpt><trkpt lat="45.7858459" lon="10.0150543"><ele>459.50000000000006</ele><time>2026-04-18T14:51:56.813Z</time></trkpt><trkpt lat="45.7859114" lon="10.0151464"><ele>462.0</ele><time>2026-04-18T14:52:00.813Z</time></trkpt><trkpt lat="45.7859727" lon="10.0152295"><ele>464.5</ele><time>2026-04-18T14:52:02.813Z</time></trkpt><trkpt lat="45.786028" lon="10.0152922"><ele>467.0</ele><time>2026-04-18T14:52:03.815Z</time></trkpt><trkpt lat="45.786072" lon="10.0153871"><ele>469.50000000000006</ele><time>2026-04-18T14:52:04.814Z</time></trkpt><trkpt lat="45.7861205" lon="10.0154711"><ele>472.0</ele><time>2026-04-18T14:52:06.814Z</time></trkpt><trkpt lat="45.7861887" lon="10.0155418"><ele>473.83333333333337</ele><time>2026-04-18T14:52:08.813Z</time></trkpt><trkpt lat="45.7862618" lon="10.015612"><ele>475.6666666666667</ele><time>2026-04-18T14:52:10.813Z</time></trkpt><trkpt lat="45.7863104" lon="10.0157149"><ele>477.5</ele><time>2026-04-18T14:52:12.814Z</time></trkpt><trkpt lat="45.7862654" lon="10.0158082"><ele>479.33333333333337</ele><time>2026-04-18T14:52:13.813Z</time></trkpt><trkpt lat="45.7862347" lon="10.0159779"><ele>481.1666666666667</ele><time>2026-04-18T14:52:15.813Z</time></trkpt><trkpt lat="45.7862371" lon="10.0160744"><ele>483.0</ele><time>2026-04-18T14:52:16.814Z</time></trkpt><trkpt lat="45.7862336" lon="10.0161795"><ele>485.0</ele><time>2026-04-18T14:52:17.814Z</time></trkpt><trkpt lat="45.7862327" lon="10.0162757"><ele>487.0</ele><time>2026-04-18T14:52:18.814Z</time></trkpt><trkpt lat="45.7862165" lon="10.0163809"><ele>489.0</ele><time>2026-04-18T14:52:19.813Z</time></trkpt><trkpt lat="45.7862165" lon="10.0165456"><ele>491.0</ele><time>2026-04-18T14:52:21.815Z</time></trkpt><trkpt lat="45.7862375" lon="10.0166456"><ele>493.0</ele><time>2026-04-18T14:52:22.813Z</time></trkpt><trkpt lat="45.7862554" lon="10.0168038"><ele>495.0</ele><time>2026-04-18T14:52:24.814Z</time></trkpt><trkpt lat="45.7862714" lon="10.0169254"><ele>497.0</ele><time>2026-04-18T14:52:26.814Z</time></trkpt><trkpt lat="45.7863369" lon="10.0169932"><ele>499.0</ele><time>2026-04-18T14:52:28.813Z</time></trkpt><trkpt lat="45.7864226" lon="10.0170298"><ele>501.0</ele><time>2026-04-18T14:52:30.814Z</time></trkpt><trkpt lat="45.786524" lon="10.0169965"><ele>503.0</ele><time>2026-04-18T14:52:32.813Z</time></trkpt><trkpt lat="45.7866126" lon="10.0169581"><ele>505.0</ele><time>2026-04-18T14:52:34.814Z</time></trkpt><trkpt lat="45.7866782" lon="10.0169023"><ele>507.0</ele><time>2026-04-18T14:52:35.813Z</time></trkpt><trkpt lat="45.7867586" lon="10.0168558"><ele>507.0</ele><time>2026-04-18T14:52:36.813Z</time></trkpt><trkpt lat="45.7868211" lon="10.016835"><ele>507.0</ele><time>2026-04-18T14:52:37.813Z</time></trkpt><trkpt lat="45.7868824" lon="10.0167961"><ele>507.0</ele><time>2026-04-18T14:52:38.814Z</time></trkpt><trkpt lat="45.7869472" lon="10.0167819"><ele>507.0</ele><time>2026-04-18T14:52:39.813Z</time></trkpt><trkpt lat="45.7870575" lon="10.0168043"><ele>507.0</ele><time>2026-04-18T14:52:41.813Z</time></trkpt><trkpt lat="45.7871588" lon="10.0168748"><ele>507.0</ele><time>2026-04-18T14:52:43.813Z</time></trkpt><trkpt lat="45.7872575" lon="10.0169896"><ele>509.6</ele><time>2026-04-18T14:52:45.813Z</time></trkpt><trkpt lat="45.7873309" lon="10.0171255"><ele>512.2</ele><time>2026-04-18T14:52:47.813Z</time></trkpt><trkpt lat="45.7874048" lon="10.0172209"><ele>514.8</ele><time>2026-04-18T14:52:49.814Z</time></trkpt><trkpt lat="45.7874863" lon="10.0172754"><ele>517.4</ele><time>2026-04-18T14:52:51.814Z</time></trkpt><trkpt lat="45.7875235" lon="10.0173973"><ele>520.0</ele><time>2026-04-18T14:52:53.813Z</time></trkpt><trkpt lat="45.7875453" lon="10.0174977"><ele>521.6666666666667</ele><time>2026-04-18T14:52:54.814Z</time></trkpt><trkpt lat="45.7875624" lon="10.0176139"><ele>523.3333333333334</ele><time>2026-04-18T14:52:55.813Z</time></trkpt><trkpt lat="45.7875863" lon="10.0177091"><ele>525.0</ele><time>2026-04-18T14:52:56.813Z</time></trkpt><trkpt lat="45.7876235" lon="10.0178343"><ele>526.6666666666666</ele><time>2026-04-18T14:52:57.813Z</time></trkpt><trkpt lat="45.7876463" lon="10.0179641"><ele>528.3333333333333</ele><time>2026-04-18T14:52:58.814Z</time></trkpt><trkpt lat="45.7876676" lon="10.0180783"><ele>530.0</ele><time>2026-04-18T14:52:59.813Z</time></trkpt><trkpt lat="45.7877038" lon="10.018191"><ele>531.0</ele><time>2026-04-18T14:53:00.814Z</time></trkpt><trkpt lat="45.7877448" lon="10.0182987"><ele>532.0</ele><time>2026-04-18T14:53:01.814Z</time></trkpt><trkpt lat="45.7877884" lon="10.0184182"><ele>533.0</ele><time>2026-04-18T14:53:02.814Z</time></trkpt><trkpt lat="45.7878465" lon="10.018527"><ele>534.0</ele><time>2026-04-18T14:53:03.814Z</time></trkpt><trkpt lat="45.787928" lon="10.018654"><ele>535.0</ele><time>2026-04-18T14:53:04.813Z</time></trkpt><trkpt lat="45.7879947" lon="10.0187677"><ele>536.75</ele><time>2026-04-18T14:53:05.814Z</time></trkpt><trkpt lat="45.7880732" lon="10.0189166"><ele>538.5</ele><time>2026-04-18T14:53:06.813Z</time></trkpt><trkpt lat="45.7881446" lon="10.0190557"><ele>540.25</ele><time>2026-04-18T14:53:07.814Z</time></trkpt><trkpt lat="45.7882265" lon="10.0191585"><ele>542.0</ele><time>2026-04-18T14:53:08.814Z</time></trkpt><trkpt lat="45.7882981" lon="10.0192457"><ele>543.6</ele><time>2026-04-18T14:53:09.813Z</time></trkpt><trkpt lat="45.7883796" lon="10.0193676"><ele>545.2</ele><time>2026-04-18T14:53:10.814Z</time></trkpt><trkpt lat="45.7884545" lon="10.0194474"><ele>546.8</ele><time>2026-04-18T14:53:11.814Z</time></trkpt><trkpt lat="45.7885087" lon="10.0195695"><ele>548.4</ele><time>2026-04-18T14:53:12.814Z</time></trkpt><trkpt lat="45.7885657" lon="10.0196886"><ele>550.0</ele><time>2026-04-18T14:53:13.814Z</time></trkpt><trkpt lat="45.7886004" lon="10.0198331"><ele>553.0</ele><time>2026-04-18T14:53:14.813Z</time></trkpt><trkpt lat="45.7886503" lon="10.0199915"><ele>556.0</ele><time>2026-04-18T14:53:15.813Z</time></trkpt><trkpt lat="45.7887141" lon="10.0201206"><ele>559.0</ele><time>2026-04-18T14:53:16.814Z</time></trkpt><trkpt lat="45.7887606" lon="10.0202305"><ele>562.0</ele><time>2026-04-18T14:53:17.813Z</time></trkpt><trkpt lat="45.7887971" lon="10.0203211"><ele>565.0</ele><time>2026-04-18T14:53:18.813Z</time></trkpt><trkpt lat="45.7888301" lon="10.0203987"><ele>565.0</ele><time>2026-04-18T14:53:19.814Z</time></trkpt><trkpt lat="45.7889016" lon="10.0205126"><ele>565.0</ele><time>2026-04-18T14:53:21.814Z</time></trkpt><trkpt lat="45.788952" lon="10.0206177"><ele>565.0</ele><time>2026-04-18T14:53:22.813Z</time></trkpt><trkpt lat="45.7889965" lon="10.0207069"><ele>565.0</ele><time>2026-04-18T14:53:23.813Z</time></trkpt><trkpt lat="45.7890666" lon="10.0208178"><ele>565.0</ele><time>2026-04-18T14:53:24.813Z</time></trkpt><trkpt lat="45.7891406" lon="10.0209272"><ele>566.25</ele><time>2026-04-18T14:53:25.813Z</time></trkpt><trkpt lat="45.7892276" lon="10.0210899"><ele>567.5</ele><time>2026-04-18T14:53:26.813Z</time></trkpt><trkpt lat="45.7893223" lon="10.0212476"><ele>568.75</ele><time>2026-04-18T14:53:27.814Z</time></trkpt><trkpt lat="45.7894018" lon="10.0213513"><ele>570.0</ele><time>2026-04-18T14:53:28.814Z</time></trkpt><trkpt lat="45.7894833" lon="10.0214398"><ele>572.0</ele><time>2026-04-18T14:53:29.814Z</time></trkpt><trkpt lat="45.7895578" lon="10.0215145"><ele>574.0</ele><time>2026-04-18T14:53:30.813Z</time></trkpt><trkpt lat="45.7896553" lon="10.0216421"><ele>576.0</ele><time>2026-04-18T14:53:32.813Z</time></trkpt><trkpt lat="45.789734" lon="10.0217974"><ele>578.0</ele><time>2026-04-18T14:53:34.813Z</time></trkpt><trkpt lat="45.7897699" lon="10.0218805"><ele>580.0</ele><time>2026-04-18T14:53:35.814Z</time></trkpt><trkpt lat="45.7898077" lon="10.0219608"><ele>580.0</ele><time>2026-04-18T14:53:36.815Z</time></trkpt><trkpt lat="45.7898464" lon="10.022047"><ele>580.0</ele><time>2026-04-18T14:53:37.813Z</time></trkpt><trkpt lat="45.7898733" lon="10.0221417"><ele>580.0</ele><time>2026-04-18T14:53:38.813Z</time></trkpt><trkpt lat="45.7898903" lon="10.0222338"><ele>580.0</ele><time>2026-04-18T14:53:39.813Z</time></trkpt><trkpt lat="45.7899222" lon="10.0223205"><ele>580.0</ele><time>2026-04-18T14:53:40.813Z</time></trkpt><trkpt lat="45.7899614" lon="10.0224719"><ele>580.0</ele><time>2026-04-18T14:53:42.813Z</time></trkpt><trkpt lat="45.7899791" lon="10.0225595"><ele>580.0</ele><time>2026-04-18T14:53:43.813Z</time></trkpt><trkpt lat="45.7899698" lon="10.0227387"><ele>580.0</ele><time>2026-04-18T14:53:45.813Z</time></trkpt><trkpt lat="45.7899535" lon="10.0228412"><ele>580.0</ele><time>2026-04-18T14:53:46.814Z</time></trkpt><trkpt lat="45.7899378" lon="10.0229578"><ele>580.0</ele><time>2026-04-18T14:53:47.813Z</time></trkpt><trkpt lat="45.789924" lon="10.0230705"><ele>580.0</ele><time>2026-04-18T14:53:48.814Z</time></trkpt><trkpt lat="45.7899093" lon="10.0231967"><ele>579.8333333333334</ele><time>2026-04-18T14:53:49.814Z</time></trkpt><trkpt lat="45.7898887" lon="10.0233157"><ele>579.6666666666667</ele><time>2026-04-18T14:53:50.815Z</time></trkpt><trkpt lat="45.7898746" lon="10.0234374"><ele>579.5</ele><time>2026-04-18T14:53:51.815Z</time></trkpt><trkpt lat="45.7898581" lon="10.0235562"><ele>579.3333333333334</ele><time>2026-04-18T14:53:52.814Z</time></trkpt><trkpt lat="45.7898482" lon="10.0236822"><ele>579.1666666666666</ele><time>2026-04-18T14:53:53.813Z</time></trkpt><trkpt lat="45.7898471" lon="10.0238116"><ele>579.0</ele><time>2026-04-18T14:53:54.814Z</time></trkpt><trkpt lat="45.7898379" lon="10.0239596"><ele>579.0</ele><time>2026-04-18T14:53:55.814Z</time></trkpt><trkpt lat="45.7898271" lon="10.0240761"><ele>579.0</ele><time>2026-04-18T14:53:56.814Z</time></trkpt><trkpt lat="45.7898271" lon="10.024171"><ele>579.0</ele><time>2026-04-18T14:53:57.813Z</time></trkpt><trkpt lat="45.789794" lon="10.024338"><ele>579.0</ele><time>2026-04-18T14:53:59.814Z</time></trkpt><trkpt lat="45.7897728" lon="10.024508"><ele>579.0</ele><time>2026-04-18T14:54:01.814Z</time></trkpt><trkpt lat="45.7897516" lon="10.0246709"><ele>579.0</ele><time>2026-04-18T14:54:03.814Z</time></trkpt><trkpt lat="45.789717" lon="10.0248206"><ele>579.0</ele><time>2026-04-18T14:54:05.813Z</time></trkpt><trkpt lat="45.7897119" lon="10.0249664"><ele>579.0</ele><time>2026-04-18T14:54:07.814Z</time></trkpt><trkpt lat="45.7897491" lon="10.025095"><ele>579.0</ele><time>2026-04-18T14:54:09.812Z</time></trkpt><trkpt lat="45.7897882" lon="10.0251694"><ele>579.0</ele><time>2026-04-18T14:54:10.814Z</time></trkpt><trkpt lat="45.7898043" lon="10.025263"><ele>579.0</ele><time>2026-04-18T14:54:11.814Z</time></trkpt><trkpt lat="45.7897955" lon="10.0254107"><ele>579.1666666666666</ele><time>2026-04-18T14:54:13.814Z</time></trkpt><trkpt lat="45.7897382" lon="10.0255125"><ele>579.3333333333334</ele><time>2026-04-18T14:54:15.814Z</time></trkpt><trkpt lat="45.7897226" lon="10.0256322"><ele>579.5</ele><time>2026-04-18T14:54:17.813Z</time></trkpt><trkpt lat="45.7897038" lon="10.0257599"><ele>579.6666666666667</ele><time>2026-04-18T14:54:19.815Z</time></trkpt><trkpt lat="45.7896918" lon="10.0258674"><ele>579.8333333333334</ele><time>2026-04-18T14:54:21.814Z</time></trkpt><trkpt lat="45.7896518" lon="10.0259553"><ele>580.0</ele><time>2026-04-18T14:54:25.813Z</time></trkpt><trkpt lat="45.7897018" lon="10.0260841"><ele>580.3333333333334</ele><time>2026-04-18T14:54:28.814Z</time></trkpt><trkpt lat="45.7897917" lon="10.0262068"><ele>580.6666666666667</ele><time>2026-04-18T14:54:30.814Z</time></trkpt><trkpt lat="45.7898481" lon="10.0262848"><ele>581.0</ele><time>2026-04-18T14:54:31.813Z</time></trkpt><trkpt lat="45.7898979" lon="10.0263616"><ele>581.3333333333334</ele><time>2026-04-18T14:54:32.813Z</time></trkpt><trkpt lat="45.7899524" lon="10.0264474"><ele>581.6666666666666</ele><time>2026-04-18T14:54:33.813Z</time></trkpt><trkpt lat="45.7899892" lon="10.0265657"><ele>582.0</ele><time>2026-04-18T14:54:34.814Z</time></trkpt><trkpt lat="45.7900254" lon="10.0267007"><ele>582.0</ele><time>2026-04-18T14:54:35.813Z</time></trkpt><trkpt lat="45.7900612" lon="10.0268413"><ele>582.0</ele><time>2026-04-18T14:54:36.813Z</time></trkpt><trkpt lat="45.7900935" lon="10.0269747"><ele>582.0</ele><time>2026-04-18T14:54:37.815Z</time></trkpt><trkpt lat="45.790122" lon="10.0271174"><ele>582.0</ele><time>2026-04-18T14:54:38.814Z</time></trkpt><trkpt lat="45.7901239" lon="10.027273"><ele>582.0</ele><time>2026-04-18T14:54:39.813Z</time></trkpt><trkpt lat="45.790131" lon="10.0274333"><ele>582.4</ele><time>2026-04-18T14:54:40.814Z</time></trkpt><trkpt lat="45.7901444" lon="10.0275907"><ele>582.8000000000001</ele><time>2026-04-18T14:54:41.815Z</time></trkpt><trkpt lat="45.7901624" lon="10.0277512"><ele>583.2</ele><time>2026-04-18T14:54:42.813Z</time></trkpt><trkpt lat="45.790173" lon="10.0278924"><ele>583.6</ele><time>2026-04-18T14:54:43.813Z</time></trkpt><trkpt lat="45.790178" lon="10.0280407"><ele>584.0</ele><time>2026-04-18T14:54:44.813Z</time></trkpt><trkpt lat="45.7902212" lon="10.0281707"><ele>586.2</ele><time>2026-04-18T14:54:45.814Z</time></trkpt><trkpt lat="45.7902687" lon="10.0282944"><ele>588.4</ele><time>2026-04-18T14:54:46.814Z</time></trkpt><trkpt lat="45.7903539" lon="10.0283964"><ele>590.6</ele><time>2026-04-18T14:54:47.813Z</time></trkpt><trkpt lat="45.7904428" lon="10.0284683"><ele>592.8</ele><time>2026-04-18T14:54:48.814Z</time></trkpt><trkpt lat="45.7905407" lon="10.0285143"><ele>595.0</ele><time>2026-04-18T14:54:49.814Z</time></trkpt><trkpt lat="45.7906348" lon="10.028568"><ele>595.0</ele><time>2026-04-18T14:54:50.814Z</time></trkpt><trkpt lat="45.7907193" lon="10.0286331"><ele>595.0</ele><time>2026-04-18T14:54:51.813Z</time></trkpt><trkpt lat="45.7907934" lon="10.0287242"><ele>595.0</ele><time>2026-04-18T14:54:52.814Z</time></trkpt><trkpt lat="45.7908567" lon="10.0288427"><ele>595.0</ele><time>2026-04-18T14:54:53.814Z</time></trkpt><trkpt lat="45.7909202" lon="10.0289541"><ele>595.0</ele><time>2026-04-18T14:54:54.812Z</time></trkpt><trkpt lat="45.7909781" lon="10.0290564"><ele>596.2857142857143</ele><time>2026-04-18T14:54:55.813Z</time></trkpt><trkpt lat="45.7910293" lon="10.029143"><ele>597.5714285714286</ele><time>2026-04-18T14:54:56.814Z</time></trkpt><trkpt lat="45.7910971" lon="10.0291762"><ele>598.8571428571429</ele><time>2026-04-18T14:54:57.813Z</time></trkpt><trkpt lat="45.791167" lon="10.0291747"><ele>600.1428571428571</ele><time>2026-04-18T14:54:58.813Z</time></trkpt><trkpt lat="45.7912343" lon="10.0291829"><ele>601.4285714285714</ele><time>2026-04-18T14:54:59.813Z</time></trkpt><trkpt lat="45.7912993" lon="10.0292241"><ele>602.7142857142858</ele><time>2026-04-18T14:55:00.813Z</time></trkpt><trkpt lat="45.791361" lon="10.0293031"><ele>604.0</ele><time>2026-04-18T14:55:01.814Z</time></trkpt><trkpt lat="45.7914136" lon="10.0293778"><ele>604.0</ele><time>2026-04-18T14:55:02.813Z</time></trkpt><trkpt lat="45.7914762" lon="10.029444"><ele>604.0</ele><time>2026-04-18T14:55:03.814Z</time></trkpt><trkpt lat="45.7915552" lon="10.0295054"><ele>604.0</ele><time>2026-04-18T14:55:04.813Z</time></trkpt><trkpt lat="45.791635" lon="10.0295534"><ele>604.0</ele><time>2026-04-18T14:55:05.812Z</time></trkpt><trkpt lat="45.7917195" lon="10.0295795"><ele>604.0</ele><time>2026-04-18T14:55:06.814Z</time></trkpt><trkpt lat="45.7918054" lon="10.0295901"><ele>604.0</ele><time>2026-04-18T14:55:07.812Z</time></trkpt><trkpt lat="45.7918849" lon="10.0295913"><ele>604.5</ele><time>2026-04-18T14:55:08.812Z</time></trkpt><trkpt lat="45.7919715" lon="10.0295704"><ele>605.0</ele><time>2026-04-18T14:55:09.813Z</time></trkpt><trkpt lat="45.7920574" lon="10.0295383"><ele>605.5</ele><time>2026-04-18T14:55:10.814Z</time></trkpt><trkpt lat="45.7921348" lon="10.0295191"><ele>606.0</ele><time>2026-04-18T14:55:11.814Z</time></trkpt><trkpt lat="45.7922082" lon="10.0294745"><ele>606.5</ele><time>2026-04-18T14:55:12.813Z</time></trkpt><trkpt lat="45.7922801" lon="10.0294262"><ele>607.0</ele><time>2026-04-18T14:55:13.814Z</time></trkpt><trkpt lat="45.7923547" lon="10.0293773"><ele>607.0</ele><time>2026-04-18T14:55:14.813Z</time></trkpt><trkpt lat="45.7924329" lon="10.0293239"><ele>607.0</ele><time>2026-04-18T14:55:15.814Z</time></trkpt><trkpt lat="45.7925009" lon="10.0292904"><ele>607.0</ele><time>2026-04-18T14:55:16.815Z</time></trkpt><trkpt lat="45.7925732" lon="10.0292372"><ele>607.0</ele><time>2026-04-18T14:55:17.813Z</time></trkpt><trkpt lat="45.7926285" lon="10.0291867"><ele>607.0</ele><time>2026-04-18T14:55:18.814Z</time></trkpt><trkpt lat="45.7926884" lon="10.029106"><ele>607.0</ele><time>2026-04-18T14:55:19.813Z</time></trkpt><trkpt lat="45.7927452" lon="10.0290311"><ele>609.0</ele><time>2026-04-18T14:55:20.813Z</time></trkpt><trkpt lat="45.792796" lon="10.0289603"><ele>611.0</ele><time>2026-04-18T14:55:21.814Z</time></trkpt><trkpt lat="45.7928381" lon="10.0288701"><ele>613.0</ele><time>2026-04-18T14:55:22.813Z</time></trkpt><trkpt lat="45.7928749" lon="10.0287489"><ele>615.0</ele><time>2026-04-18T14:55:23.812Z</time></trkpt><trkpt lat="45.7929069" lon="10.0286525"><ele>617.0</ele><time>2026-04-18T14:55:24.815Z</time></trkpt><trkpt lat="45.7929571" lon="10.0285582"><ele>619.0</ele><time>2026-04-18T14:55:25.814Z</time></trkpt><trkpt lat="45.7930189" lon="10.0284708"><ele>619.0</ele><time>2026-04-18T14:55:26.813Z</time></trkpt><trkpt lat="45.7930628" lon="10.0283699"><ele>619.0</ele><time>2026-04-18T14:55:27.814Z</time></trkpt><trkpt lat="45.7931091" lon="10.0282456"><ele>619.0</ele><time>2026-04-18T14:55:28.812Z</time></trkpt><trkpt lat="45.793134" lon="10.0281405"><ele>619.0</ele><time>2026-04-18T14:55:29.813Z</time></trkpt><trkpt lat="45.7932462" lon="10.0280422"><ele>619.0</ele><time>2026-04-18T14:55:31.814Z</time></trkpt><trkpt lat="45.7933059" lon="10.0280111"><ele>621.0</ele><time>2026-04-18T14:55:32.813Z</time></trkpt><trkpt lat="45.7933875" lon="10.0279289"><ele>623.0</ele><time>2026-04-18T14:55:34.813Z</time></trkpt><trkpt lat="45.7934708" lon="10.0278575"><ele>625.0</ele><time>2026-04-18T14:55:36.814Z</time></trkpt><trkpt lat="45.7935806" lon="10.0278432"><ele>627.0</ele><time>2026-04-18T14:55:38.815Z</time></trkpt><trkpt lat="45.793713" lon="10.027828"><ele>629.0</ele><time>2026-04-18T14:55:42.732Z</time></trkpt><trkpt lat="45.7938289" lon="10.0278189"><ele>632.8</ele><time>2026-04-18T14:55:43.814Z</time></trkpt><trkpt lat="45.7939489" lon="10.0278154"><ele>636.5999999999999</ele><time>2026-04-18T14:55:45.813Z</time></trkpt><trkpt lat="45.7940235" lon="10.0278212"><ele>640.4</ele><time>2026-04-18T14:55:46.813Z</time></trkpt><trkpt lat="45.794124" lon="10.0279315"><ele>644.1999999999999</ele><time>2026-04-18T14:55:48.813Z</time></trkpt><trkpt lat="45.7942134" lon="10.0280307"><ele>648.0</ele><time>2026-04-18T14:55:50.813Z</time></trkpt><trkpt lat="45.7942647" lon="10.0280843"><ele>648.0</ele><time>2026-04-18T14:55:51.813Z</time></trkpt><trkpt lat="45.7943279" lon="10.0281614"><ele>648.0</ele><time>2026-04-18T14:55:52.813Z</time></trkpt><trkpt lat="45.7944014" lon="10.0282578"><ele>648.0</ele><time>2026-04-18T14:55:54.813Z</time></trkpt><trkpt lat="45.7944675" lon="10.0283598"><ele>648.0</ele><time>2026-04-18T14:55:56.813Z</time></trkpt><trkpt lat="45.7945358" lon="10.0284467"><ele>648.0</ele><time>2026-04-18T14:55:58.813Z</time></trkpt><trkpt lat="45.7946095" lon="10.0285465"><ele>651.8</ele><time>2026-04-18T14:56:00.813Z</time></trkpt><trkpt lat="45.79468" lon="10.0286503"><ele>655.5999999999999</ele><time>2026-04-18T14:56:02.813Z</time></trkpt><trkpt lat="45.7947586" lon="10.0287555"><ele>659.4000000000001</ele><time>2026-04-18T14:56:04.814Z</time></trkpt><trkpt lat="45.7948364" lon="10.0288722"><ele>663.2</ele><time>2026-04-18T14:56:06.814Z</time></trkpt><trkpt lat="45.7948869" lon="10.0289274"><ele>667.0</ele><time>2026-04-18T14:56:07.814Z</time></trkpt><trkpt lat="45.7949775" lon="10.0290284"><ele>667.0</ele><time>2026-04-18T14:56:09.815Z</time></trkpt><trkpt lat="45.7950107" lon="10.0291118"><ele>667.0</ele><time>2026-04-18T14:56:11.813Z</time></trkpt><trkpt lat="45.7950099" lon="10.0292831"><ele>667.0</ele><time>2026-04-18T14:56:13.815Z</time></trkpt><trkpt lat="45.7950329" lon="10.0293869"><ele>667.0</ele><time>2026-04-18T14:56:14.813Z</time></trkpt><trkpt lat="45.7950831" lon="10.0295406"><ele>667.0</ele><time>2026-04-18T14:56:16.812Z</time></trkpt><trkpt lat="45.7951665" lon="10.0296438"><ele>665.8</ele><time>2026-04-18T14:56:18.814Z</time></trkpt><trkpt lat="45.7952461" lon="10.029733"><ele>664.6</ele><time>2026-04-18T14:56:20.814Z</time></trkpt><trkpt lat="45.7953409" lon="10.0298157"><ele>663.4</ele><time>2026-04-18T14:56:22.814Z</time></trkpt><trkpt lat="45.7954143" lon="10.0298414"><ele>662.1999999999999</ele><time>2026-04-18T14:56:24.815Z</time></trkpt><trkpt lat="45.7954769" lon="10.0298684"><ele>661.0</ele><time>2026-04-18T14:56:26.814Z</time></trkpt><trkpt lat="45.7955615" lon="10.0300346"><ele>661.0</ele><time>2026-04-18T14:56:28.813Z</time></trkpt><trkpt lat="45.795623" lon="10.0301368"><ele>661.0</ele><time>2026-04-18T14:56:29.814Z</time></trkpt><trkpt lat="45.7956577" lon="10.030244"><ele>661.0</ele><time>2026-04-18T14:56:30.812Z</time></trkpt><trkpt lat="45.7957031" lon="10.0303781"><ele>661.0</ele><time>2026-04-18T14:56:31.815Z</time></trkpt><trkpt lat="45.7957254" lon="10.0304967"><ele>661.0</ele><time>2026-04-18T14:56:32.813Z</time></trkpt><trkpt lat="45.7957573" lon="10.0305915"><ele>661.0</ele><time>2026-04-18T14:56:33.812Z</time></trkpt><trkpt lat="45.7957926" lon="10.0307334"><ele>659.5</ele><time>2026-04-18T14:56:35.814Z</time></trkpt><trkpt lat="45.7957587" lon="10.0308267"><ele>658.0</ele><time>2026-04-18T14:56:36.814Z</time></trkpt><trkpt lat="45.7957418" lon="10.0309281"><ele>656.5</ele><time>2026-04-18T14:56:37.815Z</time></trkpt><trkpt lat="45.7957117" lon="10.0310379"><ele>655.0</ele><time>2026-04-18T14:56:38.814Z</time></trkpt><trkpt lat="45.7956591" lon="10.0311734"><ele>653.5</ele><time>2026-04-18T14:56:39.813Z</time></trkpt><trkpt lat="45.7956315" lon="10.0313003"><ele>652.0</ele><time>2026-04-18T14:56:40.812Z</time></trkpt><trkpt lat="45.7956033" lon="10.0313953"><ele>652.0</ele><time>2026-04-18T14:56:41.813Z</time></trkpt><trkpt lat="45.7955718" lon="10.0315501"><ele>652.0</ele><time>2026-04-18T14:56:43.813Z</time></trkpt><trkpt lat="45.7956311" lon="10.0317057"><ele>652.0</ele><time>2026-04-18T14:56:45.815Z</time></trkpt><trkpt lat="45.7956423" lon="10.0318964"><ele>652.0</ele><time>2026-04-18T14:56:47.814Z</time></trkpt><trkpt lat="45.7956179" lon="10.0319903"><ele>652.0</ele><time>2026-04-18T14:56:48.814Z</time></trkpt><trkpt lat="45.7955765" lon="10.0320964"><ele>653.4000000000001</ele><time>2026-04-18T14:56:50.813Z</time></trkpt><trkpt lat="45.7956485" lon="10.0320225"><ele>654.8000000000001</ele><time>2026-04-18T14:56:53.812Z</time></trkpt><trkpt lat="45.7957311" lon="10.0319046"><ele>656.2</ele><time>2026-04-18T14:56:54.814Z</time></trkpt><trkpt lat="45.7958238" lon="10.0318103"><ele>657.6</ele><time>2026-04-18T14:56:55.813Z</time></trkpt><trkpt lat="45.7959151" lon="10.0317303"><ele>659.0</ele><time>2026-04-18T14:56:56.812Z</time></trkpt><trkpt lat="45.7959872" lon="10.0316723"><ele>661.1666666666666</ele><time>2026-04-18T14:56:57.814Z</time></trkpt><trkpt lat="45.7961041" lon="10.0316604"><ele>663.3333333333333</ele><time>2026-04-18T14:56:59.814Z</time></trkpt><trkpt lat="45.7961885" lon="10.031716"><ele>665.5</ele><time>2026-04-18T14:57:00.812Z</time></trkpt><trkpt lat="45.7962819" lon="10.0317445"><ele>667.6666666666666</ele><time>2026-04-18T14:57:01.814Z</time></trkpt><trkpt lat="45.7963584" lon="10.0317542"><ele>669.8333333333334</ele><time>2026-04-18T14:57:02.813Z</time></trkpt><trkpt lat="45.7964214" lon="10.03174"><ele>672.0</ele><time>2026-04-18T14:57:03.813Z</time></trkpt><trkpt lat="45.7965574" lon="10.0316478"><ele>671.4000000000001</ele><time>2026-04-18T14:57:05.814Z</time></trkpt><trkpt lat="45.7966439" lon="10.0315555"><ele>670.8000000000001</ele><time>2026-04-18T14:57:06.814Z</time></trkpt><trkpt lat="45.7967298" lon="10.0314792"><ele>670.2</ele><time>2026-04-18T14:57:07.814Z</time></trkpt><trkpt lat="45.796802" lon="10.0313986"><ele>669.6</ele><time>2026-04-18T14:57:08.813Z</time></trkpt><trkpt lat="45.7968785" lon="10.0313233"><ele>669.0</ele><time>2026-04-18T14:57:09.813Z</time></trkpt><trkpt lat="45.7969652" lon="10.0312484"><ele>670.2</ele><time>2026-04-18T14:57:10.814Z</time></trkpt><trkpt lat="45.7970495" lon="10.0311889"><ele>671.4000000000001</ele><time>2026-04-18T14:57:11.814Z</time></trkpt><trkpt lat="45.7971237" lon="10.0311295"><ele>672.6</ele><time>2026-04-18T14:57:12.813Z</time></trkpt><trkpt lat="45.7972196" lon="10.031009"><ele>673.8</ele><time>2026-04-18T14:57:14.813Z</time></trkpt><trkpt lat="45.797277" lon="10.0309509"><ele>675.0</ele><time>2026-04-18T14:57:17.813Z</time></trkpt><trkpt lat="45.7973261" lon="10.0310399"><ele>675.0</ele><time>2026-04-18T14:57:19.813Z</time></trkpt><trkpt lat="45.7973964" lon="10.0312059"><ele>675.0</ele><time>2026-04-18T14:57:21.814Z</time></trkpt><trkpt lat="45.7975069" lon="10.0312929"><ele>675.0</ele><time>2026-04-18T14:57:23.815Z</time></trkpt><trkpt lat="45.7976083" lon="10.0313363"><ele>675.0</ele><time>2026-04-18T14:57:24.812Z</time></trkpt><trkpt lat="45.7976977" lon="10.0313593"><ele>674.0</ele><time>2026-04-18T14:57:25.814Z</time></trkpt><trkpt lat="45.797762" lon="10.0313783"><ele>673.0</ele><time>2026-04-18T14:57:26.812Z</time></trkpt><trkpt lat="45.7978358" lon="10.0314639"><ele>672.0</ele><time>2026-04-18T14:57:28.813Z</time></trkpt><trkpt lat="45.7978315" lon="10.0316159"><ele>671.0</ele><time>2026-04-18T14:57:30.813Z</time></trkpt><trkpt lat="45.797784" lon="10.0317366"><ele>670.0</ele><time>2026-04-18T14:57:31.813Z</time></trkpt><trkpt lat="45.7977418" lon="10.0318421"><ele>669.0</ele><time>2026-04-18T14:57:32.813Z</time></trkpt><trkpt lat="45.7977194" lon="10.0319429"><ele>673.4000000000001</ele><time>2026-04-18T14:57:33.814Z</time></trkpt><trkpt lat="45.797702" lon="10.0320603"><ele>677.8</ele><time>2026-04-18T14:57:34.814Z</time></trkpt><trkpt lat="45.7976868" lon="10.0321538"><ele>682.2</ele><time>2026-04-18T14:57:35.814Z</time></trkpt><trkpt lat="45.7976401" lon="10.0322604"><ele>686.5999999999999</ele><time>2026-04-18T14:57:36.813Z</time></trkpt><trkpt lat="45.7975757" lon="10.0323925"><ele>691.0</ele><time>2026-04-18T14:57:37.815Z</time></trkpt><trkpt lat="45.7975248" lon="10.0325143"><ele>693.0</ele><time>2026-04-18T14:57:38.813Z</time></trkpt><trkpt lat="45.7974667" lon="10.0326253"><ele>695.0</ele><time>2026-04-18T14:57:39.814Z</time></trkpt><trkpt lat="45.7974303" lon="10.0327177"><ele>697.0</ele><time>2026-04-18T14:57:40.814Z</time></trkpt><trkpt lat="45.7973979" lon="10.032825"><ele>699.0</ele><time>2026-04-18T14:57:41.813Z</time></trkpt><trkpt lat="45.7973776" lon="10.0329427"><ele>701.0</ele><time>2026-04-18T14:57:42.813Z</time></trkpt><trkpt lat="45.7973631" lon="10.0330729"><ele>703.0</ele><time>2026-04-18T14:57:43.813Z</time></trkpt><trkpt lat="45.7973308" lon="10.0331869"><ele>705.8</ele><time>2026-04-18T14:57:44.814Z</time></trkpt><trkpt lat="45.7973304" lon="10.0333228"><ele>708.5999999999999</ele><time>2026-04-18T14:57:45.814Z</time></trkpt><trkpt lat="45.7973233" lon="10.0334388"><ele>711.4000000000001</ele><time>2026-04-18T14:57:46.814Z</time></trkpt><trkpt lat="45.7973283" lon="10.0336125"><ele>714.2</ele><time>2026-04-18T14:57:48.814Z</time></trkpt><trkpt lat="45.7973214" lon="10.0337543"><ele>717.0</ele><time>2026-04-18T14:57:50.814Z</time></trkpt><trkpt lat="45.7972798" lon="10.0338378"><ele>717.0</ele><time>2026-04-18T14:57:51.815Z</time></trkpt><trkpt lat="45.7972401" lon="10.0339134"><ele>717.0</ele><time>2026-04-18T14:57:52.814Z</time></trkpt><trkpt lat="45.7971794" lon="10.0339753"><ele>717.0</ele><time>2026-04-18T14:57:53.813Z</time></trkpt><trkpt lat="45.7971259" lon="10.0340547"><ele>717.0</ele><time>2026-04-18T14:57:54.814Z</time></trkpt><trkpt lat="45.7970821" lon="10.0341459"><ele>717.0</ele><time>2026-04-18T14:57:55.814Z</time></trkpt><trkpt lat="45.7970364" lon="10.0342869"><ele>717.0</ele><time>2026-04-18T14:57:56.814Z</time></trkpt><trkpt lat="45.7969867" lon="10.0344127"><ele>716.1666666666666</ele><time>2026-04-18T14:57:57.812Z</time></trkpt><trkpt lat="45.7969344" lon="10.0345464"><ele>715.3333333333334</ele><time>2026-04-18T14:57:58.813Z</time></trkpt><trkpt lat="45.7968938" lon="10.0346708"><ele>714.5</ele><time>2026-04-18T14:57:59.813Z</time></trkpt><trkpt lat="45.7968481" lon="10.0347626"><ele>713.6666666666667</ele><time>2026-04-18T14:58:00.812Z</time></trkpt><trkpt lat="45.7967968" lon="10.0348585"><ele>712.8333333333334</ele><time>2026-04-18T14:58:01.814Z</time></trkpt><trkpt lat="45.7967581" lon="10.0349441"><ele>712.0</ele><time>2026-04-18T14:58:02.813Z</time></trkpt><trkpt lat="45.7967157" lon="10.0350668"><ele>712.0</ele><time>2026-04-18T14:58:04.814Z</time></trkpt><trkpt lat="45.7966993" lon="10.0352019"><ele>712.0</ele><time>2026-04-18T14:58:06.814Z</time></trkpt><trkpt lat="45.7967188" lon="10.035372"><ele>712.0</ele><time>2026-04-18T14:58:08.815Z</time></trkpt><trkpt lat="45.7967561" lon="10.0355403"><ele>712.0</ele><time>2026-04-18T14:58:10.814Z</time></trkpt><trkpt lat="45.7967609" lon="10.0356331"><ele>712.0</ele><time>2026-04-18T14:58:11.813Z</time></trkpt><trkpt lat="45.7967648" lon="10.0357264"><ele>712.8</ele><time>2026-04-18T14:58:12.813Z</time></trkpt><trkpt lat="45.7967406" lon="10.0359071"><ele>713.6</ele><time>2026-04-18T14:58:14.814Z</time></trkpt><trkpt lat="45.7967279" lon="10.0360137"><ele>714.4</ele><time>2026-04-18T14:58:15.814Z</time></trkpt><trkpt lat="45.7967223" lon="10.0361065"><ele>715.1999999999999</ele><time>2026-04-18T14:58:16.814Z</time></trkpt><trkpt lat="45.7967381" lon="10.0362051"><ele>716.0</ele><time>2026-04-18T14:58:17.812Z</time></trkpt><trkpt lat="45.7968001" lon="10.0363519"><ele>722.1999999999999</ele><time>2026-04-18T14:58:19.813Z</time></trkpt><trkpt lat="45.7968586" lon="10.0364308"><ele>728.4</ele><time>2026-04-18T14:58:20.813Z</time></trkpt><trkpt lat="45.7969571" lon="10.0365171"><ele>734.6</ele><time>2026-04-18T14:58:21.813Z</time></trkpt><trkpt lat="45.7970541" lon="10.0365474"><ele>740.8</ele><time>2026-04-18T14:58:22.813Z</time></trkpt><trkpt lat="45.7971247" lon="10.0366052"><ele>747.0</ele><time>2026-04-18T14:58:23.812Z</time></trkpt><trkpt lat="45.7971905" lon="10.0366627"><ele>747.0</ele><time>2026-04-18T14:58:24.813Z</time></trkpt><trkpt lat="45.7972447" lon="10.0367218"><ele>747.0</ele><time>2026-04-18T14:58:25.813Z</time></trkpt><trkpt lat="45.7972821" lon="10.0368711"><ele>747.0</ele><time>2026-04-18T14:58:27.814Z</time></trkpt><trkpt lat="45.7973728" lon="10.0369933"><ele>747.0</ele><time>2026-04-18T14:58:29.813Z</time></trkpt><trkpt lat="45.7974669" lon="10.0370852"><ele>747.0</ele><time>2026-04-18T14:58:31.812Z</time></trkpt><trkpt lat="45.7975476" lon="10.0369909"><ele>747.0</ele><time>2026-04-18T14:58:33.812Z</time></trkpt><trkpt lat="45.7976379" lon="10.0369724"><ele>747.0</ele><time>2026-04-18T14:58:35.813Z</time></trkpt><trkpt lat="45.7977082" lon="10.0370483"><ele>747.0</ele><time>2026-04-18T14:58:37.813Z</time></trkpt><trkpt lat="45.7977967" lon="10.037038"><ele>747.0</ele><time>2026-04-18T14:58:40.814Z</time></trkpt><trkpt lat="45.7978818" lon="10.0369872"><ele>747.0</ele><time>2026-04-18T14:58:42.812Z</time></trkpt><trkpt lat="45.797948" lon="10.0369421"><ele>747.0</ele><time>2026-04-18T14:58:43.814Z</time></trkpt><trkpt lat="45.7980135" lon="10.0368163"><ele>749.5</ele><time>2026-04-18T14:58:45.813Z</time></trkpt><trkpt lat="45.798011" lon="10.0367246"><ele>752.0</ele><time>2026-04-18T14:58:46.812Z</time></trkpt><trkpt lat="45.7980108" lon="10.0366324"><ele>754.5</ele><time>2026-04-18T14:58:47.814Z</time></trkpt><trkpt lat="45.7980188" lon="10.0365181"><ele>757.0</ele><time>2026-04-18T14:58:48.814Z</time></trkpt><trkpt lat="45.7980257" lon="10.0363452"><ele>759.5</ele><time>2026-04-18T14:58:50.813Z</time></trkpt><trkpt lat="45.7980051" lon="10.0362408"><ele>762.0</ele><time>2026-04-18T14:58:51.813Z</time></trkpt><trkpt lat="45.7979906" lon="10.0361186"><ele>765.4000000000001</ele><time>2026-04-18T14:58:52.813Z</time></trkpt><trkpt lat="45.7979865" lon="10.0360193"><ele>768.8000000000001</ele><time>2026-04-18T14:58:54.813Z</time></trkpt><trkpt lat="45.7980247" lon="10.0358726"><ele>772.2</ele><time>2026-04-18T14:58:56.815Z</time></trkpt><trkpt lat="45.7980487" lon="10.03576"><ele>775.6</ele><time>2026-04-18T14:58:57.812Z</time></trkpt><trkpt lat="45.7980732" lon="10.0356305"><ele>779.0</ele><time>2026-04-18T14:58:58.814Z</time></trkpt><trkpt lat="45.7980971" lon="10.0354876"><ele>779.8000000000001</ele><time>2026-04-18T14:58:59.813Z</time></trkpt><trkpt lat="45.7981083" lon="10.0353861"><ele>780.6</ele><time>2026-04-18T14:59:00.814Z</time></trkpt><trkpt lat="45.7981251" lon="10.0352253"><ele>781.4</ele><time>2026-04-18T14:59:02.813Z</time></trkpt><trkpt lat="45.7981863" lon="10.035035"><ele>782.2</ele><time>2026-04-18T14:59:04.813Z</time></trkpt><trkpt lat="45.7982228" lon="10.0349382"><ele>783.0</ele><time>2026-04-18T14:59:05.813Z</time></trkpt><trkpt lat="45.7982528" lon="10.0348338"><ele>783.5999999999999</ele><time>2026-04-18T14:59:06.814Z</time></trkpt><trkpt lat="45.7983549" lon="10.0346982"><ele>784.1999999999999</ele><time>2026-04-18T14:59:08.813Z</time></trkpt><trkpt lat="45.798411" lon="10.0346443"><ele>784.8</ele><time>2026-04-18T14:59:09.812Z</time></trkpt><trkpt lat="45.7984888" lon="10.0345652"><ele>785.4</ele><time>2026-04-18T14:59:11.812Z</time></trkpt><trkpt lat="45.7985507" lon="10.0344989"><ele>786.0</ele><time>2026-04-18T14:59:14.812Z</time></trkpt><trkpt lat="45.798606" lon="10.0344215"><ele>786.0</ele><time>2026-04-18T14:59:16.814Z</time></trkpt><trkpt lat="45.7986954" lon="10.0343486"><ele>786.0</ele><time>2026-04-18T14:59:18.813Z</time></trkpt><trkpt lat="45.7987896" lon="10.0342865"><ele>786.0</ele><time>2026-04-18T14:59:20.812Z</time></trkpt><trkpt lat="45.7988951" lon="10.0342231"><ele>786.0</ele><time>2026-04-18T14:59:22.815Z</time></trkpt><trkpt lat="45.7989892" lon="10.034161"><ele>786.0</ele><time>2026-04-18T14:59:24.813Z</time></trkpt><trkpt lat="45.7990644" lon="10.0340984"><ele>783.1666666666666</ele><time>2026-04-18T14:59:26.814Z</time></trkpt><trkpt lat="45.7991335" lon="10.0340078"><ele>780.3333333333333</ele><time>2026-04-18T14:59:28.814Z</time></trkpt><trkpt lat="45.7992019" lon="10.0339338"><ele>777.5</ele><time>2026-04-18T14:59:31.812Z</time></trkpt><trkpt lat="45.7992288" lon="10.0338314"><ele>774.6666666666666</ele><time>2026-04-18T14:59:34.813Z</time></trkpt><trkpt lat="45.79927" lon="10.0337543"><ele>771.8333333333333</ele><time>2026-04-18T14:59:37.814Z</time></trkpt><trkpt lat="45.799256" lon="10.0336384"><ele>769.0</ele><time>2026-04-18T14:59:40.814Z</time></trkpt><trkpt lat="45.7992353" lon="10.0335385"><ele>769.0</ele><time>2026-04-18T14:59:43.812Z</time></trkpt><trkpt lat="45.7992365" lon="10.0334438"><ele>769.0</ele><time>2026-04-18T14:59:45.813Z</time></trkpt><trkpt lat="45.7992138" lon="10.033356"><ele>769.0</ele><time>2026-04-18T14:59:48.812Z</time></trkpt><trkpt lat="45.7991709" lon="10.0332603"><ele>769.0</ele><time>2026-04-18T14:59:52.813Z</time></trkpt><trkpt lat="45.7991427" lon="10.0331464"><ele>769.0</ele><time>2026-04-18T14:59:56.814Z</time></trkpt><trkpt lat="45.7991734" lon="10.0330527"><ele>769.0</ele><time>2026-04-18T15:00:04.813Z</time></trkpt><trkpt lat="45.7991763" lon="10.0329559"><ele>769.0</ele><time>2026-04-18T15:07:46.812Z</time></trkpt><trkpt lat="45.7991796" lon="10.0330595"><ele>768.9999999999999</ele><time>2026-04-18T15:08:51.811Z</time></trkpt><trkpt lat="45.7991578" lon="10.0331712"><ele>769.0</ele><time>2026-04-18T15:08:54.811Z</time></trkpt><trkpt lat="45.7991878" lon="10.0332766"><ele>769.0</ele><time>2026-04-18T15:08:58.812Z</time></trkpt><trkpt lat="45.7992102" lon="10.0333896"><ele>769.0</ele><time>2026-04-18T15:09:01.811Z</time></trkpt><trkpt lat="45.7992387" lon="10.0334907"><ele>768.9999999999999</ele><time>2026-04-18T15:09:04.812Z</time></trkpt><trkpt lat="45.7992486" lon="10.0335885"><ele>769.0</ele><time>2026-04-18T15:09:07.811Z</time></trkpt><trkpt lat="45.7992696" lon="10.0336782"><ele>769.0</ele><time>2026-04-18T15:09:10.813Z</time></trkpt><trkpt lat="45.799224" lon="10.0337889"><ele>769.0</ele><time>2026-04-18T15:09:12.812Z</time></trkpt><trkpt lat="45.799187" lon="10.0339314"><ele>769.0</ele><time>2026-04-18T15:09:14.812Z</time></trkpt><trkpt lat="45.7991288" lon="10.0340243"><ele>769.0</ele><time>2026-04-18T15:09:16.812Z</time></trkpt><trkpt lat="45.799054" lon="10.0340875"><ele>769.0</ele><time>2026-04-18T15:09:18.814Z</time></trkpt><trkpt lat="45.7989868" lon="10.0341611"><ele>771.4285714285714</ele><time>2026-04-18T15:09:20.811Z</time></trkpt><trkpt lat="45.7989345" lon="10.034213"><ele>773.8571428571429</ele><time>2026-04-18T15:09:22.812Z</time></trkpt><trkpt lat="45.7988801" lon="10.0342663"><ele>776.2857142857143</ele><time>2026-04-18T15:09:24.812Z</time></trkpt><trkpt lat="45.7988054" lon="10.0342965"><ele>778.7142857142858</ele><time>2026-04-18T15:09:26.811Z</time></trkpt><trkpt lat="45.79873" lon="10.0343359"><ele>781.1428571428571</ele><time>2026-04-18T15:09:28.812Z</time></trkpt><trkpt lat="45.7986559" lon="10.0343854"><ele>783.5714285714287</ele><time>2026-04-18T15:09:30.812Z</time></trkpt><trkpt lat="45.7985999" lon="10.0344486"><ele>786.0</ele><time>2026-04-18T15:09:32.812Z</time></trkpt><trkpt lat="45.7985333" lon="10.0344959"><ele>783.6666666666666</ele><time>2026-04-18T15:09:34.811Z</time></trkpt><trkpt lat="45.7984748" lon="10.034538"><ele>781.3333333333333</ele><time>2026-04-18T15:09:36.813Z</time></trkpt><trkpt lat="45.7984176" lon="10.0345945"><ele>779.0</ele><time>2026-04-18T15:09:39.811Z</time></trkpt><trkpt lat="45.7983487" lon="10.0346743"><ele>776.6666666666666</ele><time>2026-04-18T15:09:42.812Z</time></trkpt><trkpt lat="45.7982745" lon="10.0347622"><ele>774.3333333333333</ele><time>2026-04-18T15:09:44.811Z</time></trkpt><trkpt lat="45.7982101" lon="10.0348704"><ele>772.0</ele><time>2026-04-18T15:09:46.813Z</time></trkpt><trkpt lat="45.7981597" lon="10.0349666"><ele>773.8333333333333</ele><time>2026-04-18T15:09:48.813Z</time></trkpt><trkpt lat="45.798117" lon="10.0350438"><ele>775.6666666666666</ele><time>2026-04-18T15:09:50.812Z</time></trkpt><trkpt lat="45.7980926" lon="10.0351649"><ele>777.5</ele><time>2026-04-18T15:09:52.812Z</time></trkpt><trkpt lat="45.7980713" lon="10.0352668"><ele>779.3333333333333</ele><time>2026-04-18T15:09:54.811Z</time></trkpt><trkpt lat="45.7980642" lon="10.0353694"><ele>781.1666666666666</ele><time>2026-04-18T15:09:56.811Z</time></trkpt><trkpt lat="45.7980646" lon="10.0355171"><ele>783.0</ele><time>2026-04-18T15:09:58.812Z</time></trkpt><trkpt lat="45.7980574" lon="10.035641"><ele>783.0</ele><time>2026-04-18T15:10:00.812Z</time></trkpt><trkpt lat="45.7980429" lon="10.0357844"><ele>783.0</ele><time>2026-04-18T15:10:02.812Z</time></trkpt><trkpt lat="45.7980157" lon="10.035903"><ele>783.0</ele><time>2026-04-18T15:10:04.812Z</time></trkpt><trkpt lat="45.7979866" lon="10.0359997"><ele>783.0</ele><time>2026-04-18T15:10:06.812Z</time></trkpt><trkpt lat="45.7979947" lon="10.0360904"><ele>783.0</ele><time>2026-04-18T15:10:08.813Z</time></trkpt><trkpt lat="45.7980283" lon="10.0361979"><ele>783.0</ele><time>2026-04-18T15:10:10.812Z</time></trkpt><trkpt lat="45.7980382" lon="10.0363125"><ele>782.3333333333334</ele><time>2026-04-18T15:10:12.812Z</time></trkpt><trkpt lat="45.798025" lon="10.0364571"><ele>781.6666666666667</ele><time>2026-04-18T15:10:14.812Z</time></trkpt><trkpt lat="45.7980102" lon="10.0366029"><ele>781.0</ele><time>2026-04-18T15:10:16.811Z</time></trkpt><trkpt lat="45.7980227" lon="10.0367083"><ele>780.3333333333334</ele><time>2026-04-18T15:10:18.812Z</time></trkpt><trkpt lat="45.7980089" lon="10.0368157"><ele>779.6666666666667</ele><time>2026-04-18T15:10:20.812Z</time></trkpt><trkpt lat="45.7979465" lon="10.0368924"><ele>779.0</ele><time>2026-04-18T15:10:22.813Z</time></trkpt><trkpt lat="45.7978885" lon="10.0369385"><ele>776.1666666666667</ele><time>2026-04-18T15:10:24.811Z</time></trkpt><trkpt lat="45.7978298" lon="10.0370049"><ele>773.3333333333334</ele><time>2026-04-18T15:10:26.813Z</time></trkpt><trkpt lat="45.7977707" lon="10.0370654"><ele>770.5</ele><time>2026-04-18T15:10:28.811Z</time></trkpt><trkpt lat="45.7976998" lon="10.0370444"><ele>767.6666666666667</ele><time>2026-04-18T15:10:31.812Z</time></trkpt><trkpt lat="45.7976332" lon="10.0369682"><ele>764.8333333333334</ele><time>2026-04-18T15:10:34.812Z</time></trkpt><trkpt lat="45.7975491" lon="10.0369974"><ele>762.0</ele><time>2026-04-18T15:10:37.813Z</time></trkpt><trkpt lat="45.7974694" lon="10.0369988"><ele>759.5</ele><time>2026-04-18T15:10:40.812Z</time></trkpt><trkpt lat="45.797404" lon="10.0369738"><ele>757.0</ele><time>2026-04-18T15:10:42.812Z</time></trkpt><trkpt lat="45.7973411" lon="10.0369312"><ele>754.5</ele><time>2026-04-18T15:10:44.812Z</time></trkpt><trkpt lat="45.7972892" lon="10.0368397"><ele>752.0</ele><time>2026-04-18T15:10:47.812Z</time></trkpt><trkpt lat="45.7972677" lon="10.036744"><ele>749.5</ele><time>2026-04-18T15:10:49.811Z</time></trkpt><trkpt lat="45.7971957" lon="10.0367512"><ele>747.0</ele><time>2026-04-18T15:10:53.813Z</time></trkpt><trkpt lat="45.7972298" lon="10.0369203"><ele>747.0</ele><time>2026-04-18T15:10:55.812Z</time></trkpt><trkpt lat="45.7972374" lon="10.0370191"><ele>747.0</ele><time>2026-04-18T15:10:56.811Z</time></trkpt><trkpt lat="45.7972391" lon="10.0371245"><ele>747.0</ele><time>2026-04-18T15:10:57.812Z</time></trkpt><trkpt lat="45.7972723" lon="10.0373098"><ele>747.0</ele><time>2026-04-18T15:10:59.812Z</time></trkpt><trkpt lat="45.7972938" lon="10.0373968"><ele>747.0</ele><time>2026-04-18T15:11:00.812Z</time></trkpt><trkpt lat="45.7973725" lon="10.0375139"><ele>745.2</ele><time>2026-04-18T15:11:02.813Z</time></trkpt><trkpt lat="45.7974245" lon="10.0375667"><ele>743.4000000000001</ele><time>2026-04-18T15:11:03.813Z</time></trkpt><trkpt lat="45.7975332" lon="10.0376225"><ele>741.5999999999999</ele><time>2026-04-18T15:11:05.811Z</time></trkpt><trkpt lat="45.7976476" lon="10.0376918"><ele>739.8</ele><time>2026-04-18T15:11:07.812Z</time></trkpt><trkpt lat="45.7977043" lon="10.0377311"><ele>738.0</ele><time>2026-04-18T15:11:08.813Z</time></trkpt><trkpt lat="45.7977946" lon="10.037831"><ele>738.0</ele><time>2026-04-18T15:11:10.813Z</time></trkpt><trkpt lat="45.7978418" lon="10.0380022"><ele>738.0</ele><time>2026-04-18T15:11:12.813Z</time></trkpt><trkpt lat="45.7978909" lon="10.0380736"><ele>738.0</ele><time>2026-04-18T15:11:13.813Z</time></trkpt><trkpt lat="45.7980327" lon="10.0381724"><ele>738.0</ele><time>2026-04-18T15:11:15.812Z</time></trkpt><trkpt lat="45.7981305" lon="10.0381918"><ele>738.0</ele><time>2026-04-18T15:11:16.812Z</time></trkpt><trkpt lat="45.7982381" lon="10.0382207"><ele>738.0</ele><time>2026-04-18T15:11:17.812Z</time></trkpt><trkpt lat="45.7983369" lon="10.038236"><ele>738.0</ele><time>2026-04-18T15:11:18.813Z</time></trkpt><trkpt lat="45.7984257" lon="10.0382462"><ele>738.0</ele><time>2026-04-18T15:11:19.813Z</time></trkpt><trkpt lat="45.7984942" lon="10.0382549"><ele>738.0</ele><time>2026-04-18T15:11:20.812Z</time></trkpt><trkpt lat="45.7985599" lon="10.038268"><ele>738.0</ele><time>2026-04-18T15:11:21.812Z</time></trkpt><trkpt lat="45.798623" lon="10.0382962"><ele>735.0</ele><time>2026-04-18T15:11:22.811Z</time></trkpt><trkpt lat="45.7986881" lon="10.0383023"><ele>732.0</ele><time>2026-04-18T15:11:23.812Z</time></trkpt><trkpt lat="45.7987564" lon="10.0382866"><ele>729.0</ele><time>2026-04-18T15:11:24.812Z</time></trkpt><trkpt lat="45.7988393" lon="10.0382553"><ele>726.0</ele><time>2026-04-18T15:11:25.812Z</time></trkpt><trkpt lat="45.7989188" lon="10.0382216"><ele>723.0</ele><time>2026-04-18T15:11:26.812Z</time></trkpt><trkpt lat="45.7989774" lon="10.0381663"><ele>720.0</ele><time>2026-04-18T15:11:27.812Z</time></trkpt><trkpt lat="45.7990618" lon="10.0380329"><ele>720.0</ele><time>2026-04-18T15:11:29.812Z</time></trkpt><trkpt lat="45.7991168" lon="10.0378856"><ele>720.0</ele><time>2026-04-18T15:11:31.813Z</time></trkpt><trkpt lat="45.7991561" lon="10.0377472"><ele>720.0</ele><time>2026-04-18T15:11:33.813Z</time></trkpt><trkpt lat="45.7992369" lon="10.0378089"><ele>720.0</ele><time>2026-04-18T15:11:36.811Z</time></trkpt><trkpt lat="45.7992311" lon="10.0379108"><ele>720.0</ele><time>2026-04-18T15:11:37.812Z</time></trkpt><trkpt lat="45.7992263" lon="10.0380055"><ele>720.0</ele><time>2026-04-18T15:11:38.812Z</time></trkpt><trkpt lat="45.7992473" lon="10.0381129"><ele>720.0</ele><time>2026-04-18T15:11:39.813Z</time></trkpt><trkpt lat="45.799267" lon="10.0382851"><ele>720.0</ele><time>2026-04-18T15:11:41.811Z</time></trkpt><trkpt lat="45.7992701" lon="10.0384199"><ele>720.0</ele><time>2026-04-18T15:11:43.812Z</time></trkpt><trkpt lat="45.7992585" lon="10.038553"><ele>720.0</ele><time>2026-04-18T15:11:45.812Z</time></trkpt><trkpt lat="45.7992142" lon="10.0386921"><ele>717.2</ele><time>2026-04-18T15:11:47.813Z</time></trkpt><trkpt lat="45.7991297" lon="10.0388315"><ele>714.4</ele><time>2026-04-18T15:11:49.813Z</time></trkpt><trkpt lat="45.799089" lon="10.0389051"><ele>711.5999999999999</ele><time>2026-04-18T15:11:50.811Z</time></trkpt><trkpt lat="45.7990088" lon="10.03903"><ele>708.8</ele><time>2026-04-18T15:11:52.812Z</time></trkpt><trkpt lat="45.7989362" lon="10.0390745"><ele>706.0</ele><time>2026-04-18T15:11:54.814Z</time></trkpt><trkpt lat="45.7988135" lon="10.0391177"><ele>704.3333333333334</ele><time>2026-04-18T15:11:56.812Z</time></trkpt><trkpt lat="45.7987443" lon="10.0391633"><ele>702.6666666666667</ele><time>2026-04-18T15:11:57.812Z</time></trkpt><trkpt lat="45.7986744" lon="10.0392187"><ele>701.0</ele><time>2026-04-18T15:11:58.812Z</time></trkpt><trkpt lat="45.798603" lon="10.0392892"><ele>699.3333333333334</ele><time>2026-04-18T15:11:59.813Z</time></trkpt><trkpt lat="45.7985443" lon="10.0393787"><ele>697.6666666666666</ele><time>2026-04-18T15:12:00.812Z</time></trkpt><trkpt lat="45.7984891" lon="10.0394643"><ele>696.0</ele><time>2026-04-18T15:12:01.812Z</time></trkpt><trkpt lat="45.798443" lon="10.0395671"><ele>696.0</ele><time>2026-04-18T15:12:02.812Z</time></trkpt><trkpt lat="45.7984048" lon="10.0396602"><ele>696.0</ele><time>2026-04-18T15:12:03.811Z</time></trkpt><trkpt lat="45.7983553" lon="10.0397678"><ele>696.0</ele><time>2026-04-18T15:12:04.812Z</time></trkpt><trkpt lat="45.7983054" lon="10.0398369"><ele>696.0</ele><time>2026-04-18T15:12:05.811Z</time></trkpt><trkpt lat="45.7982338" lon="10.0399874"><ele>696.0</ele><time>2026-04-18T15:12:07.811Z</time></trkpt><trkpt lat="45.7981551" lon="10.0401078"><ele>691.8</ele><time>2026-04-18T15:12:09.812Z</time></trkpt><trkpt lat="45.7981227" lon="10.0401882"><ele>687.5999999999999</ele><time>2026-04-18T15:12:10.811Z</time></trkpt><trkpt lat="45.7980763" lon="10.0402555"><ele>683.4</ele><time>2026-04-18T15:12:11.812Z</time></trkpt><trkpt lat="45.7980196" lon="10.0403045"><ele>679.2</ele><time>2026-04-18T15:12:12.812Z</time></trkpt><trkpt lat="45.7979032" lon="10.0403524"><ele>675.0</ele><time>2026-04-18T15:12:14.811Z</time></trkpt><trkpt lat="45.7977637" lon="10.0403483"><ele>675.0</ele><time>2026-04-18T15:12:16.813Z</time></trkpt><trkpt lat="45.7976815" lon="10.0403219"><ele>675.0</ele><time>2026-04-18T15:12:17.812Z</time></trkpt><trkpt lat="45.79761" lon="10.0402993"><ele>675.0</ele><time>2026-04-18T15:12:18.811Z</time></trkpt><trkpt lat="45.7975569" lon="10.0402441"><ele>675.0</ele><time>2026-04-18T15:12:19.812Z</time></trkpt><trkpt lat="45.7974698" lon="10.0402046"><ele>675.0</ele><time>2026-04-18T15:12:20.813Z</time></trkpt><trkpt lat="45.797404" lon="10.0401705"><ele>675.0</ele><time>2026-04-18T15:12:21.812Z</time></trkpt><trkpt lat="45.7972973" lon="10.0401421"><ele>674.0</ele><time>2026-04-18T15:12:22.813Z</time></trkpt><trkpt lat="45.7972136" lon="10.0401352"><ele>673.0</ele><time>2026-04-18T15:12:23.812Z</time></trkpt><trkpt lat="45.79714" lon="10.0401182"><ele>672.0</ele><time>2026-04-18T15:12:24.812Z</time></trkpt><trkpt lat="45.7970973" lon="10.0400486"><ele>671.0</ele><time>2026-04-18T15:12:25.812Z</time></trkpt><trkpt lat="45.79704" lon="10.0399884"><ele>670.0</ele><time>2026-04-18T15:12:26.812Z</time></trkpt><trkpt lat="45.7969556" lon="10.03988"><ele>669.0</ele><time>2026-04-18T15:12:28.814Z</time></trkpt><trkpt lat="45.7968837" lon="10.0398093"><ele>666.0</ele><time>2026-04-18T15:12:30.812Z</time></trkpt><trkpt lat="45.7968157" lon="10.0397013"><ele>663.0</ele><time>2026-04-18T15:12:32.811Z</time></trkpt><trkpt lat="45.7967625" lon="10.039553"><ele>660.0</ele><time>2026-04-18T15:12:34.812Z</time></trkpt><trkpt lat="45.7966809" lon="10.0393807"><ele>657.0</ele><time>2026-04-18T15:12:36.812Z</time></trkpt><trkpt lat="45.7966285" lon="10.0392624"><ele>657.0</ele><time>2026-04-18T15:12:37.812Z</time></trkpt><trkpt lat="45.7965719" lon="10.0391699"><ele>657.0</ele><time>2026-04-18T15:12:38.811Z</time></trkpt><trkpt lat="45.7965321" lon="10.0390788"><ele>657.0</ele><time>2026-04-18T15:12:39.812Z</time></trkpt><trkpt lat="45.7964783" lon="10.0390072"><ele>657.0</ele><time>2026-04-18T15:12:40.811Z</time></trkpt><trkpt lat="45.7964102" lon="10.0389364"><ele>657.0</ele><time>2026-04-18T15:12:41.811Z</time></trkpt><trkpt lat="45.7963436" lon="10.038878"><ele>657.0</ele><time>2026-04-18T15:12:42.813Z</time></trkpt><trkpt lat="45.7962919" lon="10.0388153"><ele>654.1666666666666</ele><time>2026-04-18T15:12:43.811Z</time></trkpt><trkpt lat="45.7962447" lon="10.0387465"><ele>651.3333333333334</ele><time>2026-04-18T15:12:44.812Z</time></trkpt><trkpt lat="45.7962057" lon="10.0386702"><ele>648.5</ele><time>2026-04-18T15:12:45.813Z</time></trkpt><trkpt lat="45.7961049" lon="10.038558"><ele>645.6666666666667</ele><time>2026-04-18T15:12:47.812Z</time></trkpt><trkpt lat="45.7960082" lon="10.0384682"><ele>642.8333333333334</ele><time>2026-04-18T15:12:49.812Z</time></trkpt><trkpt lat="45.7959667" lon="10.0383848"><ele>640.0</ele><time>2026-04-18T15:12:50.812Z</time></trkpt><trkpt lat="45.7959168" lon="10.0383084"><ele>643.0</ele><time>2026-04-18T15:12:51.811Z</time></trkpt><trkpt lat="45.7958442" lon="10.0382036"><ele>646.0</ele><time>2026-04-18T15:12:52.812Z</time></trkpt><trkpt lat="45.7957927" lon="10.038098"><ele>649.0</ele><time>2026-04-18T15:12:53.811Z</time></trkpt><trkpt lat="45.7957101" lon="10.0379695"><ele>652.0</ele><time>2026-04-18T15:12:54.812Z</time></trkpt><trkpt lat="45.7956488" lon="10.0378742"><ele>655.0</ele><time>2026-04-18T15:12:55.813Z</time></trkpt><trkpt lat="45.7955885" lon="10.0377948"><ele>655.0</ele><time>2026-04-18T15:12:56.812Z</time></trkpt><trkpt lat="45.795544" lon="10.0377045"><ele>655.0</ele><time>2026-04-18T15:12:57.813Z</time></trkpt><trkpt lat="45.795483" lon="10.0375958"><ele>655.0</ele><time>2026-04-18T15:12:59.812Z</time></trkpt><trkpt lat="45.7954466" lon="10.0374997"><ele>655.0</ele><time>2026-04-18T15:13:01.812Z</time></trkpt><trkpt lat="45.7953755" lon="10.0374341"><ele>655.0</ele><time>2026-04-18T15:13:04.812Z</time></trkpt><trkpt lat="45.7952858" lon="10.0374326"><ele>655.0</ele><time>2026-04-18T15:13:07.811Z</time></trkpt><trkpt lat="45.7951898" lon="10.0374043"><ele>651.0</ele><time>2026-04-18T15:13:10.811Z</time></trkpt><trkpt lat="45.7951074" lon="10.0373787"><ele>647.0</ele><time>2026-04-18T15:13:12.813Z</time></trkpt><trkpt lat="45.7950275" lon="10.037364"><ele>643.0</ele><time>2026-04-18T15:13:14.812Z</time></trkpt><trkpt lat="45.7949471" lon="10.0373212"><ele>639.0</ele><time>2026-04-18T15:13:16.813Z</time></trkpt><trkpt lat="45.7948957" lon="10.0372491"><ele>635.0</ele><time>2026-04-18T15:13:18.812Z</time></trkpt><trkpt lat="45.7949202" lon="10.0371516"><ele>631.0</ele><time>2026-04-18T15:13:20.813Z</time></trkpt><trkpt lat="45.7949904" lon="10.0370818"><ele>631.0</ele><time>2026-04-18T15:13:22.812Z</time></trkpt><trkpt lat="45.7950563" lon="10.0370533"><ele>631.0</ele><time>2026-04-18T15:13:24.812Z</time></trkpt><trkpt lat="45.7951001" lon="10.0369381"><ele>631.0</ele><time>2026-04-18T15:13:27.812Z</time></trkpt><trkpt lat="45.7950742" lon="10.0368472"><ele>631.0</ele><time>2026-04-18T15:13:29.812Z</time></trkpt><trkpt lat="45.7950266" lon="10.0367639"><ele>631.0</ele><time>2026-04-18T15:13:31.811Z</time></trkpt><trkpt lat="45.7949775" lon="10.0366554"><ele>631.0</ele><time>2026-04-18T15:13:33.812Z</time></trkpt><trkpt lat="45.7949134" lon="10.036574"><ele>633.0</ele><time>2026-04-18T15:13:35.812Z</time></trkpt><trkpt lat="45.7948391" lon="10.0365037"><ele>635.0</ele><time>2026-04-18T15:13:37.813Z</time></trkpt><trkpt lat="45.7947704" lon="10.0364484"><ele>637.0</ele><time>2026-04-18T15:13:39.813Z</time></trkpt><trkpt lat="45.7946952" lon="10.036387"><ele>639.0</ele><time>2026-04-18T15:13:41.812Z</time></trkpt><trkpt lat="45.7946213" lon="10.0363591"><ele>641.0</ele><time>2026-04-18T15:13:43.811Z</time></trkpt><trkpt lat="45.794555" lon="10.0363116"><ele>643.0</ele><time>2026-04-18T15:13:45.812Z</time></trkpt><trkpt lat="45.7944873" lon="10.036173"><ele>643.0</ele><time>2026-04-18T15:13:47.812Z</time></trkpt><trkpt lat="45.7944001" lon="10.036035"><ele>643.0</ele><time>2026-04-18T15:13:49.812Z</time></trkpt><trkpt lat="45.7943614" lon="10.035958"><ele>643.0</ele><time>2026-04-18T15:13:50.811Z</time></trkpt><trkpt lat="45.7942927" lon="10.0358192"><ele>643.0</ele><time>2026-04-18T15:13:52.813Z</time></trkpt><trkpt lat="45.7942131" lon="10.0356886"><ele>643.0</ele><time>2026-04-18T15:13:54.811Z</time></trkpt><trkpt lat="45.7941747" lon="10.0356125"><ele>639.4</ele><time>2026-04-18T15:13:55.811Z</time></trkpt><trkpt lat="45.7940719" lon="10.0354852"><ele>635.8</ele><time>2026-04-18T15:13:57.812Z</time></trkpt><trkpt lat="45.7940256" lon="10.0354203"><ele>632.2</ele><time>2026-04-18T15:13:58.812Z</time></trkpt><trkpt lat="45.793946" lon="10.0353037"><ele>628.6</ele><time>2026-04-18T15:14:00.813Z</time></trkpt><trkpt lat="45.793876" lon="10.0351507"><ele>625.0</ele><time>2026-04-18T15:14:02.812Z</time></trkpt><trkpt lat="45.793789" lon="10.0350203"><ele>625.3333333333334</ele><time>2026-04-18T15:14:04.811Z</time></trkpt><trkpt lat="45.793694" lon="10.0349165"><ele>625.6666666666667</ele><time>2026-04-18T15:14:06.811Z</time></trkpt><trkpt lat="45.7936341" lon="10.0348676"><ele>626.0</ele><time>2026-04-18T15:14:07.812Z</time></trkpt><trkpt lat="45.7935763" lon="10.0347977"><ele>626.3333333333334</ele><time>2026-04-18T15:14:08.811Z</time></trkpt><trkpt lat="45.7935236" lon="10.0347311"><ele>626.6666666666666</ele><time>2026-04-18T15:14:09.812Z</time></trkpt><trkpt lat="45.7934655" lon="10.0346641"><ele>627.0</ele><time>2026-04-18T15:14:10.812Z</time></trkpt><trkpt lat="45.7933903" lon="10.034555"><ele>625.0</ele><time>2026-04-18T15:14:12.812Z</time></trkpt><trkpt lat="45.7933149" lon="10.0344059"><ele>623.0</ele><time>2026-04-18T15:14:14.812Z</time></trkpt><trkpt lat="45.7932228" lon="10.0343097"><ele>621.0</ele><time>2026-04-18T15:14:16.812Z</time></trkpt><trkpt lat="45.7931341" lon="10.0342343"><ele>619.0</ele><time>2026-04-18T15:14:18.813Z</time></trkpt><trkpt lat="45.793036" lon="10.0341937"><ele>617.0</ele><time>2026-04-18T15:14:20.813Z</time></trkpt><trkpt lat="45.7929516" lon="10.0341426"><ele>617.6</ele><time>2026-04-18T15:14:22.811Z</time></trkpt><trkpt lat="45.7928593" lon="10.0341371"><ele>618.2</ele><time>2026-04-18T15:14:24.812Z</time></trkpt><trkpt lat="45.7927334" lon="10.0341299"><ele>618.8</ele><time>2026-04-18T15:14:26.812Z</time></trkpt><trkpt lat="45.7926254" lon="10.0341409"><ele>619.4</ele><time>2026-04-18T15:14:28.811Z</time></trkpt><trkpt lat="45.7925481" lon="10.0341363"><ele>620.0</ele><time>2026-04-18T15:14:31.811Z</time></trkpt><trkpt lat="45.7924898" lon="10.0342104"><ele>618.5</ele><time>2026-04-18T15:14:34.811Z</time></trkpt><trkpt lat="45.792439" lon="10.034323"><ele>617.0</ele><time>2026-04-18T15:14:36.811Z</time></trkpt><trkpt lat="45.792421" lon="10.0344184"><ele>615.5</ele><time>2026-04-18T15:14:37.812Z</time></trkpt><trkpt lat="45.7923952" lon="10.0345577"><ele>614.0</ele><time>2026-04-18T15:14:39.812Z</time></trkpt><trkpt lat="45.7923912" lon="10.0346514"><ele>612.5</ele><time>2026-04-18T15:14:40.812Z</time></trkpt><trkpt lat="45.7923647" lon="10.0347714"><ele>611.0</ele><time>2026-04-18T15:14:42.814Z</time></trkpt><trkpt lat="45.7922876" lon="10.0347848"><ele>611.0</ele><time>2026-04-18T15:14:44.811Z</time></trkpt><trkpt lat="45.7921804" lon="10.0348123"><ele>611.0</ele><time>2026-04-18T15:14:46.811Z</time></trkpt><trkpt lat="45.7920604" lon="10.0348001"><ele>611.0</ele><time>2026-04-18T15:14:48.812Z</time></trkpt><trkpt lat="45.7919708" lon="10.0347873"><ele>611.0</ele><time>2026-04-18T15:14:49.812Z</time></trkpt><trkpt lat="45.7919091" lon="10.034758"><ele>611.0</ele><time>2026-04-18T15:14:50.812Z</time></trkpt><trkpt lat="45.7917971" lon="10.0346976"><ele>612.0</ele><time>2026-04-18T15:14:52.811Z</time></trkpt><trkpt lat="45.7917303" lon="10.0346868"><ele>613.0</ele><time>2026-04-18T15:14:55.813Z</time></trkpt><trkpt lat="45.7916518" lon="10.0346753"><ele>614.0</ele><time>2026-04-18T15:15:12.812Z</time></trkpt><trkpt lat="45.7915597" lon="10.0346364"><ele>615.0</ele><time>2026-04-18T15:15:14.811Z</time></trkpt><trkpt lat="45.791465" lon="10.034585"><ele>616.0</ele><time>2026-04-18T15:15:16.812Z</time></trkpt><trkpt lat="45.791365" lon="10.0345116"><ele>616.0</ele><time>2026-04-18T15:15:18.812Z</time></trkpt><trkpt lat="45.7912832" lon="10.0344528"><ele>616.0</ele><time>2026-04-18T15:15:20.811Z</time></trkpt><trkpt lat="45.7912237" lon="10.0344116"><ele>616.0</ele><time>2026-04-18T15:15:22.812Z</time></trkpt><trkpt lat="45.7911489" lon="10.0343862"><ele>616.0</ele><time>2026-04-18T15:15:25.812Z</time></trkpt><trkpt lat="45.7912086" lon="10.0343321"><ele>616.0</ele><time>2026-04-18T15:15:34.812Z</time></trkpt><trkpt lat="45.7913135" lon="10.0343132"><ele>616.0</ele><time>2026-04-18T15:15:36.812Z</time></trkpt><trkpt lat="45.7914152" lon="10.034274"><ele>616.0</ele><time>2026-04-18T15:15:38.812Z</time></trkpt><trkpt lat="45.7914934" lon="10.0342275"><ele>616.0</ele><time>2026-04-18T15:15:40.814Z</time></trkpt><trkpt lat="45.7915718" lon="10.0342121"><ele>616.0</ele><time>2026-04-18T15:25:00.812Z</time></trkpt><trkpt lat="45.7916277" lon="10.034277"><ele>616.0</ele><time>2026-04-18T15:25:02.812Z</time></trkpt><trkpt lat="45.7916766" lon="10.034401"><ele>616.0</ele><time>2026-04-18T15:25:05.811Z</time></trkpt><trkpt lat="45.7917155" lon="10.0344884"><ele>616.0</ele><time>2026-04-18T15:25:07.811Z</time></trkpt><trkpt lat="45.7917483" lon="10.0346057"><ele>616.0</ele><time>2026-04-18T15:25:10.812Z</time></trkpt><trkpt lat="45.7917952" lon="10.034696"><ele>616.0</ele><time>2026-04-18T15:25:13.812Z</time></trkpt><trkpt lat="45.7918708" lon="10.0347426"><ele>616.0</ele><time>2026-04-18T15:25:15.811Z</time></trkpt><trkpt lat="45.7919334" lon="10.034782"><ele>616.0</ele><time>2026-04-18T15:25:17.811Z</time></trkpt><trkpt lat="45.7920072" lon="10.0348177"><ele>616.0</ele><time>2026-04-18T15:25:19.811Z</time></trkpt><trkpt lat="45.7920792" lon="10.0348147"><ele>616.0</ele><time>2026-04-18T15:25:21.812Z</time></trkpt><trkpt lat="45.7921563" lon="10.0348014"><ele>615.1666666666667</ele><time>2026-04-18T15:25:24.812Z</time></trkpt><trkpt lat="45.7922282" lon="10.0347699"><ele>614.3333333333334</ele><time>2026-04-18T15:25:27.81Z</time></trkpt><trkpt lat="45.7923143" lon="10.0347747"><ele>613.5</ele><time>2026-04-18T15:25:30.811Z</time></trkpt><trkpt lat="45.7923688" lon="10.0347018"><ele>612.6666666666666</ele><time>2026-04-18T15:25:33.811Z</time></trkpt><trkpt lat="45.7923735" lon="10.0345943"><ele>611.8333333333333</ele><time>2026-04-18T15:25:36.811Z</time></trkpt><trkpt lat="45.7923823" lon="10.0344802"><ele>611.0</ele><time>2026-04-18T15:25:39.812Z</time></trkpt><trkpt lat="45.7924126" lon="10.034381"><ele>611.0</ele><time>2026-04-18T15:25:42.811Z</time></trkpt><trkpt lat="45.7924675" lon="10.034275"><ele>611.0</ele><time>2026-04-18T15:25:45.812Z</time></trkpt><trkpt lat="45.7925001" lon="10.0341952"><ele>611.0</ele><time>2026-04-18T15:26:01.813Z</time></trkpt><trkpt lat="45.7925763" lon="10.0342686"><ele>611.0</ele><time>2026-04-18T15:26:04.812Z</time></trkpt><trkpt lat="45.7926343" lon="10.0343864"><ele>611.0</ele><time>2026-04-18T15:26:06.811Z</time></trkpt><trkpt lat="45.7926902" lon="10.0344778"><ele>611.0</ele><time>2026-04-18T15:26:08.811Z</time></trkpt><trkpt lat="45.7927106" lon="10.0345735"><ele>612.0</ele><time>2026-04-18T15:26:09.812Z</time></trkpt><trkpt lat="45.792737" lon="10.034738"><ele>613.0</ele><time>2026-04-18T15:26:11.813Z</time></trkpt><trkpt lat="45.7927668" lon="10.0349003"><ele>614.0</ele><time>2026-04-18T15:26:13.812Z</time></trkpt><trkpt lat="45.7927853" lon="10.0350572"><ele>615.0</ele><time>2026-04-18T15:26:15.812Z</time></trkpt><trkpt lat="45.7928106" lon="10.0352104"><ele>615.0</ele><time>2026-04-18T15:26:17.812Z</time></trkpt><trkpt lat="45.7928442" lon="10.0352924"><ele>615.0</ele><time>2026-04-18T15:26:18.812Z</time></trkpt><trkpt lat="45.7929336" lon="10.0354175"><ele>615.0</ele><time>2026-04-18T15:26:20.811Z</time></trkpt><trkpt lat="45.7930267" lon="10.0355115"><ele>615.0</ele><time>2026-04-18T15:26:22.812Z</time></trkpt><trkpt lat="45.7930875" lon="10.0356611"><ele>615.0</ele><time>2026-04-18T15:26:24.811Z</time></trkpt><trkpt lat="45.7930997" lon="10.0357618"><ele>614.3333333333334</ele><time>2026-04-18T15:26:25.812Z</time></trkpt><trkpt lat="45.7931108" lon="10.0358534"><ele>613.6666666666666</ele><time>2026-04-18T15:26:26.811Z</time></trkpt><trkpt lat="45.7930942" lon="10.035953"><ele>613.0</ele><time>2026-04-18T15:26:27.811Z</time></trkpt><trkpt lat="45.7930868" lon="10.0360591"><ele>612.3333333333333</ele><time>2026-04-18T15:26:28.811Z</time></trkpt><trkpt lat="45.7930948" lon="10.0361867"><ele>611.6666666666666</ele><time>2026-04-18T15:26:29.811Z</time></trkpt><trkpt lat="45.7931238" lon="10.0363156"><ele>611.0</ele><time>2026-04-18T15:26:30.811Z</time></trkpt><trkpt lat="45.7931574" lon="10.0364406"><ele>611.0</ele><time>2026-04-18T15:26:31.812Z</time></trkpt><trkpt lat="45.7931955" lon="10.0365547"><ele>611.0</ele><time>2026-04-18T15:26:32.811Z</time></trkpt><trkpt lat="45.7932431" lon="10.0366588"><ele>611.0</ele><time>2026-04-18T15:26:33.811Z</time></trkpt><trkpt lat="45.7932775" lon="10.036758"><ele>611.0</ele><time>2026-04-18T15:26:34.812Z</time></trkpt><trkpt lat="45.7933169" lon="10.0368414"><ele>611.0</ele><time>2026-04-18T15:26:35.813Z</time></trkpt><trkpt lat="45.7933546" lon="10.036923"><ele>611.0</ele><time>2026-04-18T15:26:36.81Z</time></trkpt><trkpt lat="45.7933955" lon="10.0369996"><ele>611.2</ele><time>2026-04-18T15:26:37.811Z</time></trkpt><trkpt lat="45.7934768" lon="10.0371399"><ele>611.4000000000001</ele><time>2026-04-18T15:26:39.813Z</time></trkpt><trkpt lat="45.7935201" lon="10.0372106"><ele>611.6</ele><time>2026-04-18T15:26:40.811Z</time></trkpt><trkpt lat="45.793599" lon="10.0373612"><ele>611.8000000000001</ele><time>2026-04-18T15:26:42.811Z</time></trkpt><trkpt lat="45.7936344" lon="10.0374404"><ele>612.0</ele><time>2026-04-18T15:26:43.811Z</time></trkpt><trkpt lat="45.7936707" lon="10.0375236"><ele>612.0</ele><time>2026-04-18T15:26:44.812Z</time></trkpt><trkpt lat="45.7937094" lon="10.037609"><ele>612.0</ele><time>2026-04-18T15:26:45.812Z</time></trkpt><trkpt lat="45.7937473" lon="10.0377046"><ele>612.0</ele><time>2026-04-18T15:26:46.812Z</time></trkpt><trkpt lat="45.7937825" lon="10.0377942"><ele>612.0</ele><time>2026-04-18T15:26:47.812Z</time></trkpt><trkpt lat="45.7938258" lon="10.037895"><ele>612.0</ele><time>2026-04-18T15:26:48.81Z</time></trkpt><trkpt lat="45.7938682" lon="10.0380049"><ele>612.0</ele><time>2026-04-18T15:26:49.811Z</time></trkpt><trkpt lat="45.7939114" lon="10.0381209"><ele>612.0</ele><time>2026-04-18T15:26:50.811Z</time></trkpt><trkpt lat="45.7939515" lon="10.0382313"><ele>612.0</ele><time>2026-04-18T15:26:51.81Z</time></trkpt><trkpt lat="45.7939912" lon="10.0383484"><ele>612.0</ele><time>2026-04-18T15:26:52.812Z</time></trkpt><trkpt lat="45.7940241" lon="10.0384689"><ele>612.0</ele><time>2026-04-18T15:26:53.812Z</time></trkpt><trkpt lat="45.7940547" lon="10.0385852"><ele>612.0</ele><time>2026-04-18T15:26:54.811Z</time></trkpt><trkpt lat="45.7940891" lon="10.0387025"><ele>612.0</ele><time>2026-04-18T15:26:55.812Z</time></trkpt><trkpt lat="45.7941295" lon="10.0388093"><ele>611.8000000000001</ele><time>2026-04-18T15:26:56.812Z</time></trkpt><trkpt lat="45.7941811" lon="10.0389162"><ele>611.6</ele><time>2026-04-18T15:26:57.813Z</time></trkpt><trkpt lat="45.7942318" lon="10.0390255"><ele>611.4000000000001</ele><time>2026-04-18T15:26:58.811Z</time></trkpt><trkpt lat="45.7942875" lon="10.0391315"><ele>611.2</ele><time>2026-04-18T15:26:59.812Z</time></trkpt><trkpt lat="45.7943347" lon="10.0392413"><ele>611.0</ele><time>2026-04-18T15:27:00.812Z</time></trkpt><trkpt lat="45.794385" lon="10.0393582"><ele>611.0</ele><time>2026-04-18T15:27:01.812Z</time></trkpt><trkpt lat="45.7944269" lon="10.0394913"><ele>611.0</ele><time>2026-04-18T15:27:02.811Z</time></trkpt><trkpt lat="45.7944611" lon="10.0396216"><ele>611.0</ele><time>2026-04-18T15:27:03.81Z</time></trkpt><trkpt lat="45.7944963" lon="10.0397547"><ele>611.0</ele><time>2026-04-18T15:27:04.812Z</time></trkpt><trkpt lat="45.7945334" lon="10.0398839"><ele>611.0</ele><time>2026-04-18T15:27:05.813Z</time></trkpt><trkpt lat="45.7945721" lon="10.0400216"><ele>610.0</ele><time>2026-04-18T15:27:06.811Z</time></trkpt><trkpt lat="45.7946117" lon="10.0401583"><ele>609.0</ele><time>2026-04-18T15:27:07.813Z</time></trkpt><trkpt lat="45.7946499" lon="10.0402959"><ele>608.0</ele><time>2026-04-18T15:27:08.812Z</time></trkpt><trkpt lat="45.7946937" lon="10.0404368"><ele>607.0</ele><time>2026-04-18T15:27:09.811Z</time></trkpt><trkpt lat="45.7947529" lon="10.0405746"><ele>606.0</ele><time>2026-04-18T15:27:10.812Z</time></trkpt><trkpt lat="45.7948149" lon="10.0406938"><ele>604.4</ele><time>2026-04-18T15:27:11.813Z</time></trkpt><trkpt lat="45.7948693" lon="10.0408113"><ele>602.8</ele><time>2026-04-18T15:27:12.812Z</time></trkpt><trkpt lat="45.7949278" lon="10.0409276"><ele>601.1999999999999</ele><time>2026-04-18T15:27:13.811Z</time></trkpt><trkpt lat="45.7949872" lon="10.0410414"><ele>599.6</ele><time>2026-04-18T15:27:14.811Z</time></trkpt><trkpt lat="45.79505" lon="10.0411569"><ele>598.0</ele><time>2026-04-18T15:27:15.811Z</time></trkpt><trkpt lat="45.7951152" lon="10.0412667"><ele>598.4</ele><time>2026-04-18T15:27:16.811Z</time></trkpt><trkpt lat="45.7951841" lon="10.0413729"><ele>598.8</ele><time>2026-04-18T15:27:17.812Z</time></trkpt><trkpt lat="45.7952495" lon="10.0414799"><ele>599.2</ele><time>2026-04-18T15:27:18.812Z</time></trkpt><trkpt lat="45.7953235" lon="10.0415755"><ele>599.6</ele><time>2026-04-18T15:27:19.811Z</time></trkpt><trkpt lat="45.7953904" lon="10.0416789"><ele>600.0</ele><time>2026-04-18T15:27:20.812Z</time></trkpt><trkpt lat="45.7954524" lon="10.0417902"><ele>600.0</ele><time>2026-04-18T15:27:21.812Z</time></trkpt><trkpt lat="45.7955234" lon="10.0418924"><ele>600.0</ele><time>2026-04-18T15:27:22.812Z</time></trkpt><trkpt lat="45.7955873" lon="10.041999"><ele>600.0</ele><time>2026-04-18T15:27:23.812Z</time></trkpt><trkpt lat="45.7956544" lon="10.0421088"><ele>600.0</ele><time>2026-04-18T15:27:24.811Z</time></trkpt><trkpt lat="45.7957329" lon="10.0422026"><ele>600.0</ele><time>2026-04-18T15:27:25.812Z</time></trkpt><trkpt lat="45.7958153" lon="10.0423005"><ele>600.0</ele><time>2026-04-18T15:27:26.812Z</time></trkpt><trkpt lat="45.7958999" lon="10.0424019"><ele>600.0</ele><time>2026-04-18T15:27:27.812Z</time></trkpt><trkpt lat="45.7959715" lon="10.0425161"><ele>600.0</ele><time>2026-04-18T15:27:28.811Z</time></trkpt><trkpt lat="45.7960278" lon="10.0426419"><ele>600.0</ele><time>2026-04-18T15:27:29.812Z</time></trkpt><trkpt lat="45.7960754" lon="10.0427698"><ele>600.0</ele><time>2026-04-18T15:27:30.811Z</time></trkpt><trkpt lat="45.796124" lon="10.042895"><ele>600.4</ele><time>2026-04-18T15:27:31.812Z</time></trkpt><trkpt lat="45.7961825" lon="10.0430072"><ele>600.8</ele><time>2026-04-18T15:27:32.811Z</time></trkpt><trkpt lat="45.7962386" lon="10.0431192"><ele>601.2</ele><time>2026-04-18T15:27:33.81Z</time></trkpt><trkpt lat="45.7962903" lon="10.0432359"><ele>601.6</ele><time>2026-04-18T15:27:34.811Z</time></trkpt><trkpt lat="45.796336" lon="10.0433498"><ele>602.0</ele><time>2026-04-18T15:27:35.812Z</time></trkpt><trkpt lat="45.7963817" lon="10.043471"><ele>600.0</ele><time>2026-04-18T15:27:36.811Z</time></trkpt><trkpt lat="45.7964278" lon="10.0435983"><ele>598.0</ele><time>2026-04-18T15:27:37.811Z</time></trkpt><trkpt lat="45.7964712" lon="10.0437171"><ele>596.0</ele><time>2026-04-18T15:27:38.812Z</time></trkpt><trkpt lat="45.7965249" lon="10.043835"><ele>594.0</ele><time>2026-04-18T15:27:39.811Z</time></trkpt><trkpt lat="45.7965837" lon="10.0439431"><ele>592.0</ele><time>2026-04-18T15:27:40.811Z</time></trkpt><trkpt lat="45.7966422" lon="10.0440464"><ele>590.6666666666667</ele><time>2026-04-18T15:27:41.811Z</time></trkpt><trkpt lat="45.7966972" lon="10.0441318"><ele>589.3333333333334</ele><time>2026-04-18T15:27:42.811Z</time></trkpt><trkpt lat="45.7967467" lon="10.0442213"><ele>588.0</ele><time>2026-04-18T15:27:43.811Z</time></trkpt><trkpt lat="45.7967894" lon="10.0443083"><ele>586.6666666666666</ele><time>2026-04-18T15:27:44.811Z</time></trkpt><trkpt lat="45.7968348" lon="10.0443943"><ele>585.3333333333333</ele><time>2026-04-18T15:27:45.811Z</time></trkpt><trkpt lat="45.7968878" lon="10.0444671"><ele>584.0</ele><time>2026-04-18T15:27:46.811Z</time></trkpt><trkpt lat="45.7969525" lon="10.0445302"><ele>584.0</ele><time>2026-04-18T15:27:47.811Z</time></trkpt><trkpt lat="45.797026" lon="10.0445446"><ele>584.0</ele><time>2026-04-18T15:27:48.812Z</time></trkpt><trkpt lat="45.7971069" lon="10.0445407"><ele>584.0</ele><time>2026-04-18T15:27:49.812Z</time></trkpt><trkpt lat="45.7971864" lon="10.0445258"><ele>584.0</ele><time>2026-04-18T15:27:50.811Z</time></trkpt><trkpt lat="45.7972732" lon="10.0445248"><ele>584.0</ele><time>2026-04-18T15:27:51.81Z</time></trkpt><trkpt lat="45.7973593" lon="10.0445376"><ele>584.0</ele><time>2026-04-18T15:27:52.812Z</time></trkpt><trkpt lat="45.7974493" lon="10.0445683"><ele>584.0</ele><time>2026-04-18T15:27:53.811Z</time></trkpt><trkpt lat="45.7975351" lon="10.0446335"><ele>584.0</ele><time>2026-04-18T15:27:54.811Z</time></trkpt><trkpt lat="45.7976142" lon="10.0447135"><ele>584.0</ele><time>2026-04-18T15:27:55.811Z</time></trkpt><trkpt lat="45.7976964" lon="10.0447746"><ele>584.0</ele><time>2026-04-18T15:27:56.812Z</time></trkpt><trkpt lat="45.7977647" lon="10.0448375"><ele>584.0</ele><time>2026-04-18T15:27:57.811Z</time></trkpt><trkpt lat="45.7978223" lon="10.0449"><ele>584.0</ele><time>2026-04-18T15:27:58.812Z</time></trkpt><trkpt lat="45.7978776" lon="10.0449477"><ele>583.5</ele><time>2026-04-18T15:27:59.812Z</time></trkpt><trkpt lat="45.7979386" lon="10.0449809"><ele>583.0</ele><time>2026-04-18T15:28:00.811Z</time></trkpt><trkpt lat="45.7980536" lon="10.0449805"><ele>582.5</ele><time>2026-04-18T15:28:02.811Z</time></trkpt><trkpt lat="45.7981388" lon="10.0449194"><ele>582.0</ele><time>2026-04-18T15:28:04.811Z</time></trkpt><trkpt lat="45.7981984" lon="10.0448559"><ele>581.5</ele><time>2026-04-18T15:28:06.812Z</time></trkpt><trkpt lat="45.7982642" lon="10.0447588"><ele>581.0</ele><time>2026-04-18T15:28:08.813Z</time></trkpt><trkpt lat="45.7983363" lon="10.0446509"><ele>581.0</ele><time>2026-04-18T15:28:10.811Z</time></trkpt><trkpt lat="45.7984134" lon="10.0445534"><ele>581.0</ele><time>2026-04-18T15:28:12.811Z</time></trkpt><trkpt lat="45.798485" lon="10.0444865"><ele>581.0</ele><time>2026-04-18T15:28:14.811Z</time></trkpt><trkpt lat="45.7985625" lon="10.0444399"><ele>581.0</ele><time>2026-04-18T15:28:16.811Z</time></trkpt><trkpt lat="45.7986522" lon="10.044392"><ele>581.0</ele><time>2026-04-18T15:28:18.812Z</time></trkpt><trkpt lat="45.7987258" lon="10.0443341"><ele>578.1666666666666</ele><time>2026-04-18T15:28:20.811Z</time></trkpt><trkpt lat="45.7987954" lon="10.0442921"><ele>575.3333333333333</ele><time>2026-04-18T15:28:22.812Z</time></trkpt><trkpt lat="45.7988714" lon="10.0442744"><ele>572.5</ele><time>2026-04-18T15:28:24.812Z</time></trkpt><trkpt lat="45.7989577" lon="10.0442849"><ele>569.6666666666666</ele><time>2026-04-18T15:28:27.811Z</time></trkpt><trkpt lat="45.7989842" lon="10.0444203"><ele>566.8333333333334</ele><time>2026-04-18T15:28:29.812Z</time></trkpt><trkpt lat="45.7989781" lon="10.0445459"><ele>564.0</ele><time>2026-04-18T15:28:31.811Z</time></trkpt><trkpt lat="45.7989362" lon="10.0446525"><ele>564.0</ele><time>2026-04-18T15:28:33.811Z</time></trkpt><trkpt lat="45.7988717" lon="10.0447906"><ele>564.0</ele><time>2026-04-18T15:28:35.811Z</time></trkpt><trkpt lat="45.7989059" lon="10.0448773"><ele>564.0</ele><time>2026-04-18T15:28:37.811Z</time></trkpt><trkpt lat="45.7990076" lon="10.0448394"><ele>564.0</ele><time>2026-04-18T15:28:39.812Z</time></trkpt><trkpt lat="45.7990809" lon="10.044773"><ele>564.0</ele><time>2026-04-18T15:28:41.813Z</time></trkpt><trkpt lat="45.7991906" lon="10.0447278"><ele>564.0</ele><time>2026-04-18T15:28:44.811Z</time></trkpt><trkpt lat="45.7992764" lon="10.0446565"><ele>564.0</ele><time>2026-04-18T15:28:46.812Z</time></trkpt><trkpt lat="45.7993591" lon="10.044619"><ele>564.0</ele><time>2026-04-18T15:28:48.812Z</time></trkpt><trkpt lat="45.7994262" lon="10.0446439"><ele>564.0</ele><time>2026-04-18T15:28:50.811Z</time></trkpt><trkpt lat="45.7994601" lon="10.0447434"><ele>564.0</ele><time>2026-04-18T15:28:52.812Z</time></trkpt><trkpt lat="45.7994865" lon="10.0448778"><ele>564.0</ele><time>2026-04-18T15:28:54.811Z</time></trkpt><trkpt lat="45.7995152" lon="10.0450204"><ele>557.1666666666666</ele><time>2026-04-18T15:28:56.81Z</time></trkpt><trkpt lat="45.7995313" lon="10.0451168"><ele>550.3333333333334</ele><time>2026-04-18T15:28:58.811Z</time></trkpt><trkpt lat="45.7994895" lon="10.0452321"><ele>543.5</ele><time>2026-04-18T15:29:01.811Z</time></trkpt><trkpt lat="45.7994324" lon="10.0452881"><ele>536.6666666666667</ele><time>2026-04-18T15:29:07.81Z</time></trkpt><trkpt lat="45.7993992" lon="10.0453716"><ele>529.8333333333334</ele><time>2026-04-18T15:29:23.811Z</time></trkpt><trkpt lat="45.7993647" lon="10.0454818"><ele>523.0</ele><time>2026-04-18T15:29:26.812Z</time></trkpt><trkpt lat="45.7994045" lon="10.0455999"><ele>523.0</ele><time>2026-04-18T15:29:29.812Z</time></trkpt><trkpt lat="45.7994973" lon="10.0455784"><ele>523.0</ele><time>2026-04-18T15:29:31.812Z</time></trkpt><trkpt lat="45.7995756" lon="10.0455189"><ele>523.0</ele><time>2026-04-18T15:29:33.811Z</time></trkpt><trkpt lat="45.7996397" lon="10.0454874"><ele>523.0</ele><time>2026-04-18T15:29:35.812Z</time></trkpt><trkpt lat="45.7997227" lon="10.0453528"><ele>523.0</ele><time>2026-04-18T15:29:37.811Z</time></trkpt><trkpt lat="45.7997686" lon="10.045278"><ele>523.0</ele><time>2026-04-18T15:29:38.812Z</time></trkpt><trkpt lat="45.7998138" lon="10.0451329"><ele>523.0</ele><time>2026-04-18T15:29:40.811Z</time></trkpt><trkpt lat="45.7998257" lon="10.0450055"><ele>523.0</ele><time>2026-04-18T15:29:42.812Z</time></trkpt><trkpt lat="45.7998564" lon="10.0449119"><ele>523.0</ele><time>2026-04-18T15:29:44.811Z</time></trkpt><trkpt lat="45.7999445" lon="10.0449278"><ele>523.0</ele><time>2026-04-18T15:29:47.812Z</time></trkpt><trkpt lat="45.8000156" lon="10.0449503"><ele>523.0</ele><time>2026-04-18T15:29:51.812Z</time></trkpt><trkpt lat="45.8000282" lon="10.0450431"><ele>523.0</ele><time>2026-04-18T15:29:54.812Z</time></trkpt><trkpt lat="45.8000111" lon="10.0451313"><ele>523.0</ele><time>2026-04-18T15:29:56.813Z</time></trkpt><trkpt lat="45.8000215" lon="10.0452474"><ele>523.0</ele><time>2026-04-18T15:29:59.812Z</time></trkpt><trkpt lat="45.8000128" lon="10.0453614"><ele>523.0</ele><time>2026-04-18T15:30:02.81Z</time></trkpt><trkpt lat="45.7999784" lon="10.0454666"><ele>523.0</ele><time>2026-04-18T15:30:05.811Z</time></trkpt><trkpt lat="45.7999532" lon="10.0455941"><ele>523.0</ele><time>2026-04-18T15:30:08.812Z</time></trkpt><trkpt lat="45.7999691" lon="10.0456965"><ele>523.0</ele><time>2026-04-18T15:30:10.812Z</time></trkpt><trkpt lat="45.7999885" lon="10.0458389"><ele>521.5</ele><time>2026-04-18T15:30:13.812Z</time></trkpt><trkpt lat="45.7999806" lon="10.0459752"><ele>520.0</ele><time>2026-04-18T15:30:15.811Z</time></trkpt><trkpt lat="45.8000182" lon="10.0460772"><ele>518.5</ele><time>2026-04-18T15:30:17.81Z</time></trkpt><trkpt lat="45.800063" lon="10.046144"><ele>517.0</ele><time>2026-04-18T15:30:19.812Z</time></trkpt><trkpt lat="45.8000475" lon="10.0462618"><ele>515.5</ele><time>2026-04-18T15:30:24.811Z</time></trkpt><trkpt lat="45.8000209" lon="10.0463887"><ele>514.0</ele><time>2026-04-18T15:30:26.812Z</time></trkpt><trkpt lat="45.7999802" lon="10.0464884"><ele>514.0</ele><time>2026-04-18T15:30:28.811Z</time></trkpt><trkpt lat="45.7999264" lon="10.0466027"><ele>514.0</ele><time>2026-04-18T15:30:30.812Z</time></trkpt><trkpt lat="45.7999052" lon="10.0467173"><ele>514.0</ele><time>2026-04-18T15:30:32.812Z</time></trkpt><trkpt lat="45.7998855" lon="10.0468365"><ele>514.0</ele><time>2026-04-18T15:30:34.811Z</time></trkpt><trkpt lat="45.7998487" lon="10.0469183"><ele>514.0</ele><time>2026-04-18T15:30:36.813Z</time></trkpt><trkpt lat="45.7998221" lon="10.0470229"><ele>514.0</ele><time>2026-04-18T15:30:38.81Z</time></trkpt><trkpt lat="45.7998148" lon="10.0471128"><ele>512.8571428571429</ele><time>2026-04-18T15:30:40.811Z</time></trkpt><trkpt lat="45.7998595" lon="10.047219"><ele>511.7142857142858</ele><time>2026-04-18T15:30:43.811Z</time></trkpt><trkpt lat="45.7998802" lon="10.0473229"><ele>510.5714285714286</ele><time>2026-04-18T15:30:45.812Z</time></trkpt><trkpt lat="45.7998954" lon="10.0474107"><ele>509.42857142857144</ele><time>2026-04-18T15:30:48.812Z</time></trkpt><trkpt lat="45.7999005" lon="10.0475187"><ele>508.28571428571433</ele><time>2026-04-18T15:30:51.811Z</time></trkpt><trkpt lat="45.7998967" lon="10.0476141"><ele>507.1428571428572</ele><time>2026-04-18T15:30:53.811Z</time></trkpt><trkpt lat="45.7998951" lon="10.0477157"><ele>506.00000000000006</ele><time>2026-04-18T15:30:56.812Z</time></trkpt><trkpt lat="45.7998731" lon="10.0478274"><ele>504.28571428571433</ele><time>2026-04-18T15:31:00.812Z</time></trkpt><trkpt lat="45.7998732" lon="10.0479535"><ele>502.57142857142856</ele><time>2026-04-18T15:31:03.811Z</time></trkpt><trkpt lat="45.7998745" lon="10.0480598"><ele>500.8571428571429</ele><time>2026-04-18T15:31:05.811Z</time></trkpt><trkpt lat="45.7998684" lon="10.0481542"><ele>499.14285714285717</ele><time>2026-04-18T15:31:07.811Z</time></trkpt><trkpt lat="45.7998367" lon="10.0482414"><ele>497.42857142857144</ele><time>2026-04-18T15:31:15.812Z</time></trkpt><trkpt lat="45.7998082" lon="10.0483356"><ele>495.7142857142857</ele><time>2026-04-18T15:31:19.81Z</time></trkpt><trkpt lat="45.7997935" lon="10.0484282"><ele>494.0</ele><time>2026-04-18T15:31:22.813Z</time></trkpt><trkpt lat="45.7997861" lon="10.0485556"><ele>492.3333333333333</ele><time>2026-04-18T15:31:25.81Z</time></trkpt><trkpt lat="45.7997539" lon="10.0486539"><ele>490.66666666666663</ele><time>2026-04-18T15:31:28.812Z</time></trkpt><trkpt lat="45.799741" lon="10.0487474"><ele>489.0</ele><time>2026-04-18T15:31:30.811Z</time></trkpt><trkpt lat="45.7997362" lon="10.0488712"><ele>487.33333333333337</ele><time>2026-04-18T15:31:32.813Z</time></trkpt><trkpt lat="45.7997531" lon="10.0489666"><ele>485.6666666666667</ele><time>2026-04-18T15:31:34.812Z</time></trkpt><trkpt lat="45.7997868" lon="10.0490659"><ele>484.0</ele><time>2026-04-18T15:31:36.812Z</time></trkpt><trkpt lat="45.7998335" lon="10.0491878"><ele>482.00000000000006</ele><time>2026-04-18T15:31:38.811Z</time></trkpt><trkpt lat="45.7998785" lon="10.0492702"><ele>480.0</ele><time>2026-04-18T15:31:40.812Z</time></trkpt><trkpt lat="45.799916" lon="10.0493504"><ele>478.0</ele><time>2026-04-18T15:31:42.812Z</time></trkpt><trkpt lat="45.799937" lon="10.0494698"><ele>476.0</ele><time>2026-04-18T15:31:44.811Z</time></trkpt><trkpt lat="45.7999489" lon="10.0496147"><ele>474.00000000000006</ele><time>2026-04-18T15:31:46.812Z</time></trkpt><trkpt lat="45.7999427" lon="10.0497255"><ele>472.0</ele><time>2026-04-18T15:31:48.811Z</time></trkpt><trkpt lat="45.7999572" lon="10.0498138"><ele>472.00000000000006</ele><time>2026-04-18T15:31:50.811Z</time></trkpt><trkpt lat="45.799982" lon="10.0499177"><ele>472.0</ele><time>2026-04-18T15:31:53.812Z</time></trkpt><trkpt lat="45.800047" lon="10.0499887"><ele>472.0</ele><time>2026-04-18T15:31:56.81Z</time></trkpt><trkpt lat="45.8000811" lon="10.0500707"><ele>472.0</ele><time>2026-04-18T15:32:00.812Z</time></trkpt><trkpt lat="45.8000869" lon="10.0501707"><ele>472.00000000000006</ele><time>2026-04-18T15:32:03.812Z</time></trkpt><trkpt lat="45.8000779" lon="10.0502988"><ele>472.0</ele><time>2026-04-18T15:32:06.812Z</time></trkpt><trkpt lat="45.8000374" lon="10.0504269"><ele>471.6666666666667</ele><time>2026-04-18T15:32:09.812Z</time></trkpt><trkpt lat="45.8000252" lon="10.0505278"><ele>471.33333333333337</ele><time>2026-04-18T15:32:12.811Z</time></trkpt><trkpt lat="45.8000301" lon="10.0506629"><ele>471.0</ele><time>2026-04-18T15:32:15.812Z</time></trkpt><trkpt lat="45.8000689" lon="10.0507589"><ele>470.66666666666663</ele><time>2026-04-18T15:32:18.811Z</time></trkpt><trkpt lat="45.8000957" lon="10.0508788"><ele>470.3333333333333</ele><time>2026-04-18T15:32:21.81Z</time></trkpt><trkpt lat="45.8000968" lon="10.0509883"><ele>470.0</ele><time>2026-04-18T15:32:24.812Z</time></trkpt><trkpt lat="45.8000459" lon="10.0510648"><ele>468.8333333333333</ele><time>2026-04-18T15:32:27.812Z</time></trkpt><trkpt lat="45.8000978" lon="10.0511423"><ele>467.66666666666663</ele><time>2026-04-18T15:32:30.812Z</time></trkpt><trkpt lat="45.8002007" lon="10.0510914"><ele>466.5</ele><time>2026-04-18T15:32:32.812Z</time></trkpt><trkpt lat="45.8002704" lon="10.0510186"><ele>465.33333333333337</ele><time>2026-04-18T15:32:34.811Z</time></trkpt><trkpt lat="45.8003406" lon="10.0509423"><ele>464.1666666666667</ele><time>2026-04-18T15:32:36.812Z</time></trkpt><trkpt lat="45.8004239" lon="10.0509477"><ele>463.0</ele><time>2026-04-18T15:32:38.812Z</time></trkpt><trkpt lat="45.8005113" lon="10.0509291"><ele>458.4</ele><time>2026-04-18T15:32:40.811Z</time></trkpt><trkpt lat="45.800578" lon="10.0508585"><ele>453.79999999999995</ele><time>2026-04-18T15:32:44.811Z</time></trkpt><trkpt lat="45.800635" lon="10.0509529"><ele>449.2</ele><time>2026-04-18T15:32:46.812Z</time></trkpt><trkpt lat="45.8006927" lon="10.0510792"><ele>444.6</ele><time>2026-04-18T15:32:48.812Z</time></trkpt><trkpt lat="45.8007336" lon="10.0512077"><ele>440.0</ele><time>2026-04-18T15:32:50.812Z</time></trkpt><trkpt lat="45.8007785" lon="10.0513353"><ele>439.99999999999994</ele><time>2026-04-18T15:32:52.811Z</time></trkpt><trkpt lat="45.8007869" lon="10.0514636"><ele>440.0</ele><time>2026-04-18T15:32:54.812Z</time></trkpt><trkpt lat="45.8007805" lon="10.0516098"><ele>440.0</ele><time>2026-04-18T15:32:56.813Z</time></trkpt><trkpt lat="45.8007754" lon="10.0517783"><ele>440.0</ele><time>2026-04-18T15:32:58.812Z</time></trkpt><trkpt lat="45.8007907" lon="10.0518723"><ele>439.99999999999994</ele><time>2026-04-18T15:32:59.812Z</time></trkpt><trkpt lat="45.8008149" lon="10.0519562"><ele>440.0</ele><time>2026-04-18T15:33:00.812Z</time></trkpt><trkpt lat="45.8008504" lon="10.052106"><ele>438.8333333333333</ele><time>2026-04-18T15:33:02.812Z</time></trkpt><trkpt lat="45.800849" lon="10.052247"><ele>437.66666666666663</ele><time>2026-04-18T15:33:04.811Z</time></trkpt><trkpt lat="45.800859" lon="10.0523856"><ele>436.5</ele><time>2026-04-18T15:33:06.81Z</time></trkpt><trkpt lat="45.8008868" lon="10.052503"><ele>435.33333333333337</ele><time>2026-04-18T15:33:08.81Z</time></trkpt><trkpt lat="45.8009542" lon="10.0525811"><ele>434.1666666666667</ele><time>2026-04-18T15:33:10.812Z</time></trkpt><trkpt lat="45.8010186" lon="10.052639"><ele>433.0</ele><time>2026-04-18T15:33:12.812Z</time></trkpt><trkpt lat="45.8010982" lon="10.0526738"><ele>430.79999999999995</ele><time>2026-04-18T15:33:14.812Z</time></trkpt><trkpt lat="45.8011687" lon="10.0525885"><ele>428.59999999999997</ele><time>2026-04-18T15:33:16.813Z</time></trkpt><trkpt lat="45.8012437" lon="10.0525161"><ele>426.4</ele><time>2026-04-18T15:33:18.812Z</time></trkpt><trkpt lat="45.8013172" lon="10.0524062"><ele>424.20000000000005</ele><time>2026-04-18T15:33:20.811Z</time></trkpt><trkpt lat="45.8013821" lon="10.052298"><ele>422.0</ele><time>2026-04-18T15:33:22.812Z</time></trkpt><trkpt lat="45.8014395" lon="10.0522065"><ele>421.66666666666663</ele><time>2026-04-18T15:33:24.811Z</time></trkpt><trkpt lat="45.8014952" lon="10.0521024"><ele>421.3333333333333</ele><time>2026-04-18T15:33:26.812Z</time></trkpt><trkpt lat="45.8015448" lon="10.0520169"><ele>421.0</ele><time>2026-04-18T15:33:28.811Z</time></trkpt><trkpt lat="45.8016108" lon="10.051914"><ele>420.66666666666663</ele><time>2026-04-18T15:33:30.811Z</time></trkpt><trkpt lat="45.801692" lon="10.0518126"><ele>420.3333333333333</ele><time>2026-04-18T15:33:32.811Z</time></trkpt><trkpt lat="45.8017422" lon="10.0517332"><ele>420.0</ele><time>2026-04-18T15:33:43.812Z</time></trkpt><trkpt lat="45.8017191" lon="10.0516233"><ele>420.0</ele><time>2026-04-18T15:33:47.812Z</time></trkpt><trkpt lat="45.8017549" lon="10.0514941"><ele>420.0</ele><time>2026-04-18T15:33:50.811Z</time></trkpt><trkpt lat="45.8017937" lon="10.0513871"><ele>420.0</ele><time>2026-04-18T15:33:53.812Z</time></trkpt><trkpt lat="45.8018431" lon="10.0512259"><ele>420.0</ele><time>2026-04-18T15:33:56.81Z</time></trkpt><trkpt lat="45.8018686" lon="10.0510804"><ele>420.0</ele><time>2026-04-18T15:33:58.812Z</time></trkpt><trkpt lat="45.8018844" lon="10.0509563"><ele>421.0</ele><time>2026-04-18T15:34:00.811Z</time></trkpt><trkpt lat="45.8018607" lon="10.0508238"><ele>422.0</ele><time>2026-04-18T15:34:02.812Z</time></trkpt><trkpt lat="45.8017978" lon="10.0507207"><ele>423.0</ele><time>2026-04-18T15:34:04.811Z</time></trkpt><trkpt lat="45.8017547" lon="10.0506349"><ele>424.0</ele><time>2026-04-18T15:34:06.811Z</time></trkpt><trkpt lat="45.8017446" lon="10.0505439"><ele>425.0</ele><time>2026-04-18T15:34:08.811Z</time></trkpt><trkpt lat="45.8017512" lon="10.0504512"><ele>426.0</ele><time>2026-04-18T15:34:10.81Z</time></trkpt><trkpt lat="45.8017513" lon="10.0503544"><ele>426.0</ele><time>2026-04-18T15:34:12.811Z</time></trkpt><trkpt lat="45.8017658" lon="10.0502495"><ele>426.0</ele><time>2026-04-18T15:34:15.813Z</time></trkpt><trkpt lat="45.8017596" lon="10.0501375"><ele>426.0</ele><time>2026-04-18T15:34:18.812Z</time></trkpt><trkpt lat="45.8018" lon="10.0500682"><ele>426.0</ele><time>2026-04-18T15:34:33.812Z</time></trkpt><trkpt lat="45.8018784" lon="10.0500544"><ele>426.0</ele><time>2026-04-18T15:34:37.812Z</time></trkpt><trkpt lat="45.8019219" lon="10.0499804"><ele>426.0</ele><time>2026-04-18T15:34:40.812Z</time></trkpt><trkpt lat="45.8019888" lon="10.0498839"><ele>422.2857142857143</ele><time>2026-04-18T15:34:43.811Z</time></trkpt><trkpt lat="45.8020531" lon="10.0498613"><ele>418.57142857142856</ele><time>2026-04-18T15:34:45.811Z</time></trkpt><trkpt lat="45.8021306" lon="10.049808"><ele>414.8571428571429</ele><time>2026-04-18T15:34:48.812Z</time></trkpt><trkpt lat="45.8021956" lon="10.0497624"><ele>411.1428571428571</ele><time>2026-04-18T15:34:51.811Z</time></trkpt><trkpt lat="45.8022589" lon="10.0497695"><ele>407.42857142857144</ele><time>2026-04-18T15:34:54.812Z</time></trkpt><trkpt lat="45.8022955" lon="10.0498809"><ele>403.7142857142857</ele><time>2026-04-18T15:35:05.811Z</time></trkpt><trkpt lat="45.8023466" lon="10.049947"><ele>400.0</ele><time>2026-04-18T15:35:07.811Z</time></trkpt><trkpt lat="45.8023995" lon="10.0500441"><ele>399.6666666666667</ele><time>2026-04-18T15:35:10.811Z</time></trkpt><trkpt lat="45.8024199" lon="10.050155"><ele>399.33333333333337</ele><time>2026-04-18T15:35:14.812Z</time></trkpt><trkpt lat="45.8024544" lon="10.0502405"><ele>399.0</ele><time>2026-04-18T15:35:36.811Z</time></trkpt><trkpt lat="45.8024439" lon="10.0503657"><ele>398.66666666666663</ele><time>2026-04-18T15:35:40.811Z</time></trkpt><trkpt lat="45.8024717" lon="10.0504616"><ele>398.3333333333333</ele><time>2026-04-18T15:35:48.812Z</time></trkpt><trkpt lat="45.80253" lon="10.0505488"><ele>398.0</ele><time>2026-04-18T15:35:51.812Z</time></trkpt><trkpt lat="45.802581" lon="10.0506503"><ele>397.99999999999994</ele><time>2026-04-18T15:35:54.812Z</time></trkpt><trkpt lat="45.802629" lon="10.0507375"><ele>398.0</ele><time>2026-04-18T15:35:56.811Z</time></trkpt><trkpt lat="45.8026665" lon="10.0508194"><ele>398.0</ele><time>2026-04-18T15:35:58.81Z</time></trkpt><trkpt lat="45.8027159" lon="10.0509181"><ele>398.0</ele><time>2026-04-18T15:36:01.811Z</time></trkpt><trkpt lat="45.8027454" lon="10.0509993"><ele>397.99999999999994</ele><time>2026-04-18T15:36:04.812Z</time></trkpt><trkpt lat="45.8028041" lon="10.0510604"><ele>398.0</ele><time>2026-04-18T15:36:18.811Z</time></trkpt><trkpt lat="45.8029363" lon="10.0510831"><ele>397.99999999999994</ele><time>2026-04-18T15:37:27.813Z</time></trkpt><trkpt lat="45.8028685" lon="10.0510892"><ele>398.0</ele><time>2026-04-18T15:37:42.859Z</time></trkpt><trkpt lat="45.8028061" lon="10.0510559"><ele>398.0</ele><time>2026-04-18T15:39:49.812Z</time></trkpt><trkpt lat="45.8027485" lon="10.0510026"><ele>398.0</ele><time>2026-04-18T15:40:17.811Z</time></trkpt><trkpt lat="45.8027124" lon="10.0509279"><ele>398.0</ele><time>2026-04-18T15:40:20.812Z</time></trkpt><trkpt lat="45.8026758" lon="10.0508112"><ele>397.99999999999994</ele><time>2026-04-18T15:40:23.812Z</time></trkpt><trkpt lat="45.8026337" lon="10.0507142"><ele>398.0</ele><time>2026-04-18T15:40:25.811Z</time></trkpt><trkpt lat="45.8025888" lon="10.0506258"><ele>397.99999999999994</ele><time>2026-04-18T15:40:28.811Z</time></trkpt><trkpt lat="45.8025491" lon="10.0505387"><ele>398.0</ele><time>2026-04-18T15:40:30.811Z</time></trkpt><trkpt lat="45.8024802" lon="10.0504735"><ele>398.0</ele><time>2026-04-18T15:40:37.811Z</time></trkpt><trkpt lat="45.8024704" lon="10.0503522"><ele>398.0</ele><time>2026-04-18T15:40:41.81Z</time></trkpt><trkpt lat="45.8024778" lon="10.0502488"><ele>397.99999999999994</ele><time>2026-04-18T15:40:44.812Z</time></trkpt><trkpt lat="45.8024578" lon="10.0501493"><ele>398.0</ele><time>2026-04-18T15:40:47.811Z</time></trkpt><trkpt lat="45.8024282" lon="10.0500604"><ele>397.99999999999994</ele><time>2026-04-18T15:40:53.811Z</time></trkpt><trkpt lat="45.8023714" lon="10.0499902"><ele>398.0</ele><time>2026-04-18T15:40:56.811Z</time></trkpt><trkpt lat="45.802312" lon="10.0498905"><ele>398.0</ele><time>2026-04-18T15:40:59.812Z</time></trkpt><trkpt lat="45.8022845" lon="10.0497868"><ele>398.0</ele><time>2026-04-18T15:41:02.812Z</time></trkpt><trkpt lat="45.8022207" lon="10.0497498"><ele>397.99999999999994</ele><time>2026-04-18T15:41:06.811Z</time></trkpt><trkpt lat="45.8021636" lon="10.0498016"><ele>398.0</ele><time>2026-04-18T15:41:09.81Z</time></trkpt><trkpt lat="45.8020783" lon="10.0498396"><ele>397.99999999999994</ele><time>2026-04-18T15:41:11.811Z</time></trkpt><trkpt lat="45.8019967" lon="10.049865"><ele>398.0</ele><time>2026-04-18T15:41:13.811Z</time></trkpt><trkpt lat="45.8019462" lon="10.0499357"><ele>398.0</ele><time>2026-04-18T15:41:15.811Z</time></trkpt><trkpt lat="45.8019097" lon="10.0500113"><ele>398.0</ele><time>2026-04-18T15:41:17.81Z</time></trkpt><trkpt lat="45.8018414" lon="10.0500892"><ele>398.0</ele><time>2026-04-18T15:41:19.81Z</time></trkpt><trkpt lat="45.8017821" lon="10.0501552"><ele>397.99999999999994</ele><time>2026-04-18T15:41:21.812Z</time></trkpt><trkpt lat="45.8017432" lon="10.0502331"><ele>398.0</ele><time>2026-04-18T15:41:23.811Z</time></trkpt><trkpt lat="45.8017185" lon="10.0503495"><ele>398.0</ele><time>2026-04-18T15:41:25.81Z</time></trkpt><trkpt lat="45.8017324" lon="10.0504948"><ele>398.0</ele><time>2026-04-18T15:41:27.812Z</time></trkpt><trkpt lat="45.8017699" lon="10.0506523"><ele>398.0</ele><time>2026-04-18T15:41:29.813Z</time></trkpt><trkpt lat="45.8018218" lon="10.0507478"><ele>398.0</ele><time>2026-04-18T15:41:31.813Z</time></trkpt><trkpt lat="45.8018582" lon="10.0508511"><ele>398.0</ele><time>2026-04-18T15:41:33.811Z</time></trkpt><trkpt lat="45.8018814" lon="10.0509655"><ele>397.99999999999994</ele><time>2026-04-18T15:41:35.811Z</time></trkpt><trkpt lat="45.8018586" lon="10.0510569"><ele>398.0</ele><time>2026-04-18T15:41:37.812Z</time></trkpt><trkpt lat="45.8018249" lon="10.0511707"><ele>398.0</ele><time>2026-04-18T15:41:39.811Z</time></trkpt><trkpt lat="45.8017957" lon="10.0512789"><ele>398.0</ele><time>2026-04-18T15:41:41.813Z</time></trkpt><trkpt lat="45.8017827" lon="10.0513755"><ele>397.99999999999994</ele><time>2026-04-18T15:41:48.811Z</time></trkpt><trkpt lat="45.801736" lon="10.0514584"><ele>398.0</ele><time>2026-04-18T15:41:54.811Z</time></trkpt><trkpt lat="45.8017089" lon="10.0515665"><ele>397.99999999999994</ele><time>2026-04-18T15:41:56.811Z</time></trkpt><trkpt lat="45.801734" lon="10.0516533"><ele>398.0</ele><time>2026-04-18T15:41:59.811Z</time></trkpt><trkpt lat="45.8018084" lon="10.0516329"><ele>398.0</ele><time>2026-04-18T15:42:02.812Z</time></trkpt><trkpt lat="45.8018979" lon="10.051603"><ele>398.0</ele><time>2026-04-18T15:42:05.812Z</time></trkpt><trkpt lat="45.8020015" lon="10.0516048"><ele>397.99999999999994</ele><time>2026-04-18T15:42:07.811Z</time></trkpt><trkpt lat="45.8020809" lon="10.0516004"><ele>398.0</ele><time>2026-04-18T15:42:09.812Z</time></trkpt><trkpt lat="45.8021718" lon="10.0515854"><ele>397.99999999999994</ele><time>2026-04-18T15:42:11.811Z</time></trkpt><trkpt lat="45.8022451" lon="10.0515545"><ele>398.0</ele><time>2026-04-18T15:42:14.812Z</time></trkpt><trkpt lat="45.8023359" lon="10.051505"><ele>398.0</ele><time>2026-04-18T15:42:18.812Z</time></trkpt><trkpt lat="45.8024226" lon="10.0515032"><ele>398.0</ele><time>2026-04-18T15:42:20.81Z</time></trkpt><trkpt lat="45.8024987" lon="10.0515127"><ele>397.99999999999994</ele><time>2026-04-18T15:42:22.811Z</time></trkpt><trkpt lat="45.8025702" lon="10.0515337"><ele>398.0</ele><time>2026-04-18T15:42:24.813Z</time></trkpt><trkpt lat="45.8026444" lon="10.0515599"><ele>393.2</ele><time>2026-04-18T15:42:26.812Z</time></trkpt><trkpt lat="45.8027165" lon="10.0516007"><ele>388.4</ele><time>2026-04-18T15:42:28.811Z</time></trkpt><trkpt lat="45.8027886" lon="10.0516799"><ele>383.59999999999997</ele><time>2026-04-18T15:42:30.812Z</time></trkpt><trkpt lat="45.8028381" lon="10.0517872"><ele>378.79999999999995</ele><time>2026-04-18T15:42:32.811Z</time></trkpt><trkpt lat="45.8028874" lon="10.0518968"><ele>374.0</ele><time>2026-04-18T15:42:34.812Z</time></trkpt><trkpt lat="45.8029364" lon="10.0520247"><ele>374.0</ele><time>2026-04-18T15:42:36.811Z</time></trkpt><trkpt lat="45.8029837" lon="10.052151"><ele>374.0</ele><time>2026-04-18T15:42:38.81Z</time></trkpt><trkpt lat="45.8030251" lon="10.0522872"><ele>374.0</ele><time>2026-04-18T15:42:40.812Z</time></trkpt><trkpt lat="45.8030488" lon="10.0524065"><ele>374.0</ele><time>2026-04-18T15:42:42.81Z</time></trkpt><trkpt lat="45.8030684" lon="10.0525393"><ele>374.0</ele><time>2026-04-18T15:42:44.812Z</time></trkpt><trkpt lat="45.8031052" lon="10.052682"><ele>374.6</ele><time>2026-04-18T15:42:46.811Z</time></trkpt><trkpt lat="45.8031163" lon="10.0528322"><ele>375.2</ele><time>2026-04-18T15:42:48.812Z</time></trkpt><trkpt lat="45.8031298" lon="10.0529874"><ele>375.8</ele><time>2026-04-18T15:42:50.812Z</time></trkpt><trkpt lat="45.8031495" lon="10.0531231"><ele>376.40000000000003</ele><time>2026-04-18T15:42:52.811Z</time></trkpt><trkpt lat="45.8031436" lon="10.0532487"><ele>377.0</ele><time>2026-04-18T15:42:54.812Z</time></trkpt><trkpt lat="45.8031176" lon="10.0533856"><ele>377.0</ele><time>2026-04-18T15:42:56.811Z</time></trkpt><trkpt lat="45.8031061" lon="10.0535287"><ele>377.0</ele><time>2026-04-18T15:42:58.811Z</time></trkpt><trkpt lat="45.8031032" lon="10.0536446"><ele>377.0</ele><time>2026-04-18T15:43:00.812Z</time></trkpt><trkpt lat="45.803121" lon="10.0537379"><ele>377.0</ele><time>2026-04-18T15:43:02.811Z</time></trkpt><trkpt lat="45.8031643" lon="10.0538687"><ele>377.0</ele><time>2026-04-18T15:43:04.811Z</time></trkpt><trkpt lat="45.8032055" lon="10.0539955"><ele>377.0</ele><time>2026-04-18T15:43:06.811Z</time></trkpt><trkpt lat="45.8032674" lon="10.0541404"><ele>377.8</ele><time>2026-04-18T15:43:08.81Z</time></trkpt><trkpt lat="45.8033163" lon="10.0542027"><ele>378.6</ele><time>2026-04-18T15:43:09.81Z</time></trkpt><trkpt lat="45.8033954" lon="10.0542877"><ele>379.40000000000003</ele><time>2026-04-18T15:43:11.813Z</time></trkpt><trkpt lat="45.8034951" lon="10.0543652"><ele>380.20000000000005</ele><time>2026-04-18T15:43:13.81Z</time></trkpt><trkpt lat="45.8035793" lon="10.0544555"><ele>381.0</ele><time>2026-04-18T15:43:15.812Z</time></trkpt><trkpt lat="45.8036814" lon="10.0545444"><ele>377.6666666666667</ele><time>2026-04-18T15:43:17.812Z</time></trkpt><trkpt lat="45.8037772" lon="10.05462"><ele>374.3333333333333</ele><time>2026-04-18T15:43:19.811Z</time></trkpt><trkpt lat="45.8038474" lon="10.0546673"><ele>371.0</ele><time>2026-04-18T15:43:21.81Z</time></trkpt><trkpt lat="45.8039204" lon="10.0547451"><ele>367.66666666666663</ele><time>2026-04-18T15:43:24.811Z</time></trkpt><trkpt lat="45.8039781" lon="10.0548225"><ele>364.3333333333333</ele><time>2026-04-18T15:43:26.81Z</time></trkpt><trkpt lat="45.8040454" lon="10.0548951"><ele>361.0</ele><time>2026-04-18T15:43:28.811Z</time></trkpt><trkpt lat="45.8041314" lon="10.0549405"><ele>361.0</ele><time>2026-04-18T15:43:31.812Z</time></trkpt><trkpt lat="45.8042055" lon="10.0549291"><ele>361.0</ele><time>2026-04-18T15:43:33.811Z</time></trkpt><trkpt lat="45.8042608" lon="10.0549818"><ele>361.0</ele><time>2026-04-18T15:43:35.811Z</time></trkpt><trkpt lat="45.8043056" lon="10.0550729"><ele>361.0</ele><time>2026-04-18T15:43:39.81Z</time></trkpt><trkpt lat="45.8043727" lon="10.0551582"><ele>361.0</ele><time>2026-04-18T15:43:42.811Z</time></trkpt><trkpt lat="45.8044298" lon="10.0552565"><ele>361.0</ele><time>2026-04-18T15:43:45.812Z</time></trkpt><trkpt lat="45.8044942" lon="10.0553151"><ele>360.5</ele><time>2026-04-18T15:43:47.811Z</time></trkpt><trkpt lat="45.8045553" lon="10.0554304"><ele>360.0</ele><time>2026-04-18T15:43:49.812Z</time></trkpt><trkpt lat="45.8046242" lon="10.0555071"><ele>359.5</ele><time>2026-04-18T15:43:51.811Z</time></trkpt><trkpt lat="45.8046924" lon="10.0555841"><ele>359.0</ele><time>2026-04-18T15:43:53.811Z</time></trkpt><trkpt lat="45.8047354" lon="10.0556768"><ele>358.5</ele><time>2026-04-18T15:43:55.811Z</time></trkpt><trkpt lat="45.8047917" lon="10.0557587"><ele>358.0</ele><time>2026-04-18T15:43:57.811Z</time></trkpt><trkpt lat="45.8048987" lon="10.055822"><ele>358.0</ele><time>2026-04-18T15:43:59.81Z</time></trkpt><trkpt lat="45.8050059" lon="10.0558566"><ele>358.0</ele><time>2026-04-18T15:44:01.812Z</time></trkpt><trkpt lat="45.8050764" lon="10.0559269"><ele>358.0</ele><time>2026-04-18T15:44:03.812Z</time></trkpt><trkpt lat="45.8051852" lon="10.0559418"><ele>358.0</ele><time>2026-04-18T15:44:05.812Z</time></trkpt><trkpt lat="45.8052652" lon="10.0559338"><ele>358.0</ele><time>2026-04-18T15:44:07.812Z</time></trkpt><trkpt lat="45.8053421" lon="10.0558851"><ele>358.00000000000006</ele><time>2026-04-18T15:44:10.81Z</time></trkpt><trkpt lat="45.805389" lon="10.0558066"><ele>358.0</ele><time>2026-04-18T15:44:11.811Z</time></trkpt><trkpt lat="45.8054233" lon="10.0556558"><ele>358.0</ele><time>2026-04-18T15:44:13.81Z</time></trkpt><trkpt lat="45.8054419" lon="10.0555686"><ele>358.0</ele><time>2026-04-18T15:44:14.812Z</time></trkpt><trkpt lat="45.8054638" lon="10.0554726"><ele>358.0</ele><time>2026-04-18T15:44:15.811Z</time></trkpt><trkpt lat="45.8054798" lon="10.0553778"><ele>358.00000000000006</ele><time>2026-04-18T15:44:16.811Z</time></trkpt><trkpt lat="45.8055001" lon="10.0552916"><ele>358.0</ele><time>2026-04-18T15:44:17.812Z</time></trkpt><trkpt lat="45.8055266" lon="10.0551975"><ele>358.0</ele><time>2026-04-18T15:44:18.811Z</time></trkpt><trkpt lat="45.805589" lon="10.0550408"><ele>358.0</ele><time>2026-04-18T15:44:20.812Z</time></trkpt><trkpt lat="45.805628" lon="10.0548442"><ele>358.0</ele><time>2026-04-18T15:44:22.812Z</time></trkpt><trkpt lat="45.8056478" lon="10.054732"><ele>358.0</ele><time>2026-04-18T15:44:23.811Z</time></trkpt><trkpt lat="45.8056566" lon="10.0546313"><ele>358.0</ele><time>2026-04-18T15:44:25.811Z</time></trkpt><trkpt lat="45.8056834" lon="10.0545162"><ele>358.0</ele><time>2026-04-18T15:44:28.811Z</time></trkpt><trkpt lat="45.8057448" lon="10.0544003"><ele>358.0</ele><time>2026-04-18T15:44:30.811Z</time></trkpt><trkpt lat="45.8057972" lon="10.0542668"><ele>358.0</ele><time>2026-04-18T15:44:32.812Z</time></trkpt><trkpt lat="45.8058211" lon="10.0541643"><ele>358.0</ele><time>2026-04-18T15:44:34.811Z</time></trkpt><trkpt lat="45.8058109" lon="10.0540584"><ele>358.0</ele><time>2026-04-18T15:44:36.811Z</time></trkpt><trkpt lat="45.8057502" lon="10.0539507"><ele>356.0</ele><time>2026-04-18T15:44:38.811Z</time></trkpt><trkpt lat="45.8056486" lon="10.0539176"><ele>354.0</ele><time>2026-04-18T15:44:40.812Z</time></trkpt><trkpt lat="45.8055577" lon="10.0538879"><ele>352.0</ele><time>2026-04-18T15:44:42.813Z</time></trkpt><trkpt lat="45.8054948" lon="10.0539043"><ele>350.0</ele><time>2026-04-18T15:44:43.811Z</time></trkpt><trkpt lat="45.8054297" lon="10.0539042"><ele>348.0</ele><time>2026-04-18T15:44:44.811Z</time></trkpt><trkpt lat="45.8053622" lon="10.053898"><ele>346.0</ele><time>2026-04-18T15:44:45.812Z</time></trkpt><trkpt lat="45.8052979" lon="10.0539018"><ele>346.0</ele><time>2026-04-18T15:44:46.812Z</time></trkpt><trkpt lat="45.805179" lon="10.0538861"><ele>346.0</ele><time>2026-04-18T15:44:48.811Z</time></trkpt><trkpt lat="45.8050852" lon="10.0538518"><ele>346.0</ele><time>2026-04-18T15:44:50.811Z</time></trkpt><trkpt lat="45.8050084" lon="10.0538346"><ele>346.0</ele><time>2026-04-18T15:44:52.81Z</time></trkpt><trkpt lat="45.8049163" lon="10.0538126"><ele>346.0</ele><time>2026-04-18T15:44:55.811Z</time></trkpt><trkpt lat="45.8048444" lon="10.0538039"><ele>344.16666666666663</ele><time>2026-04-18T15:44:57.812Z</time></trkpt><trkpt lat="45.8047679" lon="10.0537963"><ele>342.3333333333333</ele><time>2026-04-18T15:44:59.813Z</time></trkpt><trkpt lat="45.8046938" lon="10.053767"><ele>340.5</ele><time>2026-04-18T15:45:01.811Z</time></trkpt><trkpt lat="45.8046234" lon="10.0537601"><ele>338.6666666666667</ele><time>2026-04-18T15:45:03.812Z</time></trkpt><trkpt lat="45.8045481" lon="10.053775"><ele>336.83333333333337</ele><time>2026-04-18T15:45:05.813Z</time></trkpt><trkpt lat="45.8044582" lon="10.053732"><ele>335.0</ele><time>2026-04-18T15:45:07.811Z</time></trkpt><trkpt lat="45.8043853" lon="10.053695"><ele>336.4</ele><time>2026-04-18T15:45:08.812Z</time></trkpt><trkpt lat="45.8042885" lon="10.0536"><ele>337.8</ele><time>2026-04-18T15:45:10.812Z</time></trkpt><trkpt lat="45.804219" lon="10.0534889"><ele>339.20000000000005</ele><time>2026-04-18T15:45:12.811Z</time></trkpt><trkpt lat="45.8042013" lon="10.0533461"><ele>340.6</ele><time>2026-04-18T15:45:14.811Z</time></trkpt><trkpt lat="45.8041867" lon="10.0531873"><ele>342.0</ele><time>2026-04-18T15:45:16.812Z</time></trkpt><trkpt lat="45.8041998" lon="10.0530499"><ele>342.0</ele><time>2026-04-18T15:45:18.812Z</time></trkpt><trkpt lat="45.804255" lon="10.0529258"><ele>342.0</ele><time>2026-04-18T15:45:20.811Z</time></trkpt><trkpt lat="45.8043145" lon="10.0528874"><ele>342.0</ele><time>2026-04-18T15:45:24.811Z</time></trkpt><trkpt lat="45.8043798" lon="10.0529691"><ele>342.0</ele><time>2026-04-18T15:45:27.811Z</time></trkpt><trkpt lat="45.8044554" lon="10.0530494"><ele>342.0</ele><time>2026-04-18T15:45:29.812Z</time></trkpt><trkpt lat="45.8045367" lon="10.0531501"><ele>338.5</ele><time>2026-04-18T15:45:31.812Z</time></trkpt><trkpt lat="45.804606" lon="10.0531934"><ele>335.0</ele><time>2026-04-18T15:45:33.812Z</time></trkpt><trkpt lat="45.8046907" lon="10.0531222"><ele>331.5</ele><time>2026-04-18T15:45:35.811Z</time></trkpt><trkpt lat="45.8047482" lon="10.0530787"><ele>328.0</ele><time>2026-04-18T15:45:36.81Z</time></trkpt><trkpt lat="45.8048037" lon="10.0530261"><ele>324.5</ele><time>2026-04-18T15:45:37.812Z</time></trkpt><trkpt lat="45.8048593" lon="10.0529784"><ele>321.0</ele><time>2026-04-18T15:45:38.81Z</time></trkpt><trkpt lat="45.8049603" lon="10.0528837"><ele>321.0</ele><time>2026-04-18T15:45:40.812Z</time></trkpt><trkpt lat="45.8050626" lon="10.0527716"><ele>321.0</ele><time>2026-04-18T15:45:42.811Z</time></trkpt><trkpt lat="45.8051363" lon="10.0526488"><ele>321.0</ele><time>2026-04-18T15:45:44.811Z</time></trkpt><trkpt lat="45.8051563" lon="10.0525011"><ele>321.0</ele><time>2026-04-18T15:45:46.811Z</time></trkpt><trkpt lat="45.8051223" lon="10.0523453"><ele>318.8</ele><time>2026-04-18T15:45:48.812Z</time></trkpt><trkpt lat="45.8051207" lon="10.0522518"><ele>316.6</ele><time>2026-04-18T15:45:49.812Z</time></trkpt><trkpt lat="45.805133" lon="10.0520693"><ele>314.4</ele><time>2026-04-18T15:45:51.81Z</time></trkpt><trkpt lat="45.8051644" lon="10.0519152"><ele>312.2</ele><time>2026-04-18T15:45:53.812Z</time></trkpt><trkpt lat="45.8052351" lon="10.0518271"><ele>310.0</ele><time>2026-04-18T15:45:55.811Z</time></trkpt><trkpt lat="45.805352" lon="10.0517612"><ele>309.8333333333333</ele><time>2026-04-18T15:45:57.812Z</time></trkpt><trkpt lat="45.8054123" lon="10.0517249"><ele>309.66666666666663</ele><time>2026-04-18T15:45:58.81Z</time></trkpt><trkpt lat="45.8054593" lon="10.0516551"><ele>309.5</ele><time>2026-04-18T15:45:59.81Z</time></trkpt><trkpt lat="45.8055049" lon="10.0515875"><ele>309.3333333333333</ele><time>2026-04-18T15:46:00.813Z</time></trkpt><trkpt lat="45.8055928" lon="10.0515378"><ele>309.1666666666667</ele><time>2026-04-18T15:46:02.812Z</time></trkpt><trkpt lat="45.8056896" lon="10.051589"><ele>309.0</ele><time>2026-04-18T15:46:04.812Z</time></trkpt><trkpt lat="45.8058014" lon="10.0515919"><ele>306.5</ele><time>2026-04-18T15:46:06.812Z</time></trkpt><trkpt lat="45.8059136" lon="10.0515053"><ele>304.0</ele><time>2026-04-18T15:46:08.811Z</time></trkpt><trkpt lat="45.8059744" lon="10.0514367"><ele>301.5</ele><time>2026-04-18T15:46:09.811Z</time></trkpt><trkpt lat="45.8060226" lon="10.0513668"><ele>299.0</ele><time>2026-04-18T15:46:10.81Z</time></trkpt><trkpt lat="45.8060693" lon="10.0512985"><ele>296.5</ele><time>2026-04-18T15:46:11.811Z</time></trkpt><trkpt lat="45.8061179" lon="10.0512336"><ele>294.0</ele><time>2026-04-18T15:46:12.812Z</time></trkpt><trkpt lat="45.80617" lon="10.0511726"><ele>294.0</ele><time>2026-04-18T15:46:13.811Z</time></trkpt><trkpt lat="45.806215" lon="10.0511089"><ele>294.0</ele><time>2026-04-18T15:46:14.811Z</time></trkpt><trkpt lat="45.8062721" lon="10.051043"><ele>294.0</ele><time>2026-04-18T15:46:15.811Z</time></trkpt><trkpt lat="45.8063323" lon="10.0509924"><ele>294.0</ele><time>2026-04-18T15:46:16.812Z</time></trkpt><trkpt lat="45.8063954" lon="10.0509533"><ele>294.0</ele><time>2026-04-18T15:46:17.81Z</time></trkpt><trkpt lat="45.8064595" lon="10.0509069"><ele>294.0</ele><time>2026-04-18T15:46:18.812Z</time></trkpt><trkpt lat="45.8065279" lon="10.0508662"><ele>294.0</ele><time>2026-04-18T15:46:19.81Z</time></trkpt><trkpt lat="45.8065919" lon="10.0508131"><ele>293.59999999999997</ele><time>2026-04-18T15:46:20.811Z</time></trkpt><trkpt lat="45.8066583" lon="10.0507535"><ele>293.2</ele><time>2026-04-18T15:46:21.811Z</time></trkpt><trkpt lat="45.8067221" lon="10.0507004"><ele>292.79999999999995</ele><time>2026-04-18T15:46:22.811Z</time></trkpt><trkpt lat="45.8067766" lon="10.0506301"><ele>292.4</ele><time>2026-04-18T15:46:23.812Z</time></trkpt><trkpt lat="45.8068446" lon="10.0504831"><ele>292.0</ele><time>2026-04-18T15:46:25.813Z</time></trkpt><trkpt lat="45.8068738" lon="10.0503216"><ele>292.0</ele><time>2026-04-18T15:46:27.811Z</time></trkpt><trkpt lat="45.8068755" lon="10.0501955"><ele>292.0</ele><time>2026-04-18T15:46:29.812Z</time></trkpt><trkpt lat="45.8068664" lon="10.0501053"><ele>292.0</ele><time>2026-04-18T15:46:32.812Z</time></trkpt><trkpt lat="45.8068164" lon="10.0500358"><ele>292.0</ele><time>2026-04-18T15:46:34.812Z</time></trkpt><trkpt lat="45.806713" lon="10.049966"><ele>292.0</ele><time>2026-04-18T15:46:36.812Z</time></trkpt><trkpt lat="45.8066569" lon="10.049919"><ele>292.0</ele><time>2026-04-18T15:46:37.812Z</time></trkpt><trkpt lat="45.8065997" lon="10.0498644"><ele>295.3333333333333</ele><time>2026-04-18T15:46:38.811Z</time></trkpt><trkpt lat="45.8065381" lon="10.0498095"><ele>298.66666666666663</ele><time>2026-04-18T15:46:39.81Z</time></trkpt><trkpt lat="45.8064821" lon="10.0497367"><ele>302.0</ele><time>2026-04-18T15:46:40.812Z</time></trkpt><trkpt lat="45.8064303" lon="10.0496585"><ele>305.3333333333333</ele><time>2026-04-18T15:46:41.811Z</time></trkpt><trkpt lat="45.806386" lon="10.0495681"><ele>308.6666666666667</ele><time>2026-04-18T15:46:42.811Z</time></trkpt><trkpt lat="45.8063583" lon="10.0494681"><ele>312.0</ele><time>2026-04-18T15:46:43.812Z</time></trkpt><trkpt lat="45.8063326" lon="10.0493643"><ele>312.0</ele><time>2026-04-18T15:46:44.81Z</time></trkpt><trkpt lat="45.8063155" lon="10.0492591"><ele>312.0</ele><time>2026-04-18T15:46:45.812Z</time></trkpt><trkpt lat="45.8062956" lon="10.049158"><ele>312.0</ele><time>2026-04-18T15:46:46.812Z</time></trkpt><trkpt lat="45.8062799" lon="10.0490502"><ele>312.0</ele><time>2026-04-18T15:46:47.81Z</time></trkpt><trkpt lat="45.8062688" lon="10.0489402"><ele>312.0</ele><time>2026-04-18T15:46:48.811Z</time></trkpt><trkpt lat="45.8062564" lon="10.0488356"><ele>312.0</ele><time>2026-04-18T15:46:49.812Z</time></trkpt><trkpt lat="45.8062463" lon="10.0487279"><ele>313.2857142857143</ele><time>2026-04-18T15:46:50.812Z</time></trkpt><trkpt lat="45.8062392" lon="10.0486136"><ele>314.57142857142856</ele><time>2026-04-18T15:46:51.811Z</time></trkpt><trkpt lat="45.8062397" lon="10.0485022"><ele>315.85714285714283</ele><time>2026-04-18T15:46:52.81Z</time></trkpt><trkpt lat="45.8062477" lon="10.048396"><ele>317.1428571428571</ele><time>2026-04-18T15:46:53.813Z</time></trkpt><trkpt lat="45.806261" lon="10.0482901"><ele>318.42857142857144</ele><time>2026-04-18T15:46:54.811Z</time></trkpt><trkpt lat="45.8062771" lon="10.0481895"><ele>319.71428571428567</ele><time>2026-04-18T15:46:55.811Z</time></trkpt><trkpt lat="45.806292" lon="10.0480966"><ele>321.0</ele><time>2026-04-18T15:46:56.811Z</time></trkpt><trkpt lat="45.8062938" lon="10.0479338"><ele>321.0</ele><time>2026-04-18T15:46:58.811Z</time></trkpt><trkpt lat="45.8061788" lon="10.047888"><ele>321.0</ele><time>2026-04-18T15:47:00.81Z</time></trkpt><trkpt lat="45.8060998" lon="10.0478829"><ele>321.0</ele><time>2026-04-18T15:47:01.812Z</time></trkpt><trkpt lat="45.806013" lon="10.0478739"><ele>321.0</ele><time>2026-04-18T15:47:02.811Z</time></trkpt><trkpt lat="45.8059318" lon="10.047875"><ele>321.0</ele><time>2026-04-18T15:47:03.811Z</time></trkpt><trkpt lat="45.8058557" lon="10.0478856"><ele>321.0</ele><time>2026-04-18T15:47:04.811Z</time></trkpt><trkpt lat="45.8057924" lon="10.0479144"><ele>316.3333333333333</ele><time>2026-04-18T15:47:05.811Z</time></trkpt><trkpt lat="45.8056713" lon="10.047909"><ele>311.6666666666667</ele><time>2026-04-18T15:47:07.81Z</time></trkpt><trkpt lat="45.8056164" lon="10.0478611"><ele>307.0</ele><time>2026-04-18T15:47:08.811Z</time></trkpt><trkpt lat="45.8055693" lon="10.0477925"><ele>302.33333333333337</ele><time>2026-04-18T15:47:09.811Z</time></trkpt><trkpt lat="45.8055371" lon="10.047707"><ele>297.6666666666667</ele><time>2026-04-18T15:47:10.811Z</time></trkpt><trkpt lat="45.80551" lon="10.0475764"><ele>293.0</ele><time>2026-04-18T15:47:11.811Z</time></trkpt><trkpt lat="45.8054865" lon="10.0474155"><ele>293.0</ele><time>2026-04-18T15:47:12.81Z</time></trkpt><trkpt lat="45.8054578" lon="10.0472304"><ele>293.0</ele><time>2026-04-18T15:47:13.812Z</time></trkpt><trkpt lat="45.8054337" lon="10.0470615"><ele>293.0</ele><time>2026-04-18T15:47:14.812Z</time></trkpt><trkpt lat="45.8054151" lon="10.0469201"><ele>293.0</ele><time>2026-04-18T15:47:15.812Z</time></trkpt><trkpt lat="45.805408" lon="10.0468249"><ele>293.0</ele><time>2026-04-18T15:47:16.81Z</time></trkpt><trkpt lat="45.8053992" lon="10.0466994"><ele>292.83333333333337</ele><time>2026-04-18T15:47:18.811Z</time></trkpt><trkpt lat="45.8053846" lon="10.0465657"><ele>292.6666666666667</ele><time>2026-04-18T15:47:22.812Z</time></trkpt><trkpt lat="45.8053833" lon="10.0464738"><ele>292.5</ele><time>2026-04-18T15:47:24.81Z</time></trkpt><trkpt lat="45.8053896" lon="10.0463422"><ele>292.3333333333333</ele><time>2026-04-18T15:47:27.811Z</time></trkpt><trkpt lat="45.8053777" lon="10.0462394"><ele>292.16666666666663</ele><time>2026-04-18T15:47:29.813Z</time></trkpt><trkpt lat="45.8053586" lon="10.0460696"><ele>292.0</ele><time>2026-04-18T15:47:31.811Z</time></trkpt><trkpt lat="45.8053571" lon="10.0459755"><ele>292.0</ele><time>2026-04-18T15:47:32.812Z</time></trkpt><trkpt lat="45.80536" lon="10.045866"><ele>292.0</ele><time>2026-04-18T15:47:33.813Z</time></trkpt><trkpt lat="45.8053705" lon="10.0457541"><ele>292.0</ele><time>2026-04-18T15:47:34.812Z</time></trkpt><trkpt lat="45.8053769" lon="10.0456551"><ele>292.0</ele><time>2026-04-18T15:47:35.81Z</time></trkpt><trkpt lat="45.8053865" lon="10.045564"><ele>292.0</ele><time>2026-04-18T15:47:36.811Z</time></trkpt><trkpt lat="45.8053986" lon="10.0453958"><ele>292.0</ele><time>2026-04-18T15:47:38.811Z</time></trkpt><trkpt lat="45.8054128" lon="10.0452547"><ele>292.0</ele><time>2026-04-18T15:47:40.811Z</time></trkpt><trkpt lat="45.8054286" lon="10.0451559"><ele>292.0</ele><time>2026-04-18T15:47:44.812Z</time></trkpt><trkpt lat="45.805407" lon="10.0450283"><ele>292.0</ele><time>2026-04-18T15:47:49.812Z</time></trkpt><trkpt lat="45.8053829" lon="10.0448584"><ele>292.0</ele><time>2026-04-18T15:47:51.81Z</time></trkpt><trkpt lat="45.8054005" lon="10.0446985"><ele>292.0</ele><time>2026-04-18T15:47:53.811Z</time></trkpt><trkpt lat="45.8054396" lon="10.0446133"><ele>292.66666666666663</ele><time>2026-04-18T15:47:54.812Z</time></trkpt><trkpt lat="45.8054897" lon="10.0445345"><ele>293.3333333333333</ele><time>2026-04-18T15:47:55.811Z</time></trkpt><trkpt lat="45.805545" lon="10.0444556"><ele>294.0</ele><time>2026-04-18T15:47:56.811Z</time></trkpt><trkpt lat="45.8056259" lon="10.0443732"><ele>294.6666666666667</ele><time>2026-04-18T15:47:57.812Z</time></trkpt><trkpt lat="45.8057095" lon="10.0442972"><ele>295.33333333333337</ele><time>2026-04-18T15:47:58.81Z</time></trkpt><trkpt lat="45.8057892" lon="10.0442188"><ele>296.0</ele><time>2026-04-18T15:47:59.811Z</time></trkpt><trkpt lat="45.805863" lon="10.044138"><ele>295.0</ele><time>2026-04-18T15:48:00.811Z</time></trkpt><trkpt lat="45.8059261" lon="10.0440336"><ele>294.0</ele><time>2026-04-18T15:48:01.811Z</time></trkpt><trkpt lat="45.8059729" lon="10.0439219"><ele>293.0</ele><time>2026-04-18T15:48:02.812Z</time></trkpt><trkpt lat="45.806012" lon="10.0437939"><ele>292.0</ele><time>2026-04-18T15:48:03.813Z</time></trkpt><trkpt lat="45.8060466" lon="10.0436458"><ele>291.0</ele><time>2026-04-18T15:48:04.813Z</time></trkpt><trkpt lat="45.8060672" lon="10.0434583"><ele>291.40000000000003</ele><time>2026-04-18T15:48:05.811Z</time></trkpt><trkpt lat="45.8060806" lon="10.0432681"><ele>291.8</ele><time>2026-04-18T15:48:06.811Z</time></trkpt><trkpt lat="45.8061049" lon="10.0431121"><ele>292.20000000000005</ele><time>2026-04-18T15:48:07.811Z</time></trkpt><trkpt lat="45.8061354" lon="10.0429824"><ele>292.6</ele><time>2026-04-18T15:48:08.812Z</time></trkpt><trkpt lat="45.8061771" lon="10.0428777"><ele>293.0</ele><time>2026-04-18T15:48:09.811Z</time></trkpt><trkpt lat="45.8062284" lon="10.0427812"><ele>293.0</ele><time>2026-04-18T15:48:10.811Z</time></trkpt><trkpt lat="45.8062774" lon="10.0426886"><ele>293.0</ele><time>2026-04-18T15:48:11.812Z</time></trkpt><trkpt lat="45.8063155" lon="10.0426029"><ele>293.0</ele><time>2026-04-18T15:48:12.811Z</time></trkpt><trkpt lat="45.8063676" lon="10.0424507"><ele>293.0</ele><time>2026-04-18T15:48:14.812Z</time></trkpt><trkpt lat="45.8064202" lon="10.0423045"><ele>293.0</ele><time>2026-04-18T15:48:16.81Z</time></trkpt><trkpt lat="45.8064698" lon="10.0421599"><ele>292.83333333333337</ele><time>2026-04-18T15:48:18.811Z</time></trkpt><trkpt lat="45.8065266" lon="10.0420313"><ele>292.6666666666667</ele><time>2026-04-18T15:48:20.812Z</time></trkpt><trkpt lat="45.8065691" lon="10.0419548"><ele>292.5</ele><time>2026-04-18T15:48:21.812Z</time></trkpt><trkpt lat="45.8066213" lon="10.0418738"><ele>292.3333333333333</ele><time>2026-04-18T15:48:22.811Z</time></trkpt><trkpt lat="45.806686" lon="10.0418052"><ele>292.16666666666663</ele><time>2026-04-18T15:48:23.811Z</time></trkpt><trkpt lat="45.8067697" lon="10.0417376"><ele>292.0</ele><time>2026-04-18T15:48:24.812Z</time></trkpt><trkpt lat="45.8068555" lon="10.0416687"><ele>291.8</ele><time>2026-04-18T15:48:25.811Z</time></trkpt><trkpt lat="45.806945" lon="10.0415949"><ele>291.6</ele><time>2026-04-18T15:48:26.81Z</time></trkpt><trkpt lat="45.8070283" lon="10.0415056"><ele>291.40000000000003</ele><time>2026-04-18T15:48:27.811Z</time></trkpt><trkpt lat="45.8071138" lon="10.0414275"><ele>291.2</ele><time>2026-04-18T15:48:28.811Z</time></trkpt><trkpt lat="45.8071957" lon="10.0413477"><ele>291.0</ele><time>2026-04-18T15:48:29.812Z</time></trkpt><trkpt lat="45.8072896" lon="10.0413074"><ele>291.0</ele><time>2026-04-18T15:48:30.811Z</time></trkpt><trkpt lat="45.8073885" lon="10.0413"><ele>291.0</ele><time>2026-04-18T15:48:31.812Z</time></trkpt><trkpt lat="45.807505" lon="10.0413471"><ele>291.0</ele><time>2026-04-18T15:48:32.81Z</time></trkpt><trkpt lat="45.8076176" lon="10.0413605"><ele>291.0</ele><time>2026-04-18T15:48:33.812Z</time></trkpt><trkpt lat="45.8077158" lon="10.041342"><ele>291.0</ele><time>2026-04-18T15:48:34.812Z</time></trkpt><trkpt lat="45.8078123" lon="10.0412958"><ele>291.8333333333333</ele><time>2026-04-18T15:48:35.812Z</time></trkpt><trkpt lat="45.8078766" lon="10.0412355"><ele>292.6666666666667</ele><time>2026-04-18T15:48:36.812Z</time></trkpt><trkpt lat="45.8079482" lon="10.0411791"><ele>293.5</ele><time>2026-04-18T15:48:37.812Z</time></trkpt><trkpt lat="45.8080141" lon="10.0411393"><ele>294.33333333333337</ele><time>2026-04-18T15:48:38.81Z</time></trkpt><trkpt lat="45.8080838" lon="10.041132"><ele>295.1666666666667</ele><time>2026-04-18T15:48:39.81Z</time></trkpt><trkpt lat="45.8081681" lon="10.0411653"><ele>296.0</ele><time>2026-04-18T15:48:40.813Z</time></trkpt><trkpt lat="45.8082695" lon="10.041229"><ele>296.0</ele><time>2026-04-18T15:48:41.812Z</time></trkpt><trkpt lat="45.8083682" lon="10.0412895"><ele>296.0</ele><time>2026-04-18T15:48:42.811Z</time></trkpt><trkpt lat="45.8084801" lon="10.0413514"><ele>296.0</ele><time>2026-04-18T15:48:43.812Z</time></trkpt><trkpt lat="45.8085862" lon="10.0414172"><ele>296.0</ele><time>2026-04-18T15:48:44.812Z</time></trkpt><trkpt lat="45.8086953" lon="10.0414729"><ele>296.5</ele><time>2026-04-18T15:48:45.812Z</time></trkpt><trkpt lat="45.808812" lon="10.0415222"><ele>297.0</ele><time>2026-04-18T15:48:46.81Z</time></trkpt><trkpt lat="45.8089247" lon="10.0415653"><ele>297.5</ele><time>2026-04-18T15:48:47.812Z</time></trkpt><trkpt lat="45.809036" lon="10.0415981"><ele>298.0</ele><time>2026-04-18T15:48:48.812Z</time></trkpt><trkpt lat="45.8091471" lon="10.0416214"><ele>297.2</ele><time>2026-04-18T15:48:49.811Z</time></trkpt><trkpt lat="45.8092538" lon="10.0416456"><ele>296.4</ele><time>2026-04-18T15:48:50.811Z</time></trkpt><trkpt lat="45.809361" lon="10.041666"><ele>295.59999999999997</ele><time>2026-04-18T15:48:51.811Z</time></trkpt><trkpt lat="45.8094628" lon="10.0416951"><ele>294.8</ele><time>2026-04-18T15:48:52.812Z</time></trkpt><trkpt lat="45.8095552" lon="10.04172"><ele>294.0</ele><time>2026-04-18T15:48:53.812Z</time></trkpt><trkpt lat="45.8096425" lon="10.0417238"><ele>295.5</ele><time>2026-04-18T15:48:54.812Z</time></trkpt><trkpt lat="45.8097042" lon="10.0416786"><ele>297.0</ele><time>2026-04-18T15:48:55.812Z</time></trkpt><trkpt lat="45.8097411" lon="10.0416035"><ele>298.5</ele><time>2026-04-18T15:48:56.811Z</time></trkpt><trkpt lat="45.8097513" lon="10.0415025"><ele>300.0</ele><time>2026-04-18T15:48:57.811Z</time></trkpt><trkpt lat="45.8097511" lon="10.0413855"><ele>301.5</ele><time>2026-04-18T15:48:58.81Z</time></trkpt><trkpt lat="45.8097471" lon="10.0412674"><ele>303.0</ele><time>2026-04-18T15:48:59.811Z</time></trkpt><trkpt lat="45.8097512" lon="10.0411464"><ele>303.0</ele><time>2026-04-18T15:49:00.81Z</time></trkpt><trkpt lat="45.809754" lon="10.0410295"><ele>303.0</ele><time>2026-04-18T15:49:01.812Z</time></trkpt><trkpt lat="45.8097539" lon="10.0409144"><ele>303.0</ele><time>2026-04-18T15:49:02.811Z</time></trkpt><trkpt lat="45.8097556" lon="10.0408163"><ele>303.0</ele><time>2026-04-18T15:49:03.811Z</time></trkpt><trkpt lat="45.8097764" lon="10.0406852"><ele>303.0</ele><time>2026-04-18T15:49:05.812Z</time></trkpt><trkpt lat="45.8098775" lon="10.0406247"><ele>303.0</ele><time>2026-04-18T15:49:07.812Z</time></trkpt><trkpt lat="45.8099878" lon="10.0406118"><ele>305.0</ele><time>2026-04-18T15:49:09.811Z</time></trkpt><trkpt lat="45.8101051" lon="10.0405986"><ele>307.0</ele><time>2026-04-18T15:49:11.811Z</time></trkpt><trkpt lat="45.8102285" lon="10.0405965"><ele>309.0</ele><time>2026-04-18T15:49:13.81Z</time></trkpt><trkpt lat="45.8103462" lon="10.0405793"><ele>311.0</ele><time>2026-04-18T15:49:15.811Z</time></trkpt><trkpt lat="45.8104382" lon="10.0405603"><ele>313.0</ele><time>2026-04-18T15:49:17.811Z</time></trkpt><trkpt lat="45.8105017" lon="10.040449"><ele>315.0</ele><time>2026-04-18T15:49:20.811Z</time></trkpt><trkpt lat="45.81049" lon="10.0403115"><ele>317.0</ele><time>2026-04-18T15:49:22.811Z</time></trkpt><trkpt lat="45.8105037" lon="10.0401609"><ele>319.0</ele><time>2026-04-18T15:49:24.81Z</time></trkpt><trkpt lat="45.8106084" lon="10.0400991"><ele>321.0</ele><time>2026-04-18T15:49:26.812Z</time></trkpt><trkpt lat="45.810721" lon="10.040073"><ele>321.0</ele><time>2026-04-18T15:49:28.812Z</time></trkpt><trkpt lat="45.8108343" lon="10.0400618"><ele>321.0</ele><time>2026-04-18T15:49:30.812Z</time></trkpt><trkpt lat="45.8108985" lon="10.0400609"><ele>321.0</ele><time>2026-04-18T15:49:31.812Z</time></trkpt><trkpt lat="45.8110198" lon="10.0400496"><ele>321.0</ele><time>2026-04-18T15:49:33.811Z</time></trkpt><trkpt lat="45.8110863" lon="10.0400491"><ele>321.0</ele><time>2026-04-18T15:49:34.811Z</time></trkpt><trkpt lat="45.8111508" lon="10.0400501"><ele>321.0</ele><time>2026-04-18T15:49:35.812Z</time></trkpt><trkpt lat="45.8112185" lon="10.0400296"><ele>322.4</ele><time>2026-04-18T15:49:36.812Z</time></trkpt><trkpt lat="45.8113392" lon="10.0400145"><ele>323.8</ele><time>2026-04-18T15:49:38.812Z</time></trkpt><trkpt lat="45.8114728" lon="10.0400092"><ele>325.2</ele><time>2026-04-18T15:49:40.812Z</time></trkpt><trkpt lat="45.8115412" lon="10.0400108"><ele>326.59999999999997</ele><time>2026-04-18T15:49:41.811Z</time></trkpt><trkpt lat="45.811626" lon="10.039988"><ele>328.0</ele><time>2026-04-18T15:49:43.81Z</time></trkpt><trkpt lat="45.8117063" lon="10.0399247"><ele>328.59999999999997</ele><time>2026-04-18T15:49:46.811Z</time></trkpt><trkpt lat="45.8117131" lon="10.0397819"><ele>329.2</ele><time>2026-04-18T15:49:48.81Z</time></trkpt><trkpt lat="45.81167" lon="10.0396124"><ele>329.8</ele><time>2026-04-18T15:49:50.811Z</time></trkpt><trkpt lat="45.8116379" lon="10.0395261"><ele>330.4</ele><time>2026-04-18T15:49:51.812Z</time></trkpt><trkpt lat="45.8116011" lon="10.0394239"><ele>331.0</ele><time>2026-04-18T15:49:52.812Z</time></trkpt><trkpt lat="45.8115614" lon="10.039323"><ele>331.0</ele><time>2026-04-18T15:49:53.811Z</time></trkpt><trkpt lat="45.8115053" lon="10.0392186"><ele>331.0</ele><time>2026-04-18T15:49:54.81Z</time></trkpt><trkpt lat="45.8114381" lon="10.0391148"><ele>331.0</ele><time>2026-04-18T15:49:55.811Z</time></trkpt><trkpt lat="45.8113689" lon="10.039018"><ele>331.0</ele><time>2026-04-18T15:49:56.813Z</time></trkpt><trkpt lat="45.8112672" lon="10.0389473"><ele>331.0</ele><time>2026-04-18T15:49:57.811Z</time></trkpt><trkpt lat="45.8111663" lon="10.038895"><ele>333.4</ele><time>2026-04-18T15:49:58.812Z</time></trkpt><trkpt lat="45.811063" lon="10.0388528"><ele>335.8</ele><time>2026-04-18T15:49:59.811Z</time></trkpt><trkpt lat="45.8109568" lon="10.0388072"><ele>338.2</ele><time>2026-04-18T15:50:00.811Z</time></trkpt><trkpt lat="45.8108525" lon="10.0387588"><ele>340.59999999999997</ele><time>2026-04-18T15:50:01.812Z</time></trkpt><trkpt lat="45.8107399" lon="10.0387101"><ele>343.0</ele><time>2026-04-18T15:50:02.812Z</time></trkpt><trkpt lat="45.8106312" lon="10.0386661"><ele>343.2</ele><time>2026-04-18T15:50:03.811Z</time></trkpt><trkpt lat="45.8105227" lon="10.0386277"><ele>343.4</ele><time>2026-04-18T15:50:04.812Z</time></trkpt><trkpt lat="45.8104166" lon="10.0385937"><ele>343.59999999999997</ele><time>2026-04-18T15:50:05.812Z</time></trkpt><trkpt lat="45.8103223" lon="10.0385683"><ele>343.79999999999995</ele><time>2026-04-18T15:50:06.812Z</time></trkpt><trkpt lat="45.8102276" lon="10.038547"><ele>344.0</ele><time>2026-04-18T15:50:07.812Z</time></trkpt><trkpt lat="45.8101486" lon="10.0385078"><ele>344.1666666666667</ele><time>2026-04-18T15:50:08.812Z</time></trkpt><trkpt lat="45.8100848" lon="10.0384403"><ele>344.33333333333337</ele><time>2026-04-18T15:50:09.81Z</time></trkpt><trkpt lat="45.8100284" lon="10.0383665"><ele>344.5</ele><time>2026-04-18T15:50:10.81Z</time></trkpt><trkpt lat="45.8099983" lon="10.0382612"><ele>344.6666666666667</ele><time>2026-04-18T15:50:11.812Z</time></trkpt><trkpt lat="45.8099861" lon="10.0381182"><ele>344.8333333333333</ele><time>2026-04-18T15:50:12.811Z</time></trkpt><trkpt lat="45.8099665" lon="10.037989"><ele>345.0</ele><time>2026-04-18T15:50:13.812Z</time></trkpt><trkpt lat="45.8099382" lon="10.0378411"><ele>345.0</ele><time>2026-04-18T15:50:14.811Z</time></trkpt><trkpt lat="45.8099038" lon="10.0376991"><ele>345.0</ele><time>2026-04-18T15:50:15.81Z</time></trkpt><trkpt lat="45.8098685" lon="10.0375576"><ele>345.0</ele><time>2026-04-18T15:50:16.812Z</time></trkpt><trkpt lat="45.8098456" lon="10.0374091"><ele>345.0</ele><time>2026-04-18T15:50:17.81Z</time></trkpt><trkpt lat="45.8098178" lon="10.037256"><ele>345.0</ele><time>2026-04-18T15:50:18.81Z</time></trkpt><trkpt lat="45.8097996" lon="10.0370962"><ele>345.25</ele><time>2026-04-18T15:50:19.812Z</time></trkpt><trkpt lat="45.8097919" lon="10.036922"><ele>345.5</ele><time>2026-04-18T15:50:20.811Z</time></trkpt><trkpt lat="45.8097836" lon="10.0367625"><ele>345.75</ele><time>2026-04-18T15:50:21.81Z</time></trkpt><trkpt lat="45.8097804" lon="10.0365938"><ele>346.0</ele><time>2026-04-18T15:50:22.811Z</time></trkpt><trkpt lat="45.8097625" lon="10.0364234"><ele>346.0</ele><time>2026-04-18T15:50:23.81Z</time></trkpt><trkpt lat="45.809747" lon="10.0362544"><ele>346.0</ele><time>2026-04-18T15:50:24.812Z</time></trkpt><trkpt lat="45.8097213" lon="10.0360858"><ele>346.0</ele><time>2026-04-18T15:50:25.812Z</time></trkpt><trkpt lat="45.8096979" lon="10.0359124"><ele>346.0</ele><time>2026-04-18T15:50:26.811Z</time></trkpt><trkpt lat="45.8096586" lon="10.0357517"><ele>346.0</ele><time>2026-04-18T15:50:27.811Z</time></trkpt><trkpt lat="45.8096284" lon="10.0356054"><ele>346.0</ele><time>2026-04-18T15:50:28.812Z</time></trkpt><trkpt lat="45.8095982" lon="10.035456"><ele>346.0</ele><time>2026-04-18T15:50:29.812Z</time></trkpt><trkpt lat="45.8095667" lon="10.0353127"><ele>346.0</ele><time>2026-04-18T15:50:30.811Z</time></trkpt><trkpt lat="45.8095395" lon="10.0351852"><ele>346.0</ele><time>2026-04-18T15:50:31.811Z</time></trkpt><trkpt lat="45.8094852" lon="10.035067"><ele>345.66666666666663</ele><time>2026-04-18T15:50:32.811Z</time></trkpt><trkpt lat="45.8094347" lon="10.034947"><ele>345.3333333333333</ele><time>2026-04-18T15:50:33.81Z</time></trkpt><trkpt lat="45.809376" lon="10.034838"><ele>345.0</ele><time>2026-04-18T15:50:34.813Z</time></trkpt><trkpt lat="45.8093318" lon="10.0347197"><ele>344.6666666666667</ele><time>2026-04-18T15:50:35.811Z</time></trkpt><trkpt lat="45.8092958" lon="10.0346116"><ele>344.33333333333337</ele><time>2026-04-18T15:50:36.812Z</time></trkpt><trkpt lat="45.8092692" lon="10.0345102"><ele>344.0</ele><time>2026-04-18T15:50:37.812Z</time></trkpt><trkpt lat="45.8092491" lon="10.0344215"><ele>344.0</ele><time>2026-04-18T15:50:38.811Z</time></trkpt><trkpt lat="45.8092224" lon="10.0342898"><ele>344.0</ele><time>2026-04-18T15:50:40.81Z</time></trkpt><trkpt lat="45.8091884" lon="10.0341416"><ele>344.0</ele><time>2026-04-18T15:50:42.812Z</time></trkpt><trkpt lat="45.8091927" lon="10.0340455"><ele>344.0</ele><time>2026-04-18T15:50:43.812Z</time></trkpt><trkpt lat="45.809195" lon="10.0339383"><ele>344.0</ele><time>2026-04-18T15:50:44.81Z</time></trkpt><trkpt lat="45.80919" lon="10.0338138"><ele>344.0</ele><time>2026-04-18T15:50:45.812Z</time></trkpt><trkpt lat="45.8091801" lon="10.0336633"><ele>343.25</ele><time>2026-04-18T15:50:46.811Z</time></trkpt><trkpt lat="45.8091638" lon="10.0335071"><ele>342.5</ele><time>2026-04-18T15:50:47.811Z</time></trkpt><trkpt lat="45.809147" lon="10.0333474"><ele>341.75</ele><time>2026-04-18T15:50:48.812Z</time></trkpt><trkpt lat="45.809121" lon="10.033178"><ele>341.0</ele><time>2026-04-18T15:50:49.812Z</time></trkpt><trkpt lat="45.8090879" lon="10.0330071"><ele>341.0</ele><time>2026-04-18T15:50:50.811Z</time></trkpt><trkpt lat="45.8090419" lon="10.0328354"><ele>341.0</ele><time>2026-04-18T15:50:51.811Z</time></trkpt><trkpt lat="45.8089893" lon="10.0326635"><ele>341.0</ele><time>2026-04-18T15:50:52.812Z</time></trkpt><trkpt lat="45.8089196" lon="10.0324958"><ele>341.0</ele><time>2026-04-18T15:50:53.81Z</time></trkpt><trkpt lat="45.8088462" lon="10.0323311"><ele>341.25</ele><time>2026-04-18T15:50:54.811Z</time></trkpt><trkpt lat="45.8087753" lon="10.0321644"><ele>341.5</ele><time>2026-04-18T15:50:55.81Z</time></trkpt><trkpt lat="45.8086921" lon="10.0320077"><ele>341.75</ele><time>2026-04-18T15:50:56.811Z</time></trkpt><trkpt lat="45.808614" lon="10.0318448"><ele>342.0</ele><time>2026-04-18T15:50:57.811Z</time></trkpt><trkpt lat="45.8085467" lon="10.0316794"><ele>342.25</ele><time>2026-04-18T15:50:58.811Z</time></trkpt><trkpt lat="45.8084863" lon="10.0314973"><ele>342.5</ele><time>2026-04-18T15:50:59.812Z</time></trkpt><trkpt lat="45.808437" lon="10.0313091"><ele>342.75</ele><time>2026-04-18T15:51:00.812Z</time></trkpt><trkpt lat="45.8084009" lon="10.0311128"><ele>343.0</ele><time>2026-04-18T15:51:01.811Z</time></trkpt><trkpt lat="45.8083799" lon="10.0309046"><ele>344.3333333333333</ele><time>2026-04-18T15:51:02.813Z</time></trkpt><trkpt lat="45.8083568" lon="10.0306978"><ele>345.6666666666667</ele><time>2026-04-18T15:51:03.81Z</time></trkpt><trkpt lat="45.8083363" lon="10.0304806"><ele>347.0</ele><time>2026-04-18T15:51:04.811Z</time></trkpt><trkpt lat="45.8083173" lon="10.0302642"><ele>347.0</ele><time>2026-04-18T15:51:05.81Z</time></trkpt><trkpt lat="45.8082965" lon="10.0300545"><ele>347.0</ele><time>2026-04-18T15:51:06.81Z</time></trkpt><trkpt lat="45.8082803" lon="10.0298472"><ele>347.0</ele><time>2026-04-18T15:51:07.812Z</time></trkpt><trkpt lat="45.8082605" lon="10.0296417"><ele>347.0</ele><time>2026-04-18T15:51:08.812Z</time></trkpt><trkpt lat="45.8082421" lon="10.0294353"><ele>347.25</ele><time>2026-04-18T15:51:09.811Z</time></trkpt><trkpt lat="45.8082271" lon="10.0292222"><ele>347.5</ele><time>2026-04-18T15:51:10.812Z</time></trkpt><trkpt lat="45.8082062" lon="10.0290175"><ele>347.75</ele><time>2026-04-18T15:51:11.812Z</time></trkpt><trkpt lat="45.8081813" lon="10.0288121"><ele>348.0</ele><time>2026-04-18T15:51:12.81Z</time></trkpt><trkpt lat="45.8081278" lon="10.0286184"><ele>348.0</ele><time>2026-04-18T15:51:13.811Z</time></trkpt><trkpt lat="45.808074" lon="10.0284212"><ele>348.0</ele><time>2026-04-18T15:51:14.811Z</time></trkpt><trkpt lat="45.8080059" lon="10.0282319"><ele>348.0</ele><time>2026-04-18T15:51:15.812Z</time></trkpt><trkpt lat="45.8079255" lon="10.0280589"><ele>348.0</ele><time>2026-04-18T15:51:16.812Z</time></trkpt><trkpt lat="45.8078351" lon="10.0278942"><ele>347.75</ele><time>2026-04-18T15:51:17.81Z</time></trkpt><trkpt lat="45.8077305" lon="10.0277558"><ele>347.5</ele><time>2026-04-18T15:51:18.811Z</time></trkpt><trkpt lat="45.8076241" lon="10.0276232"><ele>347.25</ele><time>2026-04-18T15:51:19.811Z</time></trkpt><trkpt lat="45.8075135" lon="10.0274958"><ele>347.0</ele><time>2026-04-18T15:51:20.81Z</time></trkpt><trkpt lat="45.8073977" lon="10.0273716"><ele>346.25</ele><time>2026-04-18T15:51:21.81Z</time></trkpt><trkpt lat="45.8072828" lon="10.0272368"><ele>345.5</ele><time>2026-04-18T15:51:22.81Z</time></trkpt><trkpt lat="45.8071761" lon="10.0270844"><ele>344.75</ele><time>2026-04-18T15:51:23.81Z</time></trkpt><trkpt lat="45.8070802" lon="10.0269187"><ele>344.0</ele><time>2026-04-18T15:51:24.81Z</time></trkpt><trkpt lat="45.8069889" lon="10.0267424"><ele>343.33333333333337</ele><time>2026-04-18T15:51:25.812Z</time></trkpt><trkpt lat="45.806896" lon="10.0265638"><ele>342.6666666666667</ele><time>2026-04-18T15:51:26.812Z</time></trkpt><trkpt lat="45.8068062" lon="10.0263836"><ele>342.0</ele><time>2026-04-18T15:51:27.812Z</time></trkpt><trkpt lat="45.8067195" lon="10.0261979"><ele>342.3333333333333</ele><time>2026-04-18T15:51:28.81Z</time></trkpt><trkpt lat="45.806629" lon="10.0260121"><ele>342.66666666666663</ele><time>2026-04-18T15:51:29.81Z</time></trkpt><trkpt lat="45.8065418" lon="10.0258274"><ele>343.0</ele><time>2026-04-18T15:51:30.81Z</time></trkpt><trkpt lat="45.8064588" lon="10.0256348"><ele>343.0</ele><time>2026-04-18T15:51:31.812Z</time></trkpt><trkpt lat="45.8063756" lon="10.0254494"><ele>343.0</ele><time>2026-04-18T15:51:32.813Z</time></trkpt><trkpt lat="45.8062866" lon="10.0252623"><ele>343.0</ele><time>2026-04-18T15:51:33.812Z</time></trkpt><trkpt lat="45.8061961" lon="10.0250851"><ele>343.0</ele><time>2026-04-18T15:51:34.811Z</time></trkpt><trkpt lat="45.806099" lon="10.0249223"><ele>343.0</ele><time>2026-04-18T15:51:35.812Z</time></trkpt><trkpt lat="45.8059955" lon="10.0247711"><ele>343.0</ele><time>2026-04-18T15:51:36.811Z</time></trkpt><trkpt lat="45.8058848" lon="10.0246252"><ele>343.0</ele><time>2026-04-18T15:51:37.81Z</time></trkpt><trkpt lat="45.8057753" lon="10.0244881"><ele>343.25</ele><time>2026-04-18T15:51:38.811Z</time></trkpt><trkpt lat="45.8056543" lon="10.0243537"><ele>343.5</ele><time>2026-04-18T15:51:39.811Z</time></trkpt><trkpt lat="45.805539" lon="10.0242208"><ele>343.75</ele><time>2026-04-18T15:51:40.81Z</time></trkpt><trkpt lat="45.8054205" lon="10.0240983"><ele>344.0</ele><time>2026-04-18T15:51:41.811Z</time></trkpt><trkpt lat="45.8052978" lon="10.023994"><ele>344.0</ele><time>2026-04-18T15:51:42.812Z</time></trkpt><trkpt lat="45.8051775" lon="10.0238939"><ele>344.0</ele><time>2026-04-18T15:51:43.81Z</time></trkpt><trkpt lat="45.8050642" lon="10.0237858"><ele>344.0</ele><time>2026-04-18T15:51:44.811Z</time></trkpt><trkpt lat="45.8049499" lon="10.0236712"><ele>344.0</ele><time>2026-04-18T15:51:45.81Z</time></trkpt><trkpt lat="45.8048398" lon="10.02355"><ele>344.25</ele><time>2026-04-18T15:51:46.811Z</time></trkpt><trkpt lat="45.8047366" lon="10.023415"><ele>344.5</ele><time>2026-04-18T15:51:47.81Z</time></trkpt><trkpt lat="45.8046385" lon="10.0232684"><ele>344.75</ele><time>2026-04-18T15:51:48.811Z</time></trkpt><trkpt lat="45.8045376" lon="10.0231225"><ele>345.0</ele><time>2026-04-18T15:51:49.81Z</time></trkpt><trkpt lat="45.8044423" lon="10.0229608"><ele>345.0</ele><time>2026-04-18T15:51:50.811Z</time></trkpt><trkpt lat="45.8043522" lon="10.0228004"><ele>345.0</ele><time>2026-04-18T15:51:51.811Z</time></trkpt><trkpt lat="45.8042572" lon="10.022647"><ele>345.0</ele><time>2026-04-18T15:51:52.81Z</time></trkpt><trkpt lat="45.8041716" lon="10.0224859"><ele>345.0</ele><time>2026-04-18T15:51:53.812Z</time></trkpt><trkpt lat="45.804085" lon="10.022325"><ele>344.75</ele><time>2026-04-18T15:51:54.811Z</time></trkpt><trkpt lat="45.8039958" lon="10.022164"><ele>344.5</ele><time>2026-04-18T15:51:55.81Z</time></trkpt><trkpt lat="45.8039021" lon="10.0220052"><ele>344.25</ele><time>2026-04-18T15:51:56.813Z</time></trkpt><trkpt lat="45.8037983" lon="10.0218481"><ele>344.0</ele><time>2026-04-18T15:51:57.811Z</time></trkpt><trkpt lat="45.8036939" lon="10.0217052"><ele>344.0</ele><time>2026-04-18T15:51:58.81Z</time></trkpt><trkpt lat="45.8035854" lon="10.0215768"><ele>344.0</ele><time>2026-04-18T15:51:59.812Z</time></trkpt><trkpt lat="45.8034621" lon="10.0214585"><ele>344.0</ele><time>2026-04-18T15:52:00.811Z</time></trkpt><trkpt lat="45.8033417" lon="10.0213491"><ele>344.0</ele><time>2026-04-18T15:52:01.81Z</time></trkpt><trkpt lat="45.8032108" lon="10.0212481"><ele>344.33333333333337</ele><time>2026-04-18T15:52:02.812Z</time></trkpt><trkpt lat="45.8030751" lon="10.0211458"><ele>344.6666666666667</ele><time>2026-04-18T15:52:03.811Z</time></trkpt><trkpt lat="45.8029398" lon="10.0210546"><ele>345.0</ele><time>2026-04-18T15:52:04.811Z</time></trkpt><trkpt lat="45.8027979" lon="10.0209701"><ele>345.0</ele><time>2026-04-18T15:52:05.812Z</time></trkpt><trkpt lat="45.8026512" lon="10.0208982"><ele>345.0</ele><time>2026-04-18T15:52:06.811Z</time></trkpt><trkpt lat="45.8025121" lon="10.0208153"><ele>345.0</ele><time>2026-04-18T15:52:07.811Z</time></trkpt><trkpt lat="45.8023715" lon="10.0207367"><ele>345.0</ele><time>2026-04-18T15:52:08.81Z</time></trkpt><trkpt lat="45.802231" lon="10.0206635"><ele>345.0</ele><time>2026-04-18T15:52:09.811Z</time></trkpt><trkpt lat="45.8020934" lon="10.0205853"><ele>345.0</ele><time>2026-04-18T15:52:10.81Z</time></trkpt><trkpt lat="45.8019493" lon="10.0205003"><ele>345.0</ele><time>2026-04-18T15:52:11.81Z</time></trkpt><trkpt lat="45.8018069" lon="10.020418"><ele>345.0</ele><time>2026-04-18T15:52:12.81Z</time></trkpt><trkpt lat="45.8016693" lon="10.0203433"><ele>345.0</ele><time>2026-04-18T15:52:13.812Z</time></trkpt><trkpt lat="45.8015378" lon="10.020266"><ele>345.0</ele><time>2026-04-18T15:52:14.811Z</time></trkpt><trkpt lat="45.8014056" lon="10.0201833"><ele>345.0</ele><time>2026-04-18T15:52:15.811Z</time></trkpt><trkpt lat="45.8012884" lon="10.0200806"><ele>345.0</ele><time>2026-04-18T15:52:16.812Z</time></trkpt><trkpt lat="45.8011815" lon="10.0199557"><ele>345.0</ele><time>2026-04-18T15:52:17.812Z</time></trkpt><trkpt lat="45.8010845" lon="10.0198126"><ele>345.0</ele><time>2026-04-18T15:52:18.81Z</time></trkpt><trkpt lat="45.8010025" lon="10.019663"><ele>344.25</ele><time>2026-04-18T15:52:19.811Z</time></trkpt><trkpt lat="45.8009389" lon="10.0194919"><ele>343.5</ele><time>2026-04-18T15:52:20.813Z</time></trkpt><trkpt lat="45.8008845" lon="10.0193249"><ele>342.75</ele><time>2026-04-18T15:52:21.811Z</time></trkpt><trkpt lat="45.8008525" lon="10.0191527"><ele>342.0</ele><time>2026-04-18T15:52:22.811Z</time></trkpt><trkpt lat="45.8008247" lon="10.0189919"><ele>342.0</ele><time>2026-04-18T15:52:23.811Z</time></trkpt><trkpt lat="45.8007973" lon="10.0188409"><ele>342.0</ele><time>2026-04-18T15:52:24.812Z</time></trkpt><trkpt lat="45.8007667" lon="10.0186895"><ele>342.0</ele><time>2026-04-18T15:52:25.813Z</time></trkpt><trkpt lat="45.8007274" lon="10.0185567"><ele>342.0</ele><time>2026-04-18T15:52:26.813Z</time></trkpt><trkpt lat="45.8006703" lon="10.0184652"><ele>342.0</ele><time>2026-04-18T15:52:27.813Z</time></trkpt><trkpt lat="45.8005934" lon="10.0184152"><ele>342.0</ele><time>2026-04-18T15:52:28.811Z</time></trkpt><trkpt lat="45.8005167" lon="10.0183982"><ele>342.0</ele><time>2026-04-18T15:52:29.811Z</time></trkpt><trkpt lat="45.8004356" lon="10.0183857"><ele>342.0</ele><time>2026-04-18T15:52:30.812Z</time></trkpt><trkpt lat="45.800356" lon="10.0183769"><ele>342.0</ele><time>2026-04-18T15:52:31.811Z</time></trkpt><trkpt lat="45.800269" lon="10.018364"><ele>342.0</ele><time>2026-04-18T15:52:32.811Z</time></trkpt><trkpt lat="45.8001726" lon="10.0183395"><ele>342.0</ele><time>2026-04-18T15:52:33.811Z</time></trkpt><trkpt lat="45.8000728" lon="10.0182969"><ele>342.6</ele><time>2026-04-18T15:52:34.811Z</time></trkpt><trkpt lat="45.7999863" lon="10.0182269"><ele>343.20000000000005</ele><time>2026-04-18T15:52:35.812Z</time></trkpt><trkpt lat="45.7999096" lon="10.0181276"><ele>343.8</ele><time>2026-04-18T15:52:36.81Z</time></trkpt><trkpt lat="45.7998501" lon="10.0180094"><ele>344.4</ele><time>2026-04-18T15:52:37.812Z</time></trkpt><trkpt lat="45.7997922" lon="10.017885"><ele>345.0</ele><time>2026-04-18T15:52:38.811Z</time></trkpt><trkpt lat="45.7997355" lon="10.0177613"><ele>345.0</ele><time>2026-04-18T15:52:39.812Z</time></trkpt><trkpt lat="45.7996869" lon="10.0176385"><ele>345.0</ele><time>2026-04-18T15:52:40.81Z</time></trkpt><trkpt lat="45.799649" lon="10.0175228"><ele>345.0</ele><time>2026-04-18T15:52:41.812Z</time></trkpt><trkpt lat="45.7996721" lon="10.0173618"><ele>345.0</ele><time>2026-04-18T15:52:43.812Z</time></trkpt><trkpt lat="45.7997702" lon="10.0173235"><ele>345.0</ele><time>2026-04-18T15:52:45.81Z</time></trkpt><trkpt lat="45.7998998" lon="10.0173359"><ele>345.0</ele><time>2026-04-18T15:52:47.81Z</time></trkpt><trkpt lat="45.7999733" lon="10.0173288"><ele>345.0</ele><time>2026-04-18T15:52:48.813Z</time></trkpt><trkpt lat="45.8000484" lon="10.0173214"><ele>345.0</ele><time>2026-04-18T15:52:49.81Z</time></trkpt><trkpt lat="45.8001349" lon="10.0173226"><ele>345.0</ele><time>2026-04-18T15:52:50.811Z</time></trkpt><trkpt lat="45.8002225" lon="10.0173236"><ele>345.0</ele><time>2026-04-18T15:52:51.81Z</time></trkpt><trkpt lat="45.8003029" lon="10.0173245"><ele>345.0</ele><time>2026-04-18T15:52:52.81Z</time></trkpt><trkpt lat="45.8003846" lon="10.0173123"><ele>345.0</ele><time>2026-04-18T15:52:53.81Z</time></trkpt><trkpt lat="45.8004527" lon="10.0173079"><ele>345.0</ele><time>2026-04-18T15:52:54.811Z</time></trkpt><trkpt lat="45.8005185" lon="10.0173049"><ele>345.0</ele><time>2026-04-18T15:52:55.811Z</time></trkpt><trkpt lat="45.8006212" lon="10.0173267"><ele>345.0</ele><time>2026-04-18T15:52:57.811Z</time></trkpt><trkpt lat="45.8006443" lon="10.0174656"><ele>345.0</ele><time>2026-04-18T15:53:00.81Z</time></trkpt><trkpt lat="45.8006475" lon="10.0175886"><ele>345.0</ele><time>2026-04-18T15:53:03.81Z</time></trkpt><trkpt lat="45.8006426" lon="10.0176847"><ele>344.6666666666667</ele><time>2026-04-18T15:53:06.812Z</time></trkpt><trkpt lat="45.8006288" lon="10.0177907"><ele>344.3333333333333</ele><time>2026-04-18T15:53:09.812Z</time></trkpt><trkpt lat="45.8006013" lon="10.0178761"><ele>344.0</ele><time>2026-04-18T15:53:19.812Z</time></trkpt><trkpt lat="45.8005965" lon="10.0180195"><ele>343.66666666666663</ele><time>2026-04-18T15:53:22.811Z</time></trkpt><trkpt lat="45.8005742" lon="10.0181168"><ele>343.3333333333333</ele><time>2026-04-18T15:53:25.813Z</time></trkpt><trkpt lat="45.8005452" lon="10.0180252"><ele>343.0</ele><time>2026-04-18T15:54:19.811Z</time></trkpt><trkpt lat="45.8004762" lon="10.017997"><ele>343.0</ele><time>2026-04-18T15:54:25.811Z</time></trkpt><trkpt lat="45.8005291" lon="10.0180469"><ele>343.0</ele><time>2026-04-18T15:55:03.811Z</time></trkpt><trkpt lat="45.8005803" lon="10.0181061"><ele>343.0</ele><time>2026-04-18T15:56:01.813Z</time></trkpt><trkpt lat="45.800402" lon="10.0181922"><ele>343.0</ele><time>2026-04-18T16:03:42.81Z</time></trkpt><trkpt lat="45.8003209" lon="10.0180959"><ele>343.0</ele><time>2026-04-18T16:03:44.81Z</time></trkpt><trkpt lat="45.8003319" lon="10.0179988"><ele>343.0</ele><time>2026-04-18T16:03:45.811Z</time></trkpt><trkpt lat="45.8003453" lon="10.0178768"><ele>343.0</ele><time>2026-04-18T16:03:46.811Z</time></trkpt><trkpt lat="45.8003512" lon="10.0177477"><ele>343.0</ele><time>2026-04-18T16:03:47.812Z</time></trkpt><trkpt lat="45.8003552" lon="10.0176381"><ele>343.0</ele><time>2026-04-18T16:03:48.812Z</time></trkpt><trkpt lat="45.8003547" lon="10.0174835"><ele>343.0</ele><time>2026-04-18T16:03:50.812Z</time></trkpt><trkpt lat="45.800311" lon="10.0173783"><ele>343.0</ele><time>2026-04-18T16:03:52.811Z</time></trkpt><trkpt lat="45.8002268" lon="10.0173697"><ele>343.16666666666663</ele><time>2026-04-18T16:03:54.811Z</time></trkpt><trkpt lat="45.8001132" lon="10.0173211"><ele>343.3333333333333</ele><time>2026-04-18T16:03:56.811Z</time></trkpt><trkpt lat="45.8000377" lon="10.0173074"><ele>343.5</ele><time>2026-04-18T16:03:57.813Z</time></trkpt><trkpt lat="45.7999695" lon="10.0172962"><ele>343.6666666666667</ele><time>2026-04-18T16:03:58.811Z</time></trkpt><trkpt lat="45.7999065" lon="10.0172931"><ele>343.83333333333337</ele><time>2026-04-18T16:03:59.811Z</time></trkpt><trkpt lat="45.7998009" lon="10.0172855"><ele>344.0</ele><time>2026-04-18T16:04:01.811Z</time></trkpt><trkpt lat="45.7997076" lon="10.0172853"><ele>344.0</ele><time>2026-04-18T16:04:03.81Z</time></trkpt><trkpt lat="45.7996087" lon="10.0172566"><ele>344.0</ele><time>2026-04-18T16:04:05.811Z</time></trkpt><trkpt lat="45.7995077" lon="10.0171314"><ele>344.0</ele><time>2026-04-18T16:04:07.811Z</time></trkpt><trkpt lat="45.7994717" lon="10.0170279"><ele>344.0</ele><time>2026-04-18T16:04:08.812Z</time></trkpt><trkpt lat="45.7994348" lon="10.0169044"><ele>344.0</ele><time>2026-04-18T16:04:09.811Z</time></trkpt><trkpt lat="45.799392" lon="10.0167721"><ele>344.0</ele><time>2026-04-18T16:04:10.811Z</time></trkpt><trkpt lat="45.7993444" lon="10.0166293"><ele>344.0</ele><time>2026-04-18T16:04:11.81Z</time></trkpt><trkpt lat="45.7992912" lon="10.0164764"><ele>344.0</ele><time>2026-04-18T16:04:12.811Z</time></trkpt><trkpt lat="45.7992332" lon="10.0163085"><ele>344.0</ele><time>2026-04-18T16:04:13.811Z</time></trkpt><trkpt lat="45.7991711" lon="10.0161363"><ele>343.6666666666667</ele><time>2026-04-18T16:04:14.811Z</time></trkpt><trkpt lat="45.7991058" lon="10.0159525"><ele>343.3333333333333</ele><time>2026-04-18T16:04:15.811Z</time></trkpt><trkpt lat="45.7990389" lon="10.0157523"><ele>343.0</ele><time>2026-04-18T16:04:16.811Z</time></trkpt><trkpt lat="45.7989662" lon="10.0155398"><ele>343.0</ele><time>2026-04-18T16:04:17.81Z</time></trkpt><trkpt lat="45.798893" lon="10.0153283"><ele>343.0</ele><time>2026-04-18T16:04:18.81Z</time></trkpt><trkpt lat="45.7988191" lon="10.0151108"><ele>343.0</ele><time>2026-04-18T16:04:19.811Z</time></trkpt><trkpt lat="45.7987423" lon="10.014888"><ele>343.66666666666663</ele><time>2026-04-18T16:04:20.811Z</time></trkpt><trkpt lat="45.7986636" lon="10.0146596"><ele>344.3333333333333</ele><time>2026-04-18T16:04:21.811Z</time></trkpt><trkpt lat="45.7985839" lon="10.0144308"><ele>345.0</ele><time>2026-04-18T16:04:22.811Z</time></trkpt><trkpt lat="45.7985036" lon="10.0141989"><ele>344.6666666666667</ele><time>2026-04-18T16:04:23.81Z</time></trkpt><trkpt lat="45.7984218" lon="10.0139648"><ele>344.33333333333337</ele><time>2026-04-18T16:04:24.812Z</time></trkpt><trkpt lat="45.7983392" lon="10.0137227"><ele>344.0</ele><time>2026-04-18T16:04:25.811Z</time></trkpt><trkpt lat="45.7982479" lon="10.013486"><ele>346.0</ele><time>2026-04-18T16:04:26.81Z</time></trkpt><trkpt lat="45.7981468" lon="10.0132531"><ele>348.0</ele><time>2026-04-18T16:04:27.812Z</time></trkpt><trkpt lat="45.7980337" lon="10.0130275"><ele>350.0</ele><time>2026-04-18T16:04:28.811Z</time></trkpt><trkpt lat="45.7979042" lon="10.0128137"><ele>350.0</ele><time>2026-04-18T16:04:29.81Z</time></trkpt><trkpt lat="45.7977661" lon="10.0126069"><ele>350.0</ele><time>2026-04-18T16:04:30.81Z</time></trkpt><trkpt lat="45.7976187" lon="10.0124111"><ele>350.0</ele><time>2026-04-18T16:04:31.812Z</time></trkpt><trkpt lat="45.7974666" lon="10.012216"><ele>349.6666666666667</ele><time>2026-04-18T16:04:32.81Z</time></trkpt><trkpt lat="45.797308" lon="10.0120128"><ele>349.3333333333333</ele><time>2026-04-18T16:04:33.811Z</time></trkpt><trkpt lat="45.7971425" lon="10.0117982"><ele>349.0</ele><time>2026-04-18T16:04:34.81Z</time></trkpt><trkpt lat="45.7969654" lon="10.0115727"><ele>349.5</ele><time>2026-04-18T16:04:35.81Z</time></trkpt><trkpt lat="45.796787" lon="10.011345"><ele>350.0</ele><time>2026-04-18T16:04:36.811Z</time></trkpt><trkpt lat="45.7966221" lon="10.0111283"><ele>350.0</ele><time>2026-04-18T16:04:37.812Z</time></trkpt><trkpt lat="45.7964658" lon="10.0109258"><ele>350.0</ele><time>2026-04-18T16:04:38.811Z</time></trkpt><trkpt lat="45.7963108" lon="10.0107386"><ele>350.0</ele><time>2026-04-18T16:04:39.811Z</time></trkpt><trkpt lat="45.7961616" lon="10.010562"><ele>350.0</ele><time>2026-04-18T16:04:40.812Z</time></trkpt><trkpt lat="45.7960137" lon="10.0103969"><ele>350.0</ele><time>2026-04-18T16:04:41.81Z</time></trkpt><trkpt lat="45.7958656" lon="10.0102357"><ele>350.0</ele><time>2026-04-18T16:04:42.812Z</time></trkpt><trkpt lat="45.795724" lon="10.0100841"><ele>349.0</ele><time>2026-04-18T16:04:43.813Z</time></trkpt><trkpt lat="45.7955781" lon="10.0099424"><ele>348.0</ele><time>2026-04-18T16:04:44.811Z</time></trkpt><trkpt lat="45.7954258" lon="10.0097959"><ele>347.0</ele><time>2026-04-18T16:04:45.811Z</time></trkpt><trkpt lat="45.795281" lon="10.0096553"><ele>347.0</ele><time>2026-04-18T16:04:46.812Z</time></trkpt><trkpt lat="45.7951408" lon="10.0095252"><ele>347.0</ele><time>2026-04-18T16:04:47.811Z</time></trkpt><trkpt lat="45.7950072" lon="10.0094027"><ele>347.0</ele><time>2026-04-18T16:04:48.811Z</time></trkpt><trkpt lat="45.7948701" lon="10.0092738"><ele>347.0</ele><time>2026-04-18T16:04:49.81Z</time></trkpt><trkpt lat="45.7947372" lon="10.0091376"><ele>347.0</ele><time>2026-04-18T16:04:50.81Z</time></trkpt><trkpt lat="45.7946031" lon="10.0090025"><ele>347.0</ele><time>2026-04-18T16:04:51.811Z</time></trkpt><trkpt lat="45.7944846" lon="10.0088625"><ele>347.0</ele><time>2026-04-18T16:04:52.81Z</time></trkpt><trkpt lat="45.7943781" lon="10.0087092"><ele>347.0</ele><time>2026-04-18T16:04:53.811Z</time></trkpt><trkpt lat="45.7942807" lon="10.0085452"><ele>347.0</ele><time>2026-04-18T16:04:54.81Z</time></trkpt><trkpt lat="45.7942057" lon="10.0083526"><ele>347.0</ele><time>2026-04-18T16:04:55.811Z</time></trkpt><trkpt lat="45.7941447" lon="10.0081391"><ele>347.0</ele><time>2026-04-18T16:04:56.81Z</time></trkpt><trkpt lat="45.794104" lon="10.0079215"><ele>347.0</ele><time>2026-04-18T16:04:57.81Z</time></trkpt><trkpt lat="45.7940811" lon="10.0076912"><ele>346.33333333333337</ele><time>2026-04-18T16:04:58.812Z</time></trkpt><trkpt lat="45.7940617" lon="10.0074583"><ele>345.6666666666667</ele><time>2026-04-18T16:04:59.811Z</time></trkpt><trkpt lat="45.794044" lon="10.007219"><ele>345.0</ele><time>2026-04-18T16:05:00.81Z</time></trkpt><trkpt lat="45.7940213" lon="10.0069757"><ele>345.0</ele><time>2026-04-18T16:05:01.811Z</time></trkpt><trkpt lat="45.7939968" lon="10.0067356"><ele>345.0</ele><time>2026-04-18T16:05:02.811Z</time></trkpt><trkpt lat="45.7939773" lon="10.0065027"><ele>345.0</ele><time>2026-04-18T16:05:03.81Z</time></trkpt><trkpt lat="45.7939471" lon="10.0062689"><ele>345.6666666666667</ele><time>2026-04-18T16:05:04.811Z</time></trkpt><trkpt lat="45.7939035" lon="10.0060486"><ele>346.33333333333337</ele><time>2026-04-18T16:05:05.811Z</time></trkpt><trkpt lat="45.7938403" lon="10.0058372"><ele>347.0</ele><time>2026-04-18T16:05:06.812Z</time></trkpt><trkpt lat="45.7937598" lon="10.0056375"><ele>349.6666666666667</ele><time>2026-04-18T16:05:07.811Z</time></trkpt><trkpt lat="45.793652" lon="10.0054547"><ele>352.3333333333333</ele><time>2026-04-18T16:05:08.81Z</time></trkpt><trkpt lat="45.7935288" lon="10.0052811"><ele>355.0</ele><time>2026-04-18T16:05:09.811Z</time></trkpt><trkpt lat="45.7933734" lon="10.0051109"><ele>360.3333333333333</ele><time>2026-04-18T16:05:10.813Z</time></trkpt><trkpt lat="45.7932084" lon="10.0049224"><ele>365.6666666666667</ele><time>2026-04-18T16:05:11.812Z</time></trkpt><trkpt lat="45.7930273" lon="10.0047169"><ele>371.0</ele><time>2026-04-18T16:05:12.812Z</time></trkpt><trkpt lat="45.7928497" lon="10.0045075"><ele>371.0</ele><time>2026-04-18T16:05:13.812Z</time></trkpt><trkpt lat="45.7926829" lon="10.0043056"><ele>371.0</ele><time>2026-04-18T16:05:14.811Z</time></trkpt><trkpt lat="45.7925224" lon="10.0041245"><ele>371.0</ele><time>2026-04-18T16:05:15.811Z</time></trkpt><trkpt lat="45.7923722" lon="10.0039562"><ele>367.6666666666667</ele><time>2026-04-18T16:05:16.812Z</time></trkpt><trkpt lat="45.7922321" lon="10.0037969"><ele>364.3333333333333</ele><time>2026-04-18T16:05:17.81Z</time></trkpt><trkpt lat="45.7920994" lon="10.0036466"><ele>361.0</ele><time>2026-04-18T16:05:18.81Z</time></trkpt><trkpt lat="45.7919861" lon="10.0035126"><ele>361.0</ele><time>2026-04-18T16:05:19.81Z</time></trkpt><trkpt lat="45.791881" lon="10.0033872"><ele>361.0</ele><time>2026-04-18T16:05:20.811Z</time></trkpt><trkpt lat="45.7917709" lon="10.0032624"><ele>361.0</ele><time>2026-04-18T16:05:21.811Z</time></trkpt><trkpt lat="45.7916632" lon="10.0031397"><ele>361.0</ele><time>2026-04-18T16:05:22.811Z</time></trkpt><trkpt lat="45.7915572" lon="10.0030148"><ele>360.0</ele><time>2026-04-18T16:05:23.81Z</time></trkpt><trkpt lat="45.7914509" lon="10.0029023"><ele>359.0</ele><time>2026-04-18T16:05:24.812Z</time></trkpt><trkpt lat="45.7913501" lon="10.002791"><ele>358.0</ele><time>2026-04-18T16:05:25.811Z</time></trkpt><trkpt lat="45.791256" lon="10.002693"><ele>357.0</ele><time>2026-04-18T16:05:26.81Z</time></trkpt><trkpt lat="45.791158" lon="10.0026113"><ele>357.0</ele><time>2026-04-18T16:05:27.811Z</time></trkpt><trkpt lat="45.7910673" lon="10.0025529"><ele>357.0</ele><time>2026-04-18T16:05:28.812Z</time></trkpt><trkpt lat="45.7909825" lon="10.0025088"><ele>357.0</ele><time>2026-04-18T16:05:29.812Z</time></trkpt><trkpt lat="45.7909078" lon="10.002477"><ele>357.0</ele><time>2026-04-18T16:05:30.811Z</time></trkpt><trkpt lat="45.7908359" lon="10.0024486"><ele>357.0</ele><time>2026-04-18T16:05:31.81Z</time></trkpt><trkpt lat="45.7907657" lon="10.0024092"><ele>357.0</ele><time>2026-04-18T16:05:32.811Z</time></trkpt><trkpt lat="45.7907031" lon="10.0023482"><ele>356.0</ele><time>2026-04-18T16:05:33.811Z</time></trkpt><trkpt lat="45.7906412" lon="10.0022747"><ele>355.0</ele><time>2026-04-18T16:05:34.811Z</time></trkpt><trkpt lat="45.7905661" lon="10.0022034"><ele>354.0</ele><time>2026-04-18T16:05:35.811Z</time></trkpt><trkpt lat="45.7904822" lon="10.0021222"><ele>353.0</ele><time>2026-04-18T16:05:36.81Z</time></trkpt><trkpt lat="45.7903957" lon="10.0020283"><ele>352.0</ele><time>2026-04-18T16:05:37.811Z</time></trkpt><trkpt lat="45.7903102" lon="10.0019305"><ele>352.0</ele><time>2026-04-18T16:05:38.812Z</time></trkpt><trkpt lat="45.7902263" lon="10.0018348"><ele>352.0</ele><time>2026-04-18T16:05:39.81Z</time></trkpt><trkpt lat="45.790145" lon="10.0017359"><ele>352.0</ele><time>2026-04-18T16:05:40.812Z</time></trkpt><trkpt lat="45.7900558" lon="10.0016236"><ele>352.0</ele><time>2026-04-18T16:05:41.812Z</time></trkpt><trkpt lat="45.7899571" lon="10.0015202"><ele>352.75</ele><time>2026-04-18T16:05:42.811Z</time></trkpt><trkpt lat="45.7898455" lon="10.001448"><ele>353.5</ele><time>2026-04-18T16:05:43.811Z</time></trkpt><trkpt lat="45.7897379" lon="10.0013747"><ele>354.25</ele><time>2026-04-18T16:05:44.812Z</time></trkpt><trkpt lat="45.789622" lon="10.00129"><ele>355.0</ele><time>2026-04-18T16:05:45.81Z</time></trkpt><trkpt lat="45.789501" lon="10.0011894"><ele>355.0</ele><time>2026-04-18T16:05:46.81Z</time></trkpt><trkpt lat="45.7894011" lon="10.0010773"><ele>355.0</ele><time>2026-04-18T16:05:47.811Z</time></trkpt><trkpt lat="45.7893084" lon="10.0009512"><ele>355.0</ele><time>2026-04-18T16:05:48.812Z</time></trkpt><trkpt lat="45.789222" lon="10.0008092"><ele>355.0</ele><time>2026-04-18T16:05:49.811Z</time></trkpt><trkpt lat="45.7891336" lon="10.0006702"><ele>355.0</ele><time>2026-04-18T16:05:50.811Z</time></trkpt><trkpt lat="45.7890455" lon="10.0005256"><ele>355.0</ele><time>2026-04-18T16:05:51.812Z</time></trkpt><trkpt lat="45.7889588" lon="10.0003821"><ele>355.0</ele><time>2026-04-18T16:05:52.81Z</time></trkpt><trkpt lat="45.7888784" lon="10.0002325"><ele>355.0</ele><time>2026-04-18T16:05:53.811Z</time></trkpt><trkpt lat="45.7887928" lon="10.0000832"><ele>355.0</ele><time>2026-04-18T16:05:54.811Z</time></trkpt><trkpt lat="45.7887123" lon="9.9999408"><ele>355.0</ele><time>2026-04-18T16:05:55.812Z</time></trkpt><trkpt lat="45.7886355" lon="9.9997933"><ele>355.0</ele><time>2026-04-18T16:05:56.812Z</time></trkpt><trkpt lat="45.7885557" lon="9.999659"><ele>355.0</ele><time>2026-04-18T16:05:57.81Z</time></trkpt><trkpt lat="45.7884775" lon="9.9995268"><ele>354.4</ele><time>2026-04-18T16:05:58.81Z</time></trkpt><trkpt lat="45.7884038" lon="9.9994029"><ele>353.8</ele><time>2026-04-18T16:05:59.811Z</time></trkpt><trkpt lat="45.7883361" lon="9.9992833"><ele>353.20000000000005</ele><time>2026-04-18T16:06:00.81Z</time></trkpt><trkpt lat="45.7882687" lon="9.9991708"><ele>352.6</ele><time>2026-04-18T16:06:01.812Z</time></trkpt><trkpt lat="45.7882059" lon="9.9990531"><ele>352.0</ele><time>2026-04-18T16:06:02.812Z</time></trkpt><trkpt lat="45.7881335" lon="9.9989202"><ele>352.0</ele><time>2026-04-18T16:06:03.811Z</time></trkpt><trkpt lat="45.7880734" lon="9.9987746"><ele>352.0</ele><time>2026-04-18T16:06:04.811Z</time></trkpt><trkpt lat="45.7880292" lon="9.9986272"><ele>352.0</ele><time>2026-04-18T16:06:05.81Z</time></trkpt><trkpt lat="45.7880049" lon="9.9984691"><ele>352.0</ele><time>2026-04-18T16:06:06.813Z</time></trkpt><trkpt lat="45.7879855" lon="9.9982956"><ele>351.75</ele><time>2026-04-18T16:06:07.81Z</time></trkpt><trkpt lat="45.7879732" lon="9.9981251"><ele>351.5</ele><time>2026-04-18T16:06:08.812Z</time></trkpt><trkpt lat="45.7879762" lon="9.9979539"><ele>351.25</ele><time>2026-04-18T16:06:09.812Z</time></trkpt><trkpt lat="45.7879745" lon="9.9977881"><ele>351.0</ele><time>2026-04-18T16:06:10.811Z</time></trkpt><trkpt lat="45.7879869" lon="9.9976516"><ele>351.0</ele><time>2026-04-18T16:06:11.811Z</time></trkpt><trkpt lat="45.7880012" lon="9.9975241"><ele>351.0</ele><time>2026-04-18T16:06:12.811Z</time></trkpt><trkpt lat="45.7880137" lon="9.9974206"><ele>351.0</ele><time>2026-04-18T16:06:13.811Z</time></trkpt><trkpt lat="45.7880247" lon="9.9973087"><ele>351.0</ele><time>2026-04-18T16:06:15.811Z</time></trkpt><trkpt lat="45.7880275" lon="9.9971813"><ele>351.0</ele><time>2026-04-18T16:06:19.811Z</time></trkpt><trkpt lat="45.7880554" lon="9.9970562"><ele>351.0</ele><time>2026-04-18T16:06:21.811Z</time></trkpt><trkpt lat="45.7880676" lon="9.99692"><ele>350.6</ele><time>2026-04-18T16:06:23.811Z</time></trkpt><trkpt lat="45.7880754" lon="9.9968023"><ele>350.20000000000005</ele><time>2026-04-18T16:06:24.812Z</time></trkpt><trkpt lat="45.7880822" lon="9.9966863"><ele>349.79999999999995</ele><time>2026-04-18T16:06:25.81Z</time></trkpt><trkpt lat="45.7880979" lon="9.9965552"><ele>349.4</ele><time>2026-04-18T16:06:26.811Z</time></trkpt><trkpt lat="45.7881065" lon="9.996388"><ele>349.0</ele><time>2026-04-18T16:06:27.811Z</time></trkpt><trkpt lat="45.7881276" lon="9.9962095"><ele>348.5</ele><time>2026-04-18T16:06:28.811Z</time></trkpt><trkpt lat="45.7881312" lon="9.9960201"><ele>348.0</ele><time>2026-04-18T16:06:29.812Z</time></trkpt><trkpt lat="45.7881516" lon="9.9958244"><ele>347.5</ele><time>2026-04-18T16:06:30.811Z</time></trkpt><trkpt lat="45.788177" lon="9.9956265"><ele>347.0</ele><time>2026-04-18T16:06:31.812Z</time></trkpt><trkpt lat="45.7882002" lon="9.9954235"><ele>346.6666666666667</ele><time>2026-04-18T16:06:32.81Z</time></trkpt><trkpt lat="45.7882308" lon="9.9951896"><ele>346.3333333333333</ele><time>2026-04-18T16:06:33.811Z</time></trkpt><trkpt lat="45.7882683" lon="9.9949662"><ele>346.0</ele><time>2026-04-18T16:06:34.81Z</time></trkpt><trkpt lat="45.7883034" lon="9.9947491"><ele>345.66666666666663</ele><time>2026-04-18T16:06:35.81Z</time></trkpt><trkpt lat="45.7883416" lon="9.9945123"><ele>345.3333333333333</ele><time>2026-04-18T16:06:36.81Z</time></trkpt><trkpt lat="45.7883806" lon="9.9942652"><ele>345.0</ele><time>2026-04-18T16:06:37.811Z</time></trkpt><trkpt lat="45.7884174" lon="9.9940017"><ele>344.0</ele><time>2026-04-18T16:06:38.811Z</time></trkpt><trkpt lat="45.7884745" lon="9.993681"><ele>343.0</ele><time>2026-04-18T16:06:39.811Z</time></trkpt><trkpt lat="45.7885398" lon="9.9933557"><ele>345.0</ele><time>2026-04-18T16:06:40.812Z</time></trkpt><trkpt lat="45.7886161" lon="9.9930151"><ele>347.0</ele><time>2026-04-18T16:06:41.81Z</time></trkpt><trkpt lat="45.7887076" lon="9.9926744"><ele>346.0</ele><time>2026-04-18T16:06:42.81Z</time></trkpt><trkpt lat="45.7888135" lon="9.9923501"><ele>345.0</ele><time>2026-04-18T16:06:43.812Z</time></trkpt><trkpt lat="45.7889303" lon="9.9920317"><ele>345.0</ele><time>2026-04-18T16:06:44.812Z</time></trkpt><trkpt lat="45.7890472" lon="9.9917398"><ele>345.0</ele><time>2026-04-18T16:06:45.811Z</time></trkpt><trkpt lat="45.7891533" lon="9.991466"><ele>344.6666666666667</ele><time>2026-04-18T16:06:46.812Z</time></trkpt><trkpt lat="45.789252" lon="9.9912072"><ele>344.33333333333337</ele><time>2026-04-18T16:06:47.81Z</time></trkpt><trkpt lat="45.7893493" lon="9.9909737"><ele>344.0</ele><time>2026-04-18T16:06:48.81Z</time></trkpt><trkpt lat="45.7894473" lon="9.9907253"><ele>344.0</ele><time>2026-04-18T16:06:49.81Z</time></trkpt><trkpt lat="45.7895408" lon="9.9904846"><ele>344.0</ele><time>2026-04-18T16:06:50.811Z</time></trkpt><trkpt lat="45.789635" lon="9.9902511"><ele>344.0</ele><time>2026-04-18T16:06:51.811Z</time></trkpt><trkpt lat="45.7897318" lon="9.9900159"><ele>344.33333333333337</ele><time>2026-04-18T16:06:52.81Z</time></trkpt><trkpt lat="45.7898273" lon="9.9897571"><ele>344.6666666666667</ele><time>2026-04-18T16:06:53.811Z</time></trkpt><trkpt lat="45.7899352" lon="9.9894872"><ele>345.0</ele><time>2026-04-18T16:06:54.811Z</time></trkpt><trkpt lat="45.7900528" lon="9.9892128"><ele>345.0</ele><time>2026-04-18T16:06:55.81Z</time></trkpt><trkpt lat="45.7901707" lon="9.9889379"><ele>345.0</ele><time>2026-04-18T16:06:56.81Z</time></trkpt><trkpt lat="45.7902503" lon="9.9886783"><ele>345.0</ele><time>2026-04-18T16:06:57.812Z</time></trkpt><trkpt lat="45.790318" lon="9.9884177"><ele>346.0</ele><time>2026-04-18T16:06:58.811Z</time></trkpt><trkpt lat="45.7903663" lon="9.988151"><ele>347.0</ele><time>2026-04-18T16:06:59.81Z</time></trkpt><trkpt lat="45.7903634" lon="9.9878881"><ele>348.0</ele><time>2026-04-18T16:07:00.811Z</time></trkpt><trkpt lat="45.7903546" lon="9.9876098"><ele>348.3333333333333</ele><time>2026-04-18T16:07:01.811Z</time></trkpt><trkpt lat="45.7903298" lon="9.9873261"><ele>348.66666666666663</ele><time>2026-04-18T16:07:02.81Z</time></trkpt><trkpt lat="45.7902922" lon="9.9870362"><ele>349.0</ele><time>2026-04-18T16:07:03.812Z</time></trkpt><trkpt lat="45.7902518" lon="9.9867442"><ele>349.66666666666663</ele><time>2026-04-18T16:07:04.812Z</time></trkpt><trkpt lat="45.7902223" lon="9.98644"><ele>350.3333333333333</ele><time>2026-04-18T16:07:05.812Z</time></trkpt><trkpt lat="45.7902148" lon="9.986131"><ele>351.0</ele><time>2026-04-18T16:07:06.811Z</time></trkpt><trkpt lat="45.790228" lon="9.9858201"><ele>352.0</ele><time>2026-04-18T16:07:07.811Z</time></trkpt><trkpt lat="45.7902703" lon="9.9855066"><ele>353.0</ele><time>2026-04-18T16:07:08.812Z</time></trkpt><trkpt lat="45.7903357" lon="9.9851987"><ele>354.0</ele><time>2026-04-18T16:07:09.811Z</time></trkpt><trkpt lat="45.790398" lon="9.9848937"><ele>355.3333333333333</ele><time>2026-04-18T16:07:10.811Z</time></trkpt><trkpt lat="45.79044" lon="9.9845842"><ele>356.66666666666663</ele><time>2026-04-18T16:07:11.81Z</time></trkpt><trkpt lat="45.7904568" lon="9.984264"><ele>358.0</ele><time>2026-04-18T16:07:12.811Z</time></trkpt><trkpt lat="45.7904444" lon="9.9839327"><ele>358.0</ele><time>2026-04-18T16:07:13.811Z</time></trkpt><trkpt lat="45.7904173" lon="9.9835882"><ele>358.0</ele><time>2026-04-18T16:07:14.81Z</time></trkpt><trkpt lat="45.7903807" lon="9.9832373"><ele>359.0</ele><time>2026-04-18T16:07:15.813Z</time></trkpt><trkpt lat="45.7903454" lon="9.9828678"><ele>360.0</ele><time>2026-04-18T16:07:16.811Z</time></trkpt><trkpt lat="45.7903154" lon="9.9825248"><ele>359.0</ele><time>2026-04-18T16:07:17.811Z</time></trkpt><trkpt lat="45.7902953" lon="9.9822016"><ele>358.0</ele><time>2026-04-18T16:07:18.811Z</time></trkpt><trkpt lat="45.7902859" lon="9.9818941"><ele>357.0</ele><time>2026-04-18T16:07:19.81Z</time></trkpt><trkpt lat="45.7902978" lon="9.9816085"><ele>355.6666666666667</ele><time>2026-04-18T16:07:20.812Z</time></trkpt><trkpt lat="45.7903212" lon="9.9813386"><ele>354.33333333333337</ele><time>2026-04-18T16:07:21.813Z</time></trkpt><trkpt lat="45.7903484" lon="9.9810871"><ele>353.0</ele><time>2026-04-18T16:07:22.81Z</time></trkpt><trkpt lat="45.7903829" lon="9.9808588"><ele>352.75</ele><time>2026-04-18T16:07:23.812Z</time></trkpt><trkpt lat="45.7904116" lon="9.9806333"><ele>352.5</ele><time>2026-04-18T16:07:24.81Z</time></trkpt><trkpt lat="45.7904333" lon="9.9804192"><ele>352.25</ele><time>2026-04-18T16:07:25.811Z</time></trkpt><trkpt lat="45.7904459" lon="9.9802293"><ele>352.0</ele><time>2026-04-18T16:07:26.811Z</time></trkpt><trkpt lat="45.7904634" lon="9.98005"><ele>352.0</ele><time>2026-04-18T16:07:27.81Z</time></trkpt><trkpt lat="45.7904784" lon="9.9798768"><ele>352.0</ele><time>2026-04-18T16:07:28.811Z</time></trkpt><trkpt lat="45.7904893" lon="9.9797667"><ele>352.0</ele><time>2026-04-18T16:07:29.811Z</time></trkpt><trkpt lat="45.7905003" lon="9.9796709"><ele>352.0</ele><time>2026-04-18T16:07:30.811Z</time></trkpt><trkpt lat="45.7905145" lon="9.9795171"><ele>352.0</ele><time>2026-04-18T16:07:32.811Z</time></trkpt><trkpt lat="45.790487" lon="9.9794195"><ele>352.0</ele><time>2026-04-18T16:07:34.81Z</time></trkpt><trkpt lat="45.7904111" lon="9.9794454"><ele>352.0</ele><time>2026-04-18T16:07:36.811Z</time></trkpt><trkpt lat="45.7903349" lon="9.9794877"><ele>352.0</ele><time>2026-04-18T16:07:37.81Z</time></trkpt><trkpt lat="45.7902465" lon="9.9795626"><ele>352.0</ele><time>2026-04-18T16:07:38.812Z</time></trkpt><trkpt lat="45.7901631" lon="9.9797425"><ele>352.0</ele><time>2026-04-18T16:07:39.811Z</time></trkpt><trkpt lat="45.790089" lon="9.9799016"><ele>348.66666666666663</ele><time>2026-04-18T16:07:40.811Z</time></trkpt><trkpt lat="45.789979" lon="9.9800437"><ele>345.3333333333333</ele><time>2026-04-18T16:07:41.81Z</time></trkpt><trkpt lat="45.7898614" lon="9.9801915"><ele>342.0</ele><time>2026-04-18T16:07:42.811Z</time></trkpt><trkpt lat="45.789737" lon="9.9803294"><ele>342.0</ele><time>2026-04-18T16:07:43.81Z</time></trkpt><trkpt lat="45.7896008" lon="9.9804578"><ele>342.0</ele><time>2026-04-18T16:07:44.811Z</time></trkpt><trkpt lat="45.789461" lon="9.9805717"><ele>342.0</ele><time>2026-04-18T16:07:45.811Z</time></trkpt><trkpt lat="45.7893226" lon="9.9806758"><ele>341.0</ele><time>2026-04-18T16:07:46.811Z</time></trkpt><trkpt lat="45.7891847" lon="9.9807701"><ele>340.0</ele><time>2026-04-18T16:07:47.811Z</time></trkpt><trkpt lat="45.7890515" lon="9.9808721"><ele>339.0</ele><time>2026-04-18T16:07:48.811Z</time></trkpt><trkpt lat="45.7889228" lon="9.980975"><ele>339.0</ele><time>2026-04-18T16:07:49.811Z</time></trkpt><trkpt lat="45.7887921" lon="9.9810759"><ele>339.0</ele><time>2026-04-18T16:07:50.81Z</time></trkpt><trkpt lat="45.7886641" lon="9.9811657"><ele>339.0</ele><time>2026-04-18T16:07:51.81Z</time></trkpt><trkpt lat="45.7885471" lon="9.9812517"><ele>339.0</ele><time>2026-04-18T16:07:52.811Z</time></trkpt><trkpt lat="45.7884288" lon="9.981318"><ele>339.25</ele><time>2026-04-18T16:07:53.81Z</time></trkpt><trkpt lat="45.7883072" lon="9.9813536"><ele>339.5</ele><time>2026-04-18T16:07:54.811Z</time></trkpt><trkpt lat="45.7881924" lon="9.981337"><ele>339.75</ele><time>2026-04-18T16:07:55.811Z</time></trkpt><trkpt lat="45.7880842" lon="9.9812936"><ele>340.0</ele><time>2026-04-18T16:07:56.812Z</time></trkpt><trkpt lat="45.7879923" lon="9.9811866"><ele>340.0</ele><time>2026-04-18T16:07:57.812Z</time></trkpt><trkpt lat="45.7879055" lon="9.9810655"><ele>340.0</ele><time>2026-04-18T16:07:58.811Z</time></trkpt><trkpt lat="45.7878272" lon="9.9809216"><ele>340.0</ele><time>2026-04-18T16:07:59.811Z</time></trkpt><trkpt lat="45.7877633" lon="9.9807656"><ele>340.0</ele><time>2026-04-18T16:08:00.812Z</time></trkpt><trkpt lat="45.7877144" lon="9.9805963"><ele>339.8</ele><time>2026-04-18T16:08:01.812Z</time></trkpt><trkpt lat="45.7876791" lon="9.9804273"><ele>339.6</ele><time>2026-04-18T16:08:02.811Z</time></trkpt><trkpt lat="45.7876467" lon="9.9802673"><ele>339.4</ele><time>2026-04-18T16:08:03.81Z</time></trkpt><trkpt lat="45.7876215" lon="9.9801205"><ele>339.2</ele><time>2026-04-18T16:08:04.812Z</time></trkpt><trkpt lat="45.7876008" lon="9.9799778"><ele>339.0</ele><time>2026-04-18T16:08:05.811Z</time></trkpt><trkpt lat="45.7875808" lon="9.9798746"><ele>338.79999999999995</ele><time>2026-04-18T16:08:06.811Z</time></trkpt><trkpt lat="45.7875459" lon="9.9797277"><ele>338.59999999999997</ele><time>2026-04-18T16:08:08.812Z</time></trkpt><trkpt lat="45.7875731" lon="9.9796444"><ele>338.4</ele><time>2026-04-18T16:08:12.812Z</time></trkpt><trkpt lat="45.7875964" lon="9.979778"><ele>338.2</ele><time>2026-04-18T16:09:06.811Z</time></trkpt><trkpt lat="45.7876888" lon="9.9798032"><ele>338.0</ele><time>2026-04-18T16:09:08.81Z</time></trkpt><trkpt lat="45.7877746" lon="9.9797599"><ele>336.0</ele><time>2026-04-18T16:09:10.811Z</time></trkpt></trkseg></trk></gpx>